<?xml version="1.0" encoding="UTF-8"?>
<gpx version="1.1" creator="2bulu-scraper" xmlns="http://www.topografix.com/GPX/1/1">
  <metadata><name>榕山之巅.古宋城四门连穿</name><desc>source: 2bulu.com trackId=78875078; exported 2026-09-01T14:40:35.199Z</desc>
    <bounds minlat="28.7886938" minlon="105.927616" maxlat="28.8244497" maxlon="105.9653585"/>
    <link href="https://www.2bulu.com/track/t-DJ%252Bb64xkxQrp%252FR2KBg5Tzw%253D%253D.htm"><text>2bulu 源页面</text></link>
  </metadata>
  <wpt lat="28.8243161" lon="105.9483632"><ele>388</ele><name>也算蔗田
        </name></wpt>
  <wpt lat="28.824296" lon="105.9502881"><ele>431</ele><name>遥望榕山
        </name></wpt>
  <wpt lat="28.8195183" lon="105.952843"><ele>519</ele><name>八仙洞府
        </name></wpt>
  <wpt lat="28.8148164" lon="105.9579728"><ele>732</ele><name>古宋城永昌门
        </name></wpt>
  <wpt lat="28.8207412" lon="105.9567264"><ele>767</ele><name>古宋城太平门
        </name></wpt>
  <wpt lat="28.8228553" lon="105.9577294"><ele>818</ele><name>天鹅湖
        </name></wpt>
  <wpt lat="28.8219987" lon="105.9575966"><ele>831</ele><name>水库管理所
        </name></wpt>
  <wpt lat="28.8227225" lon="105.9592721"><ele>827</ele><name>金鸭潭
        </name></wpt>
  <wpt lat="28.8236527" lon="105.9604521"><ele>868</ele><name>榕山之巅
        </name></wpt>
  <wpt lat="28.8203262" lon="105.9637913"><ele>752</ele><name>古宋城吉安门
        </name></wpt>
  <wpt lat="28.8174697" lon="105.9648835"><ele>663</ele><name>曲径通幽处
        </name></wpt>
  <wpt lat="28.8162246" lon="105.9624704"><ele>745</ele><name>得胜门
        </name></wpt>
  <wpt lat="28.8159411" lon="105.9603265"><ele>878</ele><name>林场残垣
        </name></wpt>
  <wpt lat="28.7915887" lon="105.9558089"><ele>681</ele><name>皂角沟
        </name></wpt>
  <wpt lat="28.7937807" lon="105.9466976"><ele>578</ele><name>回望榕山
        </name></wpt>
  <trk><name>榕山之巅.古宋城四门连穿</name>
      <trkseg>
        <trkpt lat="28.8238069" lon="105.928152"><ele>193.25</ele><time>2026-02-05T17:15:04.000Z</time></trkpt>
        <trkpt lat="28.8237563" lon="105.9282097"><ele>193.25</ele><time>2026-02-05T17:15:11.000Z</time></trkpt>
        <trkpt lat="28.8236983" lon="105.9282989"><ele>192.05</ele><time>2026-02-05T17:15:17.000Z</time></trkpt>
        <trkpt lat="28.8236752" lon="105.9284219"><ele>193.48</ele><time>2026-02-05T17:15:25.000Z</time></trkpt>
        <trkpt lat="28.8236846" lon="105.9285465"><ele>194.54</ele><time>2026-02-05T17:15:33.000Z</time></trkpt>
        <trkpt lat="28.8237082" lon="105.9286631"><ele>196.2</ele><time>2026-02-05T17:15:41.000Z</time></trkpt>
        <trkpt lat="28.8237266" lon="105.9287833"><ele>197.4</ele><time>2026-02-05T17:15:49.000Z</time></trkpt>
        <trkpt lat="28.8237171" lon="105.9288983"><ele>198.5</ele><time>2026-02-05T17:15:57.000Z</time></trkpt>
        <trkpt lat="28.8236665" lon="105.9289998"><ele>198.8</ele><time>2026-02-05T17:16:05.000Z</time></trkpt>
        <trkpt lat="28.82358" lon="105.9290663"><ele>198.62</ele><time>2026-02-05T17:16:13.000Z</time></trkpt>
        <trkpt lat="28.8234768" lon="105.9290671"><ele>197.91</ele><time>2026-02-05T17:16:21.000Z</time></trkpt>
        <trkpt lat="28.8233735" lon="105.9290312"><ele>197.24</ele><time>2026-02-05T17:16:29.000Z</time></trkpt>
        <trkpt lat="28.8232689" lon="105.9289868"><ele>197</ele><time>2026-02-05T17:16:37.000Z</time></trkpt>
        <trkpt lat="28.823161" lon="105.9289633"><ele>196.85</ele><time>2026-02-05T17:16:45.000Z</time></trkpt>
        <trkpt lat="28.8230569" lon="105.9289793"><ele>196.77</ele><time>2026-02-05T17:16:53.000Z</time></trkpt>
        <trkpt lat="28.8229805" lon="105.9290512"><ele>196.54</ele><time>2026-02-05T17:17:01.000Z</time></trkpt>
        <trkpt lat="28.8228884" lon="105.9290755"><ele>197.19</ele><time>2026-02-05T17:17:13.000Z</time></trkpt>
        <trkpt lat="28.8228496" lon="105.9290492"><ele>197.65</ele><time>2026-02-05T17:17:21.000Z</time></trkpt>
        <trkpt lat="28.8228458" lon="105.9289507"><ele>197.88</ele><time>2026-02-05T17:17:39.000Z</time></trkpt>
        <trkpt lat="28.8227712" lon="105.9288838"><ele>198.65</ele><time>2026-02-05T17:17:49.000Z</time></trkpt>
        <trkpt lat="28.8226745" lon="105.9288064"><ele>198.56</ele><time>2026-02-05T17:17:55.000Z</time></trkpt>
        <trkpt lat="28.8225512" lon="105.9287911"><ele>199.65</ele><time>2026-02-05T17:18:03.000Z</time></trkpt>
        <trkpt lat="28.8224572" lon="105.9288464"><ele>200.87</ele><time>2026-02-05T17:18:09.000Z</time></trkpt>
        <trkpt lat="28.8223719" lon="105.9289293"><ele>202.31</ele><time>2026-02-05T17:18:17.000Z</time></trkpt>
        <trkpt lat="28.8222912" lon="105.9290197"><ele>204.13</ele><time>2026-02-05T17:18:25.000Z</time></trkpt>
        <trkpt lat="28.822224" lon="105.9291188"><ele>206.9</ele><time>2026-02-05T17:18:33.000Z</time></trkpt>
        <trkpt lat="28.8221522" lon="105.9292176"><ele>208.78</ele><time>2026-02-05T17:18:43.000Z</time></trkpt>
        <trkpt lat="28.8220837" lon="105.9292994"><ele>210.44</ele><time>2026-02-05T17:18:53.000Z</time></trkpt>
        <trkpt lat="28.8220115" lon="105.9293661"><ele>212.75</ele><time>2026-02-05T17:19:05.000Z</time></trkpt>
        <trkpt lat="28.821933" lon="105.9294352"><ele>215.68</ele><time>2026-02-05T17:19:21.000Z</time></trkpt>
        <trkpt lat="28.8218686" lon="105.92952"><ele>219.8</ele><time>2026-02-05T17:19:37.000Z</time></trkpt>
        <trkpt lat="28.8218119" lon="105.9296097"><ele>223.61</ele><time>2026-02-05T17:19:51.000Z</time></trkpt>
        <trkpt lat="28.8217482" lon="105.9296963"><ele>228.29</ele><time>2026-02-05T17:20:07.000Z</time></trkpt>
        <trkpt lat="28.8217022" lon="105.929798"><ele>233.01</ele><time>2026-02-05T17:20:29.000Z</time></trkpt>
        <trkpt lat="28.8216554" lon="105.9298927"><ele>237.11</ele><time>2026-02-05T17:20:47.000Z</time></trkpt>
        <trkpt lat="28.8215998" lon="105.9299803"><ele>241.16</ele><time>2026-02-05T17:21:07.000Z</time></trkpt>
        <trkpt lat="28.8215547" lon="105.9300716"><ele>244.93</ele><time>2026-02-05T17:21:23.000Z</time></trkpt>
        <trkpt lat="28.8215383" lon="105.9301795"><ele>248.93</ele><time>2026-02-05T17:21:35.000Z</time></trkpt>
        <trkpt lat="28.8215312" lon="105.9303035"><ele>250.87</ele><time>2026-02-05T17:21:45.000Z</time></trkpt>
        <trkpt lat="28.8215397" lon="105.9304288"><ele>251.66</ele><time>2026-02-05T17:21:55.000Z</time></trkpt>
        <trkpt lat="28.8215415" lon="105.9305469"><ele>252.31</ele><time>2026-02-05T17:22:05.000Z</time></trkpt>
        <trkpt lat="28.8215364" lon="105.9306571"><ele>253.25</ele><time>2026-02-05T17:22:15.000Z</time></trkpt>
        <trkpt lat="28.8215284" lon="105.9307686"><ele>255.73</ele><time>2026-02-05T17:22:27.000Z</time></trkpt>
        <trkpt lat="28.8215755" lon="105.930867"><ele>258.97</ele><time>2026-02-05T17:22:39.000Z</time></trkpt>
        <trkpt lat="28.8216319" lon="105.9309573"><ele>261.85</ele><time>2026-02-05T17:22:53.000Z</time></trkpt>
        <trkpt lat="28.821663" lon="105.9310601"><ele>266.07</ele><time>2026-02-05T17:23:09.000Z</time></trkpt>
        <trkpt lat="28.8216616" lon="105.931173"><ele>270.68</ele><time>2026-02-05T17:23:23.000Z</time></trkpt>
        <trkpt lat="28.8216275" lon="105.9312833"><ele>273.81</ele><time>2026-02-05T17:23:35.000Z</time></trkpt>
        <trkpt lat="28.8215957" lon="105.9313894"><ele>275.91</ele><time>2026-02-05T17:23:45.000Z</time></trkpt>
        <trkpt lat="28.8216182" lon="105.931487"><ele>276.35</ele><time>2026-02-05T17:23:53.000Z</time></trkpt>
        <trkpt lat="28.8216138" lon="105.9315874"><ele>275.9</ele><time>2026-02-05T17:24:01.000Z</time></trkpt>
        <trkpt lat="28.8215957" lon="105.931691"><ele>275.51</ele><time>2026-02-05T17:24:09.000Z</time></trkpt>
        <trkpt lat="28.8215573" lon="105.9317885"><ele>275.42</ele><time>2026-02-05T17:24:17.000Z</time></trkpt>
        <trkpt lat="28.8215047" lon="105.9318771"><ele>274.83</ele><time>2026-02-05T17:24:25.000Z</time></trkpt>
        <trkpt lat="28.8214342" lon="105.9319441"><ele>274.29</ele><time>2026-02-05T17:24:33.000Z</time></trkpt>
        <trkpt lat="28.8213656" lon="105.9320203"><ele>273.33</ele><time>2026-02-05T17:24:41.000Z</time></trkpt>
        <trkpt lat="28.8213002" lon="105.9320962"><ele>272.31</ele><time>2026-02-05T17:24:49.000Z</time></trkpt>
        <trkpt lat="28.821221" lon="105.9321465"><ele>272.36</ele><time>2026-02-05T17:24:57.000Z</time></trkpt>
        <trkpt lat="28.8211465" lon="105.932208"><ele>272.31</ele><time>2026-02-05T17:25:05.000Z</time></trkpt>
        <trkpt lat="28.8210617" lon="105.9322505"><ele>272.36</ele><time>2026-02-05T17:25:13.000Z</time></trkpt>
        <trkpt lat="28.8209624" lon="105.9322781"><ele>272.08</ele><time>2026-02-05T17:25:21.000Z</time></trkpt>
        <trkpt lat="28.8208842" lon="105.9323393"><ele>272.13</ele><time>2026-02-05T17:25:29.000Z</time></trkpt>
        <trkpt lat="28.8208206" lon="105.9324332"><ele>272.36</ele><time>2026-02-05T17:25:37.000Z</time></trkpt>
        <trkpt lat="28.8207795" lon="105.932536"><ele>272.81</ele><time>2026-02-05T17:25:45.000Z</time></trkpt>
        <trkpt lat="28.8207657" lon="105.9326463"><ele>272.98</ele><time>2026-02-05T17:25:53.000Z</time></trkpt>
        <trkpt lat="28.8207428" lon="105.9327552"><ele>272.69</ele><time>2026-02-05T17:26:01.000Z</time></trkpt>
        <trkpt lat="28.8206735" lon="105.9328192"><ele>272.41</ele><time>2026-02-05T17:26:09.000Z</time></trkpt>
        <trkpt lat="28.8205859" lon="105.9328612"><ele>272.2</ele><time>2026-02-05T17:26:17.000Z</time></trkpt>
        <trkpt lat="28.8204929" lon="105.9328841"><ele>271.7</ele><time>2026-02-05T17:26:25.000Z</time></trkpt>
        <trkpt lat="28.8204159" lon="105.9329493"><ele>271.3</ele><time>2026-02-05T17:26:35.000Z</time></trkpt>
        <trkpt lat="28.8203261" lon="105.9330108"><ele>272.97</ele><time>2026-02-05T17:26:47.000Z</time></trkpt>
        <trkpt lat="28.8202386" lon="105.9330617"><ele>275.08</ele><time>2026-02-05T17:26:57.000Z</time></trkpt>
        <trkpt lat="28.8201486" lon="105.9330929"><ele>276.7</ele><time>2026-02-05T17:27:05.000Z</time></trkpt>
        <trkpt lat="28.8201119" lon="105.9331774"><ele>277.71</ele><time>2026-02-05T17:27:13.000Z</time></trkpt>
        <trkpt lat="28.8201336" lon="105.9332808"><ele>278.78</ele><time>2026-02-05T17:27:21.000Z</time></trkpt>
        <trkpt lat="28.8201643" lon="105.9333916"><ele>279.78</ele><time>2026-02-05T17:27:29.000Z</time></trkpt>
        <trkpt lat="28.8201807" lon="105.9335078"><ele>280.36</ele><time>2026-02-05T17:27:37.000Z</time></trkpt>
        <trkpt lat="28.8202058" lon="105.9336207"><ele>279.91</ele><time>2026-02-05T17:27:45.000Z</time></trkpt>
        <trkpt lat="28.8202304" lon="105.933731"><ele>279.11</ele><time>2026-02-05T17:27:53.000Z</time></trkpt>
        <trkpt lat="28.8202221" lon="105.9338394"><ele>278.48</ele><time>2026-02-05T17:28:01.000Z</time></trkpt>
        <trkpt lat="28.8201816" lon="105.9339359"><ele>277.61</ele><time>2026-02-05T17:28:09.000Z</time></trkpt>
        <trkpt lat="28.8201294" lon="105.9340388"><ele>276.88</ele><time>2026-02-05T17:28:19.000Z</time></trkpt>
        <trkpt lat="28.8200759" lon="105.9341462"><ele>275.97</ele><time>2026-02-05T17:28:29.000Z</time></trkpt>
        <trkpt lat="28.8200478" lon="105.9342496"><ele>274.65</ele><time>2026-02-05T17:28:37.000Z</time></trkpt>
        <trkpt lat="28.8200792" lon="105.9343641"><ele>273.34</ele><time>2026-02-05T17:28:47.000Z</time></trkpt>
        <trkpt lat="28.8201458" lon="105.9344555"><ele>271.75</ele><time>2026-02-05T17:28:55.000Z</time></trkpt>
        <trkpt lat="28.8202415" lon="105.9345105"><ele>270.79</ele><time>2026-02-05T17:29:03.000Z</time></trkpt>
        <trkpt lat="28.8203426" lon="105.9344965"><ele>269.87</ele><time>2026-02-05T17:29:11.000Z</time></trkpt>
        <trkpt lat="28.8204496" lon="105.934458"><ele>269.12</ele><time>2026-02-05T17:29:19.000Z</time></trkpt>
        <trkpt lat="28.8205656" lon="105.9344443"><ele>269.07</ele><time>2026-02-05T17:29:27.000Z</time></trkpt>
        <trkpt lat="28.8206606" lon="105.9344998"><ele>269.36</ele><time>2026-02-05T17:29:35.000Z</time></trkpt>
        <trkpt lat="28.8207018" lon="105.9345988"><ele>269.95</ele><time>2026-02-05T17:29:43.000Z</time></trkpt>
        <trkpt lat="28.820685" lon="105.9347131"><ele>270.78</ele><time>2026-02-05T17:29:53.000Z</time></trkpt>
        <trkpt lat="28.8206594" lon="105.9348406"><ele>271.3</ele><time>2026-02-05T17:30:03.000Z</time></trkpt>
        <trkpt lat="28.8206609" lon="105.9349558"><ele>272.05</ele><time>2026-02-05T17:30:11.000Z</time></trkpt>
        <trkpt lat="28.8206904" lon="105.9350563"><ele>272.47</ele><time>2026-02-05T17:30:19.000Z</time></trkpt>
        <trkpt lat="28.8207585" lon="105.9351504"><ele>272.71</ele><time>2026-02-05T17:30:29.000Z</time></trkpt>
        <trkpt lat="28.8208374" lon="105.9352178"><ele>272.33</ele><time>2026-02-05T17:30:37.000Z</time></trkpt>
        <trkpt lat="28.8209246" lon="105.9352676"><ele>272.18</ele><time>2026-02-05T17:30:45.000Z</time></trkpt>
        <trkpt lat="28.8210181" lon="105.9352943"><ele>271.93</ele><time>2026-02-05T17:30:53.000Z</time></trkpt>
        <trkpt lat="28.8211151" lon="105.9352925"><ele>272.17</ele><time>2026-02-05T17:31:01.000Z</time></trkpt>
        <trkpt lat="28.8212194" lon="105.9352836"><ele>272.46</ele><time>2026-02-05T17:31:09.000Z</time></trkpt>
        <trkpt lat="28.821325" lon="105.9352836"><ele>273.02</ele><time>2026-02-05T17:31:17.000Z</time></trkpt>
        <trkpt lat="28.8214095" lon="105.9353314"><ele>273.63</ele><time>2026-02-05T17:31:25.000Z</time></trkpt>
        <trkpt lat="28.8215" lon="105.9353978"><ele>273.87</ele><time>2026-02-05T17:31:33.000Z</time></trkpt>
        <trkpt lat="28.8215983" lon="105.9354481"><ele>273.64</ele><time>2026-02-05T17:31:41.000Z</time></trkpt>
        <trkpt lat="28.8216939" lon="105.9354932"><ele>273.16</ele><time>2026-02-05T17:31:49.000Z</time></trkpt>
        <trkpt lat="28.821776" lon="105.9355605"><ele>272.49</ele><time>2026-02-05T17:31:57.000Z</time></trkpt>
        <trkpt lat="28.8218219" lon="105.935661"><ele>271.38</ele><time>2026-02-05T17:32:05.000Z</time></trkpt>
        <trkpt lat="28.8218541" lon="105.9357726"><ele>270.26</ele><time>2026-02-05T17:32:13.000Z</time></trkpt>
        <trkpt lat="28.8219075" lon="105.9358691"><ele>269.42</ele><time>2026-02-05T17:32:21.000Z</time></trkpt>
        <trkpt lat="28.8219828" lon="105.9359376"><ele>269.3</ele><time>2026-02-05T17:32:29.000Z</time></trkpt>
        <trkpt lat="28.822062" lon="105.9359965"><ele>270.94</ele><time>2026-02-05T17:32:37.000Z</time></trkpt>
        <trkpt lat="28.8221251" lon="105.9360862"><ele>272.18</ele><time>2026-02-05T17:32:47.000Z</time></trkpt>
        <trkpt lat="28.8221519" lon="105.9361908"><ele>273.99</ele><time>2026-02-05T17:32:55.000Z</time></trkpt>
        <trkpt lat="28.8221948" lon="105.9362972"><ele>275.74</ele><time>2026-02-05T17:33:05.000Z</time></trkpt>
        <trkpt lat="28.8222425" lon="105.9364109"><ele>276.6</ele><time>2026-02-05T17:33:15.000Z</time></trkpt>
        <trkpt lat="28.8222649" lon="105.9365251"><ele>276.89</ele><time>2026-02-05T17:33:23.000Z</time></trkpt>
        <trkpt lat="28.8222922" lon="105.9366325"><ele>277.81</ele><time>2026-02-05T17:33:31.000Z</time></trkpt>
        <trkpt lat="28.8223573" lon="105.9367161"><ele>278.03</ele><time>2026-02-05T17:33:39.000Z</time></trkpt>
        <trkpt lat="28.8224522" lon="105.9367616"><ele>278.04</ele><time>2026-02-05T17:33:47.000Z</time></trkpt>
        <trkpt lat="28.8225513" lon="105.9367936"><ele>278.77</ele><time>2026-02-05T17:33:55.000Z</time></trkpt>
        <trkpt lat="28.8226339" lon="105.9368616"><ele>278.58</ele><time>2026-02-05T17:34:03.000Z</time></trkpt>
        <trkpt lat="28.8226668" lon="105.9369631"><ele>278.15</ele><time>2026-02-05T17:34:11.000Z</time></trkpt>
        <trkpt lat="28.8226626" lon="105.9370786"><ele>277.65</ele><time>2026-02-05T17:34:19.000Z</time></trkpt>
        <trkpt lat="28.8226295" lon="105.9371847"><ele>278.01</ele><time>2026-02-05T17:34:27.000Z</time></trkpt>
        <trkpt lat="28.8225643" lon="105.9372835"><ele>279.07</ele><time>2026-02-05T17:34:37.000Z</time></trkpt>
        <trkpt lat="28.8224793" lon="105.9373682"><ele>280.37</ele><time>2026-02-05T17:34:47.000Z</time></trkpt>
        <trkpt lat="28.8223935" lon="105.9374479"><ele>282.64</ele><time>2026-02-05T17:34:57.000Z</time></trkpt>
        <trkpt lat="28.8223208" lon="105.9375316"><ele>284.85</ele><time>2026-02-05T17:35:07.000Z</time></trkpt>
        <trkpt lat="28.8223489" lon="105.9376225"><ele>286.5</ele><time>2026-02-05T17:35:15.000Z</time></trkpt>
        <trkpt lat="28.8224212" lon="105.9376943"><ele>287.25</ele><time>2026-02-05T17:35:23.000Z</time></trkpt>
        <trkpt lat="28.8224962" lon="105.9377793"><ele>287.61</ele><time>2026-02-05T17:35:33.000Z</time></trkpt>
        <trkpt lat="28.822555" lon="105.9378713"><ele>288.89</ele><time>2026-02-05T17:35:43.000Z</time></trkpt>
        <trkpt lat="28.8225933" lon="105.9379727"><ele>290.83</ele><time>2026-02-05T17:35:53.000Z</time></trkpt>
        <trkpt lat="28.8226162" lon="105.9380768"><ele>292.49</ele><time>2026-02-05T17:36:01.000Z</time></trkpt>
        <trkpt lat="28.8226123" lon="105.9381913"><ele>294.19</ele><time>2026-02-05T17:36:09.000Z</time></trkpt>
        <trkpt lat="28.8226249" lon="105.9382981"><ele>297.42</ele><time>2026-02-05T17:36:17.000Z</time></trkpt>
        <trkpt lat="28.8226243" lon="105.9384157"><ele>299.35</ele><time>2026-02-05T17:36:25.000Z</time></trkpt>
        <trkpt lat="28.8226426" lon="105.9385289"><ele>301.11</ele><time>2026-02-05T17:36:33.000Z</time></trkpt>
        <trkpt lat="28.8227281" lon="105.9385619"><ele>302.79</ele><time>2026-02-05T17:36:41.000Z</time></trkpt>
        <trkpt lat="28.8228374" lon="105.9385295"><ele>302.39</ele><time>2026-02-05T17:36:49.000Z</time></trkpt>
        <trkpt lat="28.822945" lon="105.9384936"><ele>301.94</ele><time>2026-02-05T17:36:57.000Z</time></trkpt>
        <trkpt lat="28.8230542" lon="105.9384824"><ele>302.29</ele><time>2026-02-05T17:37:05.000Z</time></trkpt>
        <trkpt lat="28.8231405" lon="105.9385224"><ele>302.66</ele><time>2026-02-05T17:37:13.000Z</time></trkpt>
        <trkpt lat="28.8232067" lon="105.9386004"><ele>302.87</ele><time>2026-02-05T17:37:21.000Z</time></trkpt>
        <trkpt lat="28.8232166" lon="105.9387159"><ele>303.09</ele><time>2026-02-05T17:37:29.000Z</time></trkpt>
        <trkpt lat="28.8232172" lon="105.9388533"><ele>302.78</ele><time>2026-02-05T17:37:37.000Z</time></trkpt>
        <trkpt lat="28.8231964" lon="105.938981"><ele>303.05</ele><time>2026-02-05T17:37:45.000Z</time></trkpt>
        <trkpt lat="28.8232232" lon="105.9390936"><ele>303.89</ele><time>2026-02-05T17:37:53.000Z</time></trkpt>
        <trkpt lat="28.8232768" lon="105.9391834"><ele>304.85</ele><time>2026-02-05T17:38:01.000Z</time></trkpt>
        <trkpt lat="28.8233304" lon="105.9392716"><ele>305.45</ele><time>2026-02-05T17:38:09.000Z</time></trkpt>
        <trkpt lat="28.8233769" lon="105.9393688"><ele>304.74</ele><time>2026-02-05T17:38:17.000Z</time></trkpt>
        <trkpt lat="28.8233743" lon="105.9394776"><ele>304.18</ele><time>2026-02-05T17:38:25.000Z</time></trkpt>
        <trkpt lat="28.8233811" lon="105.9395903"><ele>304.4</ele><time>2026-02-05T17:38:33.000Z</time></trkpt>
        <trkpt lat="28.8234184" lon="105.9396996"><ele>304.04</ele><time>2026-02-05T17:38:41.000Z</time></trkpt>
        <trkpt lat="28.8234339" lon="105.9398137"><ele>303.29</ele><time>2026-02-05T17:38:49.000Z</time></trkpt>
        <trkpt lat="28.8234036" lon="105.9399197"><ele>302.52</ele><time>2026-02-05T17:38:57.000Z</time></trkpt>
        <trkpt lat="28.8233916" lon="105.9400373"><ele>303.06</ele><time>2026-02-05T17:39:07.000Z</time></trkpt>
        <trkpt lat="28.823427" lon="105.9401367"><ele>304.1</ele><time>2026-02-05T17:39:17.000Z</time></trkpt>
        <trkpt lat="28.8233601" lon="105.9401622"><ele>303.99</ele><time>2026-02-05T17:39:27.000Z</time></trkpt>
        <trkpt lat="28.8232766" lon="105.9402023"><ele>303.23</ele><time>2026-02-05T17:39:35.000Z</time></trkpt>
        <trkpt lat="28.8231748" lon="105.940192"><ele>302.77</ele><time>2026-02-05T17:39:43.000Z</time></trkpt>
        <trkpt lat="28.8230684" lon="105.9401671"><ele>302.19</ele><time>2026-02-05T17:39:51.000Z</time></trkpt>
        <trkpt lat="28.8229665" lon="105.9401592"><ele>301.09</ele><time>2026-02-05T17:39:59.000Z</time></trkpt>
        <trkpt lat="28.8228709" lon="105.9401703"><ele>300.79</ele><time>2026-02-05T17:40:07.000Z</time></trkpt>
        <trkpt lat="28.8228047" lon="105.9402483"><ele>299.41</ele><time>2026-02-05T17:40:15.000Z</time></trkpt>
        <trkpt lat="28.8227439" lon="105.9403439"><ele>298.37</ele><time>2026-02-05T17:40:23.000Z</time></trkpt>
        <trkpt lat="28.8226812" lon="105.9404563"><ele>297.78</ele><time>2026-02-05T17:40:33.000Z</time></trkpt>
        <trkpt lat="28.8225973" lon="105.9405345"><ele>297.54</ele><time>2026-02-05T17:40:43.000Z</time></trkpt>
        <trkpt lat="28.8225206" lon="105.9406064"><ele>297.76</ele><time>2026-02-05T17:40:53.000Z</time></trkpt>
        <trkpt lat="28.8224311" lon="105.9406672"><ele>297.4</ele><time>2026-02-05T17:41:01.000Z</time></trkpt>
        <trkpt lat="28.8224258" lon="105.9407761"><ele>297.67</ele><time>2026-02-05T17:41:09.000Z</time></trkpt>
        <trkpt lat="28.8223607" lon="105.9408022"><ele>297.1</ele><time>2026-02-05T17:41:17.000Z</time></trkpt>
        <trkpt lat="28.8222918" lon="105.9407309"><ele>296.53</ele><time>2026-02-05T17:41:25.000Z</time></trkpt>
        <trkpt lat="28.8222411" lon="105.940791"><ele>295.97</ele><time>2026-02-05T17:41:37.000Z</time></trkpt>
        <trkpt lat="28.822188" lon="105.9408796"><ele>293.8</ele><time>2026-02-05T17:41:43.000Z</time></trkpt>
        <trkpt lat="28.8222137" lon="105.9409891"><ele>293.15</ele><time>2026-02-05T17:41:51.000Z</time></trkpt>
        <trkpt lat="28.8222969" lon="105.9410618"><ele>291.17</ele><time>2026-02-05T17:41:59.000Z</time></trkpt>
        <trkpt lat="28.8224116" lon="105.9410829"><ele>288.38</ele><time>2026-02-05T17:42:07.000Z</time></trkpt>
        <trkpt lat="28.8225332" lon="105.9410903"><ele>285.36</ele><time>2026-02-05T17:42:15.000Z</time></trkpt>
        <trkpt lat="28.822648" lon="105.9411119"><ele>283</ele><time>2026-02-05T17:42:23.000Z</time></trkpt>
        <trkpt lat="28.822741" lon="105.9411647"><ele>281.22</ele><time>2026-02-05T17:42:31.000Z</time></trkpt>
        <trkpt lat="28.8228213" lon="105.9412263"><ele>280.55</ele><time>2026-02-05T17:42:39.000Z</time></trkpt>
        <trkpt lat="28.8229075" lon="105.9412906"><ele>279.74</ele><time>2026-02-05T17:42:47.000Z</time></trkpt>
        <trkpt lat="28.82296" lon="105.941395"><ele>278.66</ele><time>2026-02-05T17:42:55.000Z</time></trkpt>
        <trkpt lat="28.8229466" lon="105.9415175"><ele>277.2</ele><time>2026-02-05T17:43:03.000Z</time></trkpt>
        <trkpt lat="28.8229089" lon="105.94164"><ele>276.9</ele><time>2026-02-05T17:43:11.000Z</time></trkpt>
        <trkpt lat="28.8228904" lon="105.9417562"><ele>277.49</ele><time>2026-02-05T17:43:19.000Z</time></trkpt>
        <trkpt lat="28.8229081" lon="105.9418684"><ele>277.63</ele><time>2026-02-05T17:43:27.000Z</time></trkpt>
        <trkpt lat="28.8228864" lon="105.9419811"><ele>277.09</ele><time>2026-02-05T17:43:35.000Z</time></trkpt>
        <trkpt lat="28.8228259" lon="105.9420747"><ele>277.76</ele><time>2026-02-05T17:43:43.000Z</time></trkpt>
        <trkpt lat="28.8227557" lon="105.9421619"><ele>278.69</ele><time>2026-02-05T17:43:51.000Z</time></trkpt>
        <trkpt lat="28.8227138" lon="105.9422628"><ele>279.13</ele><time>2026-02-05T17:43:59.000Z</time></trkpt>
        <trkpt lat="28.8227222" lon="105.942372"><ele>279.35</ele><time>2026-02-05T17:44:07.000Z</time></trkpt>
        <trkpt lat="28.8227462" lon="105.9424879"><ele>279.49</ele><time>2026-02-05T17:44:15.000Z</time></trkpt>
        <trkpt lat="28.8227759" lon="105.9426069"><ele>279.08</ele><time>2026-02-05T17:44:23.000Z</time></trkpt>
        <trkpt lat="28.8228122" lon="105.9427213"><ele>278.84</ele><time>2026-02-05T17:44:31.000Z</time></trkpt>
        <trkpt lat="28.8228378" lon="105.9428327"><ele>279.31</ele><time>2026-02-05T17:44:39.000Z</time></trkpt>
        <trkpt lat="28.8228466" lon="105.9429474"><ele>280.07</ele><time>2026-02-05T17:44:47.000Z</time></trkpt>
        <trkpt lat="28.8229122" lon="105.9429967"><ele>282.32</ele><time>2026-02-05T17:45:01.000Z</time></trkpt>
        <trkpt lat="28.8230042" lon="105.9430119"><ele>286.46</ele><time>2026-02-05T17:45:37.000Z</time></trkpt>
        <trkpt lat="28.8230082" lon="105.9430879"><ele>291.18</ele><time>2026-02-05T17:45:55.000Z</time></trkpt>
        <trkpt lat="28.8230041" lon="105.9431882"><ele>295.9</ele><time>2026-02-05T17:46:13.000Z</time></trkpt>
        <trkpt lat="28.8230034" lon="105.9432982"><ele>300.68</ele><time>2026-02-05T17:46:27.000Z</time></trkpt>
        <trkpt lat="28.8230482" lon="105.9433961"><ele>303.89</ele><time>2026-02-05T17:46:41.000Z</time></trkpt>
        <trkpt lat="28.8230818" lon="105.943497"><ele>304.87</ele><time>2026-02-05T17:46:55.000Z</time></trkpt>
        <trkpt lat="28.8230942" lon="105.9436036"><ele>305.68</ele><time>2026-02-05T17:47:09.000Z</time></trkpt>
        <trkpt lat="28.8231422" lon="105.9436977"><ele>307.17</ele><time>2026-02-05T17:47:29.000Z</time></trkpt>
        <trkpt lat="28.8231825" lon="105.943798"><ele>312.6</ele><time>2026-02-05T17:47:55.000Z</time></trkpt>
        <trkpt lat="28.8232349" lon="105.9438873"><ele>319.5</ele><time>2026-02-05T17:48:17.000Z</time></trkpt>
        <trkpt lat="28.8233185" lon="105.9438925"><ele>325.83</ele><time>2026-02-05T17:48:45.000Z</time></trkpt>
        <trkpt lat="28.8233872" lon="105.9439575"><ele>329.75</ele><time>2026-02-05T17:49:03.000Z</time></trkpt>
        <trkpt lat="28.823476" lon="105.9439662"><ele>333.83</ele><time>2026-02-05T17:49:21.000Z</time></trkpt>
        <trkpt lat="28.8235741" lon="105.9439448"><ele>336.59</ele><time>2026-02-05T17:49:47.000Z</time></trkpt>
        <trkpt lat="28.8236632" lon="105.94397"><ele>340.72</ele><time>2026-02-05T17:50:07.000Z</time></trkpt>
        <trkpt lat="28.8237144" lon="105.9440491"><ele>344.25</ele><time>2026-02-05T17:50:31.000Z</time></trkpt>
        <trkpt lat="28.8237696" lon="105.9441362"><ele>347.73</ele><time>2026-02-05T17:50:43.000Z</time></trkpt>
        <trkpt lat="28.8238434" lon="105.944205"><ele>349.99</ele><time>2026-02-05T17:50:57.000Z</time></trkpt>
        <trkpt lat="28.8239125" lon="105.9442836"><ele>353.2</ele><time>2026-02-05T17:51:13.000Z</time></trkpt>
        <trkpt lat="28.8239748" lon="105.9443667"><ele>354.28</ele><time>2026-02-05T17:51:31.000Z</time></trkpt>
        <trkpt lat="28.8239827" lon="105.9444741"><ele>356.24</ele><time>2026-02-05T17:51:45.000Z</time></trkpt>
        <trkpt lat="28.8239621" lon="105.9445873"><ele>357.09</ele><time>2026-02-05T17:51:57.000Z</time></trkpt>
        <trkpt lat="28.8239551" lon="105.9446569"><ele>358.03</ele><time>2026-02-05T17:52:03.000Z</time></trkpt>
        <trkpt lat="28.8239531" lon="105.944759"><ele>359.09</ele><time>2026-02-05T17:52:15.000Z</time></trkpt>
        <trkpt lat="28.823943" lon="105.944872"><ele>359.23</ele><time>2026-02-05T17:52:27.000Z</time></trkpt>
        <trkpt lat="28.8238847" lon="105.9449628"><ele>359.91</ele><time>2026-02-05T17:52:41.000Z</time></trkpt>
        <trkpt lat="28.8238267" lon="105.9450539"><ele>360.19</ele><time>2026-02-05T17:52:51.000Z</time></trkpt>
        <trkpt lat="28.8238515" lon="105.9451522"><ele>360.02</ele><time>2026-02-05T17:53:05.000Z</time></trkpt>
        <trkpt lat="28.8238044" lon="105.9452216"><ele>360.09</ele><time>2026-02-05T17:53:21.000Z</time></trkpt>
        <trkpt lat="28.8237851" lon="105.9453181"><ele>360.45</ele><time>2026-02-05T17:53:37.000Z</time></trkpt>
        <trkpt lat="28.8238304" lon="105.9454048"><ele>362.27</ele><time>2026-02-05T17:54:01.000Z</time></trkpt>
        <trkpt lat="28.8238773" lon="105.9455009"><ele>363.73</ele><time>2026-02-05T17:54:15.000Z</time></trkpt>
        <trkpt lat="28.8238855" lon="105.9456082"><ele>365.03</ele><time>2026-02-05T17:54:33.000Z</time></trkpt>
        <trkpt lat="28.8238726" lon="105.9457162"><ele>368.16</ele><time>2026-02-05T17:54:49.000Z</time></trkpt>
        <trkpt lat="28.8238981" lon="105.9458189"><ele>371.59</ele><time>2026-02-05T17:55:05.000Z</time></trkpt>
        <trkpt lat="28.8239416" lon="105.9459225"><ele>374.39</ele><time>2026-02-05T17:55:21.000Z</time></trkpt>
        <trkpt lat="28.8240047" lon="105.9460089"><ele>377.56</ele><time>2026-02-05T17:55:37.000Z</time></trkpt>
        <trkpt lat="28.8240952" lon="105.946043"><ele>380.59</ele><time>2026-02-05T17:55:51.000Z</time></trkpt>
        <trkpt lat="28.8241538" lon="105.9461164"><ele>383.84</ele><time>2026-02-05T17:56:09.000Z</time></trkpt>
        <trkpt lat="28.8241384" lon="105.9462066"><ele>386.39</ele><time>2026-02-05T17:56:21.000Z</time></trkpt>
        <trkpt lat="28.8240794" lon="105.9463007"><ele>387.96</ele><time>2026-02-05T17:56:33.000Z</time></trkpt>
        <trkpt lat="28.8240611" lon="105.9464057"><ele>389.06</ele><time>2026-02-05T17:56:45.000Z</time></trkpt>
        <trkpt lat="28.8240509" lon="105.9465179"><ele>390.41</ele><time>2026-02-05T17:56:55.000Z</time></trkpt>
        <trkpt lat="28.8240825" lon="105.9466191"><ele>390.2</ele><time>2026-02-05T17:57:05.000Z</time></trkpt>
        <trkpt lat="28.8241275" lon="105.946716"><ele>390.14</ele><time>2026-02-05T17:57:15.000Z</time></trkpt>
        <trkpt lat="28.8241746" lon="105.946815"><ele>389.73</ele><time>2026-02-05T17:57:25.000Z</time></trkpt>
        <trkpt lat="28.8242192" lon="105.9469241"><ele>388.88</ele><time>2026-02-05T17:57:37.000Z</time></trkpt>
        <trkpt lat="28.8242587" lon="105.94697"><ele>388.54</ele><time>2026-02-05T17:57:45.000Z</time></trkpt>
        <trkpt lat="28.8242696" lon="105.9470771"><ele>387.84</ele><time>2026-02-05T17:58:03.000Z</time></trkpt>
        <trkpt lat="28.8242908" lon="105.9471946"><ele>387.76</ele><time>2026-02-05T17:58:13.000Z</time></trkpt>
        <trkpt lat="28.8243135" lon="105.9473045"><ele>386.33</ele><time>2026-02-05T17:58:21.000Z</time></trkpt>
        <trkpt lat="28.8243553" lon="105.9474135"><ele>385.94</ele><time>2026-02-05T17:58:31.000Z</time></trkpt>
        <trkpt lat="28.8244005" lon="105.9475096"><ele>385.22</ele><time>2026-02-05T17:58:39.000Z</time></trkpt>
        <trkpt lat="28.8244257" lon="105.947611"><ele>384.52</ele><time>2026-02-05T17:58:47.000Z</time></trkpt>
        <trkpt lat="28.8244163" lon="105.9477202"><ele>383.8</ele><time>2026-02-05T17:58:57.000Z</time></trkpt>
        <trkpt lat="28.8243881" lon="105.9478377"><ele>384.3</ele><time>2026-02-05T17:59:09.000Z</time></trkpt>
        <trkpt lat="28.8243635" lon="105.9479514"><ele>384.75</ele><time>2026-02-05T17:59:19.000Z</time></trkpt>
        <trkpt lat="28.8243353" lon="105.9480609"><ele>385.92</ele><time>2026-02-05T17:59:27.000Z</time></trkpt>
        <trkpt lat="28.8243018" lon="105.9481694"><ele>387.35</ele><time>2026-02-05T17:59:35.000Z</time></trkpt>
        <trkpt lat="28.8242917" lon="105.9482759"><ele>387.94</ele><time>2026-02-05T17:59:43.000Z</time></trkpt>
        <trkpt lat="28.8243161" lon="105.9483632"><ele>388.28</ele><time>2026-02-05T17:59:51.000Z</time></trkpt>
        <trkpt lat="28.8243751" lon="105.9484476"><ele>389.27</ele><time>2026-02-05T18:00:01.000Z</time></trkpt>
        <trkpt lat="28.8244221" lon="105.9485482"><ele>389</ele><time>2026-02-05T18:00:09.000Z</time></trkpt>
        <trkpt lat="28.8244497" lon="105.9486557"><ele>388.5</ele><time>2026-02-05T18:00:17.000Z</time></trkpt>
        <trkpt lat="28.8244438" lon="105.9487766"><ele>388.18</ele><time>2026-02-05T18:00:27.000Z</time></trkpt>
        <trkpt lat="28.8243782" lon="105.9488476"><ele>388.01</ele><time>2026-02-05T18:00:35.000Z</time></trkpt>
        <trkpt lat="28.8242723" lon="105.9488422"><ele>388.1</ele><time>2026-02-05T18:00:45.000Z</time></trkpt>
        <trkpt lat="28.8241668" lon="105.9487789"><ele>387.78</ele><time>2026-02-05T18:00:55.000Z</time></trkpt>
        <trkpt lat="28.8240678" lon="105.9486972"><ele>387.74</ele><time>2026-02-05T18:01:05.000Z</time></trkpt>
        <trkpt lat="28.8239716" lon="105.9486575"><ele>388.22</ele><time>2026-02-05T18:01:13.000Z</time></trkpt>
        <trkpt lat="28.8238651" lon="105.9486371"><ele>389.17</ele><time>2026-02-05T18:01:23.000Z</time></trkpt>
        <trkpt lat="28.8237835" lon="105.9485859"><ele>389.79</ele><time>2026-02-05T18:01:31.000Z</time></trkpt>
        <trkpt lat="28.8237157" lon="105.9484952"><ele>389.73</ele><time>2026-02-05T18:01:41.000Z</time></trkpt>
        <trkpt lat="28.8236635" lon="105.9483993"><ele>389.99</ele><time>2026-02-05T18:01:49.000Z</time></trkpt>
        <trkpt lat="28.8236098" lon="105.9483041"><ele>390.21</ele><time>2026-02-05T18:01:57.000Z</time></trkpt>
        <trkpt lat="28.8235661" lon="105.948206"><ele>390.66</ele><time>2026-02-05T18:02:05.000Z</time></trkpt>
        <trkpt lat="28.8235116" lon="105.9481209"><ele>391.47</ele><time>2026-02-05T18:02:13.000Z</time></trkpt>
        <trkpt lat="28.8234331" lon="105.9480734"><ele>392.62</ele><time>2026-02-05T18:02:21.000Z</time></trkpt>
        <trkpt lat="28.8233377" lon="105.9480725"><ele>393.23</ele><time>2026-02-05T18:02:29.000Z</time></trkpt>
        <trkpt lat="28.8232349" lon="105.9480919"><ele>393.3</ele><time>2026-02-05T18:02:37.000Z</time></trkpt>
        <trkpt lat="28.8231297" lon="105.9481058"><ele>393.03</ele><time>2026-02-05T18:02:45.000Z</time></trkpt>
        <trkpt lat="28.8230299" lon="105.9481158"><ele>392.96</ele><time>2026-02-05T18:02:53.000Z</time></trkpt>
        <trkpt lat="28.8229202" lon="105.9481295"><ele>393.22</ele><time>2026-02-05T18:03:03.000Z</time></trkpt>
        <trkpt lat="28.8228233" lon="105.9481703"><ele>393.7</ele><time>2026-02-05T18:03:13.000Z</time></trkpt>
        <trkpt lat="28.8227712" lon="105.9482613"><ele>394.16</ele><time>2026-02-05T18:03:23.000Z</time></trkpt>
        <trkpt lat="28.8227577" lon="105.9483795"><ele>395.78</ele><time>2026-02-05T18:03:35.000Z</time></trkpt>
        <trkpt lat="28.8228276" lon="105.9484594"><ele>397.83</ele><time>2026-02-05T18:03:47.000Z</time></trkpt>
        <trkpt lat="28.8229311" lon="105.9484807"><ele>400.14</ele><time>2026-02-05T18:03:57.000Z</time></trkpt>
        <trkpt lat="28.8230438" lon="105.9484832"><ele>402.23</ele><time>2026-02-05T18:04:07.000Z</time></trkpt>
        <trkpt lat="28.8231562" lon="105.9484845"><ele>403.88</ele><time>2026-02-05T18:04:17.000Z</time></trkpt>
        <trkpt lat="28.8232427" lon="105.9485415"><ele>405.03</ele><time>2026-02-05T18:04:27.000Z</time></trkpt>
        <trkpt lat="28.8232859" lon="105.9486468"><ele>405.45</ele><time>2026-02-05T18:04:37.000Z</time></trkpt>
        <trkpt lat="28.8232758" lon="105.9487663"><ele>406</ele><time>2026-02-05T18:04:47.000Z</time></trkpt>
        <trkpt lat="28.8233021" lon="105.9488823"><ele>406.3</ele><time>2026-02-05T18:04:57.000Z</time></trkpt>
        <trkpt lat="28.8233654" lon="105.9489734"><ele>407.57</ele><time>2026-02-05T18:05:09.000Z</time></trkpt>
        <trkpt lat="28.823436" lon="105.9490552"><ele>409.8</ele><time>2026-02-05T18:05:23.000Z</time></trkpt>
        <trkpt lat="28.8235149" lon="105.949113"><ele>411.95</ele><time>2026-02-05T18:05:35.000Z</time></trkpt>
        <trkpt lat="28.8236148" lon="105.9491354"><ele>413.44</ele><time>2026-02-05T18:05:47.000Z</time></trkpt>
        <trkpt lat="28.8237162" lon="105.949172"><ele>415.35</ele><time>2026-02-05T18:05:59.000Z</time></trkpt>
        <trkpt lat="28.8237913" lon="105.9492441"><ele>416.27</ele><time>2026-02-05T18:06:11.000Z</time></trkpt>
        <trkpt lat="28.8238514" lon="105.94933"><ele>417.11</ele><time>2026-02-05T18:06:23.000Z</time></trkpt>
        <trkpt lat="28.8239086" lon="105.9494267"><ele>418.52</ele><time>2026-02-05T18:06:35.000Z</time></trkpt>
        <trkpt lat="28.8238978" lon="105.9495293"><ele>420.52</ele><time>2026-02-05T18:06:47.000Z</time></trkpt>
        <trkpt lat="28.8238547" lon="105.9496442"><ele>422.47</ele><time>2026-02-05T18:06:57.000Z</time></trkpt>
        <trkpt lat="28.8238741" lon="105.9497396"><ele>423.72</ele><time>2026-02-05T18:07:11.000Z</time></trkpt>
        <trkpt lat="28.8239617" lon="105.9497805"><ele>427.73</ele><time>2026-02-05T18:07:23.000Z</time></trkpt>
        <trkpt lat="28.8240663" lon="105.9498117"><ele>429.37</ele><time>2026-02-05T18:07:35.000Z</time></trkpt>
        <trkpt lat="28.8241708" lon="105.9498029"><ele>429.68</ele><time>2026-02-05T18:07:45.000Z</time></trkpt>
        <trkpt lat="28.8242308" lon="105.949873"><ele>428.78</ele><time>2026-02-05T18:07:59.000Z</time></trkpt>
        <trkpt lat="28.8242752" lon="105.9499755"><ele>430.33</ele><time>2026-02-05T18:08:13.000Z</time></trkpt>
        <trkpt lat="28.8242792" lon="105.9500857"><ele>431.44</ele><time>2026-02-05T18:08:23.000Z</time></trkpt>
        <trkpt lat="28.8242652" lon="105.9501881"><ele>431.48</ele><time>2026-02-05T18:08:33.000Z</time></trkpt>
        <trkpt lat="28.824296" lon="105.9502881"><ele>431.4</ele><time>2026-02-05T18:08:57.000Z</time></trkpt>
        <trkpt lat="28.8243423" lon="105.9503806"><ele>429.93</ele><time>2026-02-05T18:09:05.000Z</time></trkpt>
        <trkpt lat="28.8243795" lon="105.9504799"><ele>429.31</ele><time>2026-02-05T18:09:13.000Z</time></trkpt>
        <trkpt lat="28.8243973" lon="105.9505843"><ele>428.72</ele><time>2026-02-05T18:09:21.000Z</time></trkpt>
        <trkpt lat="28.8244192" lon="105.9506494"><ele>429.14</ele><time>2026-02-05T18:09:27.000Z</time></trkpt>
        <trkpt lat="28.824435" lon="105.9507429"><ele>429.54</ele><time>2026-02-05T18:09:39.000Z</time></trkpt>
        <trkpt lat="28.8244033" lon="105.9508469"><ele>431.2</ele><time>2026-02-05T18:09:51.000Z</time></trkpt>
        <trkpt lat="28.8243708" lon="105.9509531"><ele>434.26</ele><time>2026-02-05T18:10:03.000Z</time></trkpt>
        <trkpt lat="28.8243783" lon="105.9510573"><ele>437.93</ele><time>2026-02-05T18:10:15.000Z</time></trkpt>
        <trkpt lat="28.8243778" lon="105.9511669"><ele>439.31</ele><time>2026-02-05T18:10:31.000Z</time></trkpt>
        <trkpt lat="28.8244214" lon="105.9512737"><ele>441.21</ele><time>2026-02-05T18:10:43.000Z</time></trkpt>
        <trkpt lat="28.8243754" lon="105.9513358"><ele>443.82</ele><time>2026-02-05T18:11:03.000Z</time></trkpt>
        <trkpt lat="28.8242829" lon="105.9513622"><ele>444.87</ele><time>2026-02-05T18:11:17.000Z</time></trkpt>
        <trkpt lat="28.8241836" lon="105.9513356"><ele>448.3</ele><time>2026-02-05T18:11:29.000Z</time></trkpt>
        <trkpt lat="28.8240768" lon="105.9512986"><ele>449.29</ele><time>2026-02-05T18:11:41.000Z</time></trkpt>
        <trkpt lat="28.8239852" lon="105.9512501"><ele>449.68</ele><time>2026-02-05T18:11:51.000Z</time></trkpt>
        <trkpt lat="28.8238951" lon="105.9511989"><ele>449.87</ele><time>2026-02-05T18:12:01.000Z</time></trkpt>
        <trkpt lat="28.8238013" lon="105.9511458"><ele>449.88</ele><time>2026-02-05T18:12:11.000Z</time></trkpt>
        <trkpt lat="28.8237129" lon="105.9511052"><ele>450.24</ele><time>2026-02-05T18:12:19.000Z</time></trkpt>
        <trkpt lat="28.8236263" lon="105.9510739"><ele>450.99</ele><time>2026-02-05T18:12:27.000Z</time></trkpt>
        <trkpt lat="28.8235378" lon="105.9510517"><ele>451.33</ele><time>2026-02-05T18:12:35.000Z</time></trkpt>
        <trkpt lat="28.8234375" lon="105.9510202"><ele>451.51</ele><time>2026-02-05T18:12:43.000Z</time></trkpt>
        <trkpt lat="28.8233363" lon="105.9510051"><ele>452.84</ele><time>2026-02-05T18:12:51.000Z</time></trkpt>
        <trkpt lat="28.823239" lon="105.9509743"><ele>454.25</ele><time>2026-02-05T18:13:01.000Z</time></trkpt>
        <trkpt lat="28.8231412" lon="105.9509468"><ele>455.14</ele><time>2026-02-05T18:13:11.000Z</time></trkpt>
        <trkpt lat="28.8230404" lon="105.9509234"><ele>455.93</ele><time>2026-02-05T18:13:21.000Z</time></trkpt>
        <trkpt lat="28.822934" lon="105.9509091"><ele>456.39</ele><time>2026-02-05T18:13:31.000Z</time></trkpt>
        <trkpt lat="28.8228287" lon="105.9509413"><ele>456.31</ele><time>2026-02-05T18:13:41.000Z</time></trkpt>
        <trkpt lat="28.8227435" lon="105.9509978"><ele>455.88</ele><time>2026-02-05T18:13:49.000Z</time></trkpt>
        <trkpt lat="28.822646" lon="105.9510547"><ele>455.52</ele><time>2026-02-05T18:13:59.000Z</time></trkpt>
        <trkpt lat="28.8225617" lon="105.9511129"><ele>454.95</ele><time>2026-02-05T18:14:07.000Z</time></trkpt>
        <trkpt lat="28.822476" lon="105.9511643"><ele>454.26</ele><time>2026-02-05T18:14:15.000Z</time></trkpt>
        <trkpt lat="28.8223867" lon="105.9512091"><ele>453.69</ele><time>2026-02-05T18:14:23.000Z</time></trkpt>
        <trkpt lat="28.8222966" lon="105.9512429"><ele>453.25</ele><time>2026-02-05T18:14:31.000Z</time></trkpt>
        <trkpt lat="28.822281" lon="105.9513365"><ele>453.27</ele><time>2026-02-05T18:14:41.000Z</time></trkpt>
        <trkpt lat="28.822295" lon="105.9513679"><ele>451.3</ele><time>2026-02-05T18:14:43.000Z</time></trkpt>
        <trkpt lat="28.8222467" lon="105.9513127"><ele>449.44</ele><time>2026-02-05T18:15:29.000Z</time></trkpt>
        <trkpt lat="28.8221655" lon="105.9513033"><ele>449</ele><time>2026-02-05T18:15:37.000Z</time></trkpt>
        <trkpt lat="28.822071" lon="105.9513343"><ele>449.18</ele><time>2026-02-05T18:15:47.000Z</time></trkpt>
        <trkpt lat="28.8219764" lon="105.9513718"><ele>449.82</ele><time>2026-02-05T18:15:55.000Z</time></trkpt>
        <trkpt lat="28.8218762" lon="105.9514078"><ele>450.54</ele><time>2026-02-05T18:16:03.000Z</time></trkpt>
        <trkpt lat="28.8217766" lon="105.9514165"><ele>451.05</ele><time>2026-02-05T18:16:11.000Z</time></trkpt>
        <trkpt lat="28.8216819" lon="105.9514118"><ele>451.33</ele><time>2026-02-05T18:16:19.000Z</time></trkpt>
        <trkpt lat="28.8215883" lon="105.9514025"><ele>451.57</ele><time>2026-02-05T18:16:27.000Z</time></trkpt>
        <trkpt lat="28.8214944" lon="105.9514073"><ele>451.46</ele><time>2026-02-05T18:16:35.000Z</time></trkpt>
        <trkpt lat="28.8213883" lon="105.9514165"><ele>450.88</ele><time>2026-02-05T18:16:45.000Z</time></trkpt>
        <trkpt lat="28.8212788" lon="105.9514361"><ele>450.54</ele><time>2026-02-05T18:16:55.000Z</time></trkpt>
        <trkpt lat="28.8211963" lon="105.9514922"><ele>450.85</ele><time>2026-02-05T18:17:05.000Z</time></trkpt>
        <trkpt lat="28.8211639" lon="105.9515969"><ele>451.51</ele><time>2026-02-05T18:17:15.000Z</time></trkpt>
        <trkpt lat="28.8211502" lon="105.9517119"><ele>454.01</ele><time>2026-02-05T18:17:29.000Z</time></trkpt>
        <trkpt lat="28.821103" lon="105.9518115"><ele>457.11</ele><time>2026-02-05T18:17:47.000Z</time></trkpt>
        <trkpt lat="28.8210218" lon="105.9518301"><ele>460.56</ele><time>2026-02-05T18:18:03.000Z</time></trkpt>
        <trkpt lat="28.8209169" lon="105.9518326"><ele>462.63</ele><time>2026-02-05T18:18:17.000Z</time></trkpt>
        <trkpt lat="28.8208216" lon="105.9518767"><ele>466.02</ele><time>2026-02-05T18:18:31.000Z</time></trkpt>
        <trkpt lat="28.8207429" lon="105.9519486"><ele>467.66</ele><time>2026-02-05T18:18:41.000Z</time></trkpt>
        <trkpt lat="28.8206785" lon="105.9520398"><ele>469.59</ele><time>2026-02-05T18:18:53.000Z</time></trkpt>
        <trkpt lat="28.8206731" lon="105.9521433"><ele>472.08</ele><time>2026-02-05T18:19:03.000Z</time></trkpt>
        <trkpt lat="28.8206962" lon="105.952254"><ele>473.19</ele><time>2026-02-05T18:19:25.000Z</time></trkpt>
        <trkpt lat="28.8206344" lon="105.952285"><ele>471.83</ele><time>2026-02-05T18:19:43.000Z</time></trkpt>
        <trkpt lat="28.8205428" lon="105.9522959"><ele>476.43</ele><time>2026-02-05T18:20:01.000Z</time></trkpt>
        <trkpt lat="28.8204407" lon="105.9522817"><ele>483.75</ele><time>2026-02-05T18:20:35.000Z</time></trkpt>
        <trkpt lat="28.8203418" lon="105.9522947"><ele>490.09</ele><time>2026-02-05T18:21:17.000Z</time></trkpt>
        <trkpt lat="28.8202546" lon="105.9523496"><ele>491.53</ele><time>2026-02-05T18:21:33.000Z</time></trkpt>
        <trkpt lat="28.8202277" lon="105.9524542"><ele>492.45</ele><time>2026-02-05T18:21:47.000Z</time></trkpt>
        <trkpt lat="28.8202247" lon="105.9525665"><ele>494.69</ele><time>2026-02-05T18:22:01.000Z</time></trkpt>
        <trkpt lat="28.8201756" lon="105.9526499"><ele>495.87</ele><time>2026-02-05T18:22:19.000Z</time></trkpt>
        <trkpt lat="28.8201179" lon="105.9527297"><ele>498.25</ele><time>2026-02-05T18:22:35.000Z</time></trkpt>
        <trkpt lat="28.8200306" lon="105.9527594"><ele>499.41</ele><time>2026-02-05T18:22:57.000Z</time></trkpt>
        <trkpt lat="28.8199336" lon="105.952775"><ele>502.49</ele><time>2026-02-05T18:23:13.000Z</time></trkpt>
        <trkpt lat="28.8198342" lon="105.9527709"><ele>506.48</ele><time>2026-02-05T18:23:29.000Z</time></trkpt>
        <trkpt lat="28.8197311" lon="105.9527732"><ele>510.75</ele><time>2026-02-05T18:23:57.000Z</time></trkpt>
        <trkpt lat="28.8196394" lon="105.9528057"><ele>515.03</ele><time>2026-02-05T18:24:47.000Z</time></trkpt>
        <trkpt lat="28.8195392" lon="105.9528312"><ele>517.05</ele><time>2026-02-05T18:25:01.000Z</time></trkpt>
        <trkpt lat="28.8195183" lon="105.952843"><ele>518.88</ele><time>2026-02-05T18:25:03.000Z</time></trkpt>
        <trkpt lat="28.8194425" lon="105.9528332"><ele>519.86</ele><time>2026-02-05T18:26:09.000Z</time></trkpt>
        <trkpt lat="28.8193502" lon="105.9528444"><ele>520.78</ele><time>2026-02-05T18:26:41.000Z</time></trkpt>
        <trkpt lat="28.8193502" lon="105.9528444"><ele>520.78</ele><time>2026-02-05T18:27:38.000Z</time></trkpt>
        <trkpt lat="28.8193629" lon="105.952879"><ele>522.18</ele><time>2026-02-05T18:28:26.000Z</time></trkpt>
        <trkpt lat="28.8193629" lon="105.952879"><ele>522.18</ele><time>2026-02-05T18:28:27.000Z</time></trkpt>
        <trkpt lat="28.8192449" lon="105.9528579"><ele>521.17</ele><time>2026-02-05T18:28:41.000Z</time></trkpt>
        <trkpt lat="28.8191422" lon="105.952835"><ele>523.07</ele><time>2026-02-05T18:28:57.000Z</time></trkpt>
        <trkpt lat="28.819058" lon="105.9528756"><ele>526.17</ele><time>2026-02-05T18:29:17.000Z</time></trkpt>
        <trkpt lat="28.8189874" lon="105.9529472"><ele>531.67</ele><time>2026-02-05T18:29:49.000Z</time></trkpt>
        <trkpt lat="28.8189023" lon="105.9530073"><ele>537.09</ele><time>2026-02-05T18:30:09.000Z</time></trkpt>
        <trkpt lat="28.8188219" lon="105.9530736"><ele>541.03</ele><time>2026-02-05T18:30:25.000Z</time></trkpt>
        <trkpt lat="28.8187732" lon="105.9531638"><ele>543.86</ele><time>2026-02-05T18:30:45.000Z</time></trkpt>
        <trkpt lat="28.8188318" lon="105.9532241"><ele>547.61</ele><time>2026-02-05T18:31:15.000Z</time></trkpt>
        <trkpt lat="28.8188166" lon="105.9532962"><ele>548.75</ele><time>2026-02-05T18:32:07.000Z</time></trkpt>
        <trkpt lat="28.8187181" lon="105.9533022"><ele>555.04</ele><time>2026-02-05T18:32:37.000Z</time></trkpt>
        <trkpt lat="28.8186304" lon="105.9532441"><ele>561.5</ele><time>2026-02-05T18:33:11.000Z</time></trkpt>
        <trkpt lat="28.8185155" lon="105.9532262"><ele>566.09</ele><time>2026-02-05T18:33:49.000Z</time></trkpt>
        <trkpt lat="28.8184085" lon="105.9532183"><ele>568.31</ele><time>2026-02-05T18:34:05.000Z</time></trkpt>
        <trkpt lat="28.8183706" lon="105.9532294"><ele>574.67</ele><time>2026-02-05T18:34:07.000Z</time></trkpt>
        <trkpt lat="28.8183435" lon="105.95331"><ele>578.57</ele><time>2026-02-05T18:34:35.000Z</time></trkpt>
        <trkpt lat="28.8183009" lon="105.953419"><ele>581.55</ele><time>2026-02-05T18:34:49.000Z</time></trkpt>
        <trkpt lat="28.8182745" lon="105.953544"><ele>583.09</ele><time>2026-02-05T18:34:57.000Z</time></trkpt>
        <trkpt lat="28.8182664" lon="105.9536847"><ele>583.02</ele><time>2026-02-05T18:35:05.000Z</time></trkpt>
        <trkpt lat="28.8182447" lon="105.9538019"><ele>583.3</ele><time>2026-02-05T18:35:11.000Z</time></trkpt>
        <trkpt lat="28.8181683" lon="105.9538674"><ele>585.14</ele><time>2026-02-05T18:35:19.000Z</time></trkpt>
        <trkpt lat="28.8180691" lon="105.9538648"><ele>589.94</ele><time>2026-02-05T18:35:33.000Z</time></trkpt>
        <trkpt lat="28.8179686" lon="105.9538764"><ele>594.58</ele><time>2026-02-05T18:35:51.000Z</time></trkpt>
        <trkpt lat="28.8178828" lon="105.9539157"><ele>598.3</ele><time>2026-02-05T18:36:07.000Z</time></trkpt>
        <trkpt lat="28.8177912" lon="105.9539562"><ele>599.37</ele><time>2026-02-05T18:36:19.000Z</time></trkpt>
        <trkpt lat="28.8176935" lon="105.953965"><ele>601.1</ele><time>2026-02-05T18:36:31.000Z</time></trkpt>
        <trkpt lat="28.8176284" lon="105.9539003"><ele>601.73</ele><time>2026-02-05T18:36:41.000Z</time></trkpt>
        <trkpt lat="28.8175496" lon="105.9538462"><ele>601.44</ele><time>2026-02-05T18:36:53.000Z</time></trkpt>
        <trkpt lat="28.8175531" lon="105.9539039"><ele>602.06</ele><time>2026-02-05T18:37:09.000Z</time></trkpt>
        <trkpt lat="28.8175868" lon="105.9540121"><ele>603.28</ele><time>2026-02-05T18:37:37.000Z</time></trkpt>
        <trkpt lat="28.8175869" lon="105.9541371"><ele>604.38</ele><time>2026-02-05T18:37:47.000Z</time></trkpt>
        <trkpt lat="28.8175258" lon="105.9542127"><ele>607.54</ele><time>2026-02-05T18:38:03.000Z</time></trkpt>
        <trkpt lat="28.8174557" lon="105.9542923"><ele>609.86</ele><time>2026-02-05T18:38:15.000Z</time></trkpt>
        <trkpt lat="28.8173832" lon="105.9543819"><ele>610.36</ele><time>2026-02-05T18:38:29.000Z</time></trkpt>
        <trkpt lat="28.8173448" lon="105.9544831"><ele>609.84</ele><time>2026-02-05T18:38:39.000Z</time></trkpt>
        <trkpt lat="28.8173056" lon="105.9545955"><ele>608.97</ele><time>2026-02-05T18:38:51.000Z</time></trkpt>
        <trkpt lat="28.8172406" lon="105.9546807"><ele>608.33</ele><time>2026-02-05T18:39:01.000Z</time></trkpt>
        <trkpt lat="28.8171583" lon="105.954752"><ele>607.33</ele><time>2026-02-05T18:39:11.000Z</time></trkpt>
        <trkpt lat="28.8170689" lon="105.9548021"><ele>606.07</ele><time>2026-02-05T18:39:21.000Z</time></trkpt>
        <trkpt lat="28.8169962" lon="105.9548922"><ele>605.15</ele><time>2026-02-05T18:39:31.000Z</time></trkpt>
        <trkpt lat="28.8169326" lon="105.9549764"><ele>603.63</ele><time>2026-02-05T18:39:39.000Z</time></trkpt>
        <trkpt lat="28.8168429" lon="105.9549637"><ele>602.46</ele><time>2026-02-05T18:39:49.000Z</time></trkpt>
        <trkpt lat="28.8167645" lon="105.954894"><ele>601.12</ele><time>2026-02-05T18:39:59.000Z</time></trkpt>
        <trkpt lat="28.8166737" lon="105.9548752"><ele>600.58</ele><time>2026-02-05T18:40:09.000Z</time></trkpt>
        <trkpt lat="28.8165796" lon="105.9548919"><ele>600.67</ele><time>2026-02-05T18:40:19.000Z</time></trkpt>
        <trkpt lat="28.8164876" lon="105.9549215"><ele>600.53</ele><time>2026-02-05T18:40:27.000Z</time></trkpt>
        <trkpt lat="28.8163971" lon="105.9549841"><ele>601.33</ele><time>2026-02-05T18:40:37.000Z</time></trkpt>
        <trkpt lat="28.8163464" lon="105.9550805"><ele>604.12</ele><time>2026-02-05T18:40:47.000Z</time></trkpt>
        <trkpt lat="28.8162911" lon="105.9551669"><ele>606.82</ele><time>2026-02-05T18:40:59.000Z</time></trkpt>
        <trkpt lat="28.8162452" lon="105.9552617"><ele>608.71</ele><time>2026-02-05T18:41:13.000Z</time></trkpt>
        <trkpt lat="28.8162035" lon="105.955359"><ele>610.17</ele><time>2026-02-05T18:41:27.000Z</time></trkpt>
        <trkpt lat="28.8161516" lon="105.9554518"><ele>610.23</ele><time>2026-02-05T18:41:43.000Z</time></trkpt>
        <trkpt lat="28.816068" lon="105.9554598"><ele>610.94</ele><time>2026-02-05T18:41:53.000Z</time></trkpt>
        <trkpt lat="28.8160107" lon="105.9553652"><ele>611.21</ele><time>2026-02-05T18:42:03.000Z</time></trkpt>
        <trkpt lat="28.815925" lon="105.9552968"><ele>611.7</ele><time>2026-02-05T18:42:13.000Z</time></trkpt>
        <trkpt lat="28.8158348" lon="105.9553082"><ele>612.21</ele><time>2026-02-05T18:42:21.000Z</time></trkpt>
        <trkpt lat="28.8157567" lon="105.9553925"><ele>612.96</ele><time>2026-02-05T18:42:29.000Z</time></trkpt>
        <trkpt lat="28.815665" lon="105.9554633"><ele>614.18</ele><time>2026-02-05T18:42:37.000Z</time></trkpt>
        <trkpt lat="28.8155958" lon="105.9555566"><ele>616.01</ele><time>2026-02-05T18:42:47.000Z</time></trkpt>
        <trkpt lat="28.8155269" lon="105.9556439"><ele>616.25</ele><time>2026-02-05T18:42:59.000Z</time></trkpt>
        <trkpt lat="28.8154976" lon="105.9557461"><ele>617.74</ele><time>2026-02-05T18:43:09.000Z</time></trkpt>
        <trkpt lat="28.8155362" lon="105.9558487"><ele>618.53</ele><time>2026-02-05T18:43:23.000Z</time></trkpt>
        <trkpt lat="28.8156216" lon="105.9559051"><ele>618.93</ele><time>2026-02-05T18:43:43.000Z</time></trkpt>
        <trkpt lat="28.8156632" lon="105.9559926"><ele>618.95</ele><time>2026-02-05T18:44:05.000Z</time></trkpt>
        <trkpt lat="28.815729" lon="105.9560641"><ele>619.65</ele><time>2026-02-05T18:44:21.000Z</time></trkpt>
        <trkpt lat="28.8157094" lon="105.9561488"><ele>623.37</ele><time>2026-02-05T18:44:41.000Z</time></trkpt>
        <trkpt lat="28.8156504" lon="105.9562318"><ele>628.07</ele><time>2026-02-05T18:45:03.000Z</time></trkpt>
        <trkpt lat="28.8156779" lon="105.9563151"><ele>630.85</ele><time>2026-02-05T18:45:15.000Z</time></trkpt>
        <trkpt lat="28.8156452" lon="105.9564112"><ele>632.95</ele><time>2026-02-05T18:45:37.000Z</time></trkpt>
        <trkpt lat="28.8155943" lon="105.9565122"><ele>637</ele><time>2026-02-05T18:45:49.000Z</time></trkpt>
        <trkpt lat="28.8155446" lon="105.9566193"><ele>640.71</ele><time>2026-02-05T18:46:03.000Z</time></trkpt>
        <trkpt lat="28.8155231" lon="105.9567333"><ele>644.2</ele><time>2026-02-05T18:46:15.000Z</time></trkpt>
        <trkpt lat="28.8154546" lon="105.9568162"><ele>645.55</ele><time>2026-02-05T18:46:29.000Z</time></trkpt>
        <trkpt lat="28.8153546" lon="105.9568288"><ele>646.32</ele><time>2026-02-05T18:46:39.000Z</time></trkpt>
        <trkpt lat="28.8152438" lon="105.9568359"><ele>647.08</ele><time>2026-02-05T18:46:49.000Z</time></trkpt>
        <trkpt lat="28.8151367" lon="105.9568348"><ele>647.67</ele><time>2026-02-05T18:46:59.000Z</time></trkpt>
        <trkpt lat="28.8150391" lon="105.9568178"><ele>648.12</ele><time>2026-02-05T18:47:09.000Z</time></trkpt>
        <trkpt lat="28.8149419" lon="105.9567981"><ele>648.62</ele><time>2026-02-05T18:47:17.000Z</time></trkpt>
        <trkpt lat="28.8148732" lon="105.9568202"><ele>648.8</ele><time>2026-02-05T18:47:25.000Z</time></trkpt>
        <trkpt lat="28.8148779" lon="105.9569138"><ele>649.82</ele><time>2026-02-05T18:47:49.000Z</time></trkpt>
        <trkpt lat="28.8148382" lon="105.9570102"><ele>641.98</ele><time>2026-02-05T18:48:05.000Z</time></trkpt>
        <trkpt lat="28.8147519" lon="105.9570497"><ele>636</ele><time>2026-02-05T18:48:15.000Z</time></trkpt>
        <trkpt lat="28.8146499" lon="105.9570747"><ele>632.64</ele><time>2026-02-05T18:48:27.000Z</time></trkpt>
        <trkpt lat="28.8145508" lon="105.9570808"><ele>629.85</ele><time>2026-02-05T18:48:33.000Z</time></trkpt>
        <trkpt lat="28.814468" lon="105.9571286"><ele>629.45</ele><time>2026-02-05T18:48:43.000Z</time></trkpt>
        <trkpt lat="28.8143756" lon="105.9571897"><ele>628.22</ele><time>2026-02-05T18:48:53.000Z</time></trkpt>
        <trkpt lat="28.8142982" lon="105.9572781"><ele>626.7</ele><time>2026-02-05T18:49:03.000Z</time></trkpt>
        <trkpt lat="28.8142249" lon="105.9573514"><ele>624.89</ele><time>2026-02-05T18:49:11.000Z</time></trkpt>
        <trkpt lat="28.8140989" lon="105.9573841"><ele>623.31</ele><time>2026-02-05T18:49:17.000Z</time></trkpt>
        <trkpt lat="28.8139866" lon="105.9573771"><ele>625.95</ele><time>2026-02-05T18:49:21.000Z</time></trkpt>
        <trkpt lat="28.8138687" lon="105.9573633"><ele>629.61</ele><time>2026-02-05T18:49:29.000Z</time></trkpt>
        <trkpt lat="28.813763" lon="105.9573373"><ele>632.96</ele><time>2026-02-05T18:49:37.000Z</time></trkpt>
        <trkpt lat="28.8136675" lon="105.9573319"><ele>634.87</ele><time>2026-02-05T18:49:45.000Z</time></trkpt>
        <trkpt lat="28.8135671" lon="105.957366"><ele>635.72</ele><time>2026-02-05T18:49:55.000Z</time></trkpt>
        <trkpt lat="28.8134768" lon="105.9574395"><ele>635.94</ele><time>2026-02-05T18:50:05.000Z</time></trkpt>
        <trkpt lat="28.8133677" lon="105.9574802"><ele>636.27</ele><time>2026-02-05T18:50:13.000Z</time></trkpt>
        <trkpt lat="28.8132715" lon="105.9574819"><ele>639.29</ele><time>2026-02-05T18:50:21.000Z</time></trkpt>
        <trkpt lat="28.8131746" lon="105.9574655"><ele>642.28</ele><time>2026-02-05T18:50:31.000Z</time></trkpt>
        <trkpt lat="28.8130761" lon="105.9574455"><ele>644.94</ele><time>2026-02-05T18:50:39.000Z</time></trkpt>
        <trkpt lat="28.8129778" lon="105.9574552"><ele>647.57</ele><time>2026-02-05T18:50:49.000Z</time></trkpt>
        <trkpt lat="28.8129478" lon="105.9575503"><ele>649.85</ele><time>2026-02-05T18:51:03.000Z</time></trkpt>
        <trkpt lat="28.8129565" lon="105.9576652"><ele>654.86</ele><time>2026-02-05T18:51:19.000Z</time></trkpt>
        <trkpt lat="28.813021" lon="105.9577498"><ele>658.8</ele><time>2026-02-05T18:51:31.000Z</time></trkpt>
        <trkpt lat="28.813101" lon="105.9578306"><ele>660.95</ele><time>2026-02-05T18:51:45.000Z</time></trkpt>
        <trkpt lat="28.8131562" lon="105.9579277"><ele>662.33</ele><time>2026-02-05T18:52:05.000Z</time></trkpt>
        <trkpt lat="28.8131424" lon="105.9580236"><ele>664.41</ele><time>2026-02-05T18:52:17.000Z</time></trkpt>
        <trkpt lat="28.8131287" lon="105.9581275"><ele>667.72</ele><time>2026-02-05T18:52:33.000Z</time></trkpt>
        <trkpt lat="28.8131881" lon="105.9581955"><ele>670.61</ele><time>2026-02-05T18:52:51.000Z</time></trkpt>
        <trkpt lat="28.8132763" lon="105.9582299"><ele>673.59</ele><time>2026-02-05T18:53:07.000Z</time></trkpt>
        <trkpt lat="28.813363" lon="105.9581849"><ele>674.94</ele><time>2026-02-05T18:53:33.000Z</time></trkpt>
        <trkpt lat="28.8134558" lon="105.9581696"><ele>679.23</ele><time>2026-02-05T18:53:49.000Z</time></trkpt>
        <trkpt lat="28.8134774" lon="105.9582407"><ele>685.7</ele><time>2026-02-05T18:54:47.000Z</time></trkpt>
        <trkpt lat="28.8134829" lon="105.9582812"><ele>689.06</ele><time>2026-02-05T18:54:55.000Z</time></trkpt>
        <trkpt lat="28.8135346" lon="105.9583393"><ele>689.26</ele><time>2026-02-05T18:55:15.000Z</time></trkpt>
        <trkpt lat="28.8136194" lon="105.9583291"><ele>687.3</ele><time>2026-02-05T18:55:55.000Z</time></trkpt>
        <trkpt lat="28.8137079" lon="105.9582879"><ele>691.75</ele><time>2026-02-05T18:56:40.000Z</time></trkpt>
        <trkpt lat="28.8137079" lon="105.9582879"><ele>691.75</ele><time>2026-02-05T18:56:54.000Z</time></trkpt>
        <trkpt lat="28.8138018" lon="105.9582887"><ele>696.97</ele><time>2026-02-05T18:57:16.000Z</time></trkpt>
        <trkpt lat="28.8138018" lon="105.9582887"><ele>696.97</ele><time>2026-02-05T18:57:36.000Z</time></trkpt>
        <trkpt lat="28.8139003" lon="105.9582905"><ele>701.36</ele><time>2026-02-05T18:58:00.000Z</time></trkpt>
        <trkpt lat="28.814" lon="105.9582653"><ele>704.71</ele><time>2026-02-05T18:58:26.000Z</time></trkpt>
        <trkpt lat="28.814095" lon="105.9582741"><ele>708.23</ele><time>2026-02-05T18:58:38.000Z</time></trkpt>
        <trkpt lat="28.8141855" lon="105.9582552"><ele>710.5</ele><time>2026-02-05T18:58:48.000Z</time></trkpt>
        <trkpt lat="28.8142821" lon="105.9582588"><ele>713.83</ele><time>2026-02-05T18:59:00.000Z</time></trkpt>
        <trkpt lat="28.8143794" lon="105.9582858"><ele>715.66</ele><time>2026-02-05T18:59:12.000Z</time></trkpt>
        <trkpt lat="28.8144848" lon="105.9582977"><ele>715.59</ele><time>2026-02-05T18:59:26.000Z</time></trkpt>
        <trkpt lat="28.8145844" lon="105.9582602"><ele>713.82</ele><time>2026-02-05T18:59:36.000Z</time></trkpt>
        <trkpt lat="28.814642" lon="105.9582074"><ele>715.21</ele><time>2026-02-05T18:59:44.000Z</time></trkpt>
        <trkpt lat="28.814703" lon="105.9581251"><ele>717.44</ele><time>2026-02-05T19:00:16.000Z</time></trkpt>
        <trkpt lat="28.8147051" lon="105.9579974"><ele>719.91</ele><time>2026-02-05T19:00:24.000Z</time></trkpt>
        <trkpt lat="28.8147681" lon="105.9579523"><ele>722.65</ele><time>2026-02-05T19:00:48.000Z</time></trkpt>
        <trkpt lat="28.8148539" lon="105.9579113"><ele>726.25</ele><time>2026-02-05T19:01:06.000Z</time></trkpt>
        <trkpt lat="28.8148211" lon="105.9579436"><ele>728.71</ele><time>2026-02-05T19:02:02.000Z</time></trkpt>
        <trkpt lat="28.8148164" lon="105.9579728"><ele>732.03</ele><time>2026-02-05T19:02:24.000Z</time></trkpt>
        <trkpt lat="28.8148164" lon="105.9579728"><ele>732.03</ele><time>2026-02-05T19:03:32.000Z</time></trkpt>
        <trkpt lat="28.814741" lon="105.9579133"><ele>736.82</ele><time>2026-02-05T19:03:48.000Z</time></trkpt>
        <trkpt lat="28.814741" lon="105.9579133"><ele>736.82</ele><time>2026-02-05T19:04:49.000Z</time></trkpt>
        <trkpt lat="28.8147501" lon="105.9579104"><ele>740.96</ele><time>2026-02-05T19:04:55.000Z</time></trkpt>
        <trkpt lat="28.8147501" lon="105.9579104"><ele>740.96</ele><time>2026-02-05T19:05:30.000Z</time></trkpt>
        <trkpt lat="28.8148491" lon="105.957959"><ele>742.07</ele><time>2026-02-05T19:05:46.000Z</time></trkpt>
        <trkpt lat="28.8148491" lon="105.957959"><ele>742.07</ele><time>2026-02-05T19:06:23.000Z</time></trkpt>
        <trkpt lat="28.8149224" lon="105.958038"><ele>744.14</ele><time>2026-02-05T19:07:25.000Z</time></trkpt>
        <trkpt lat="28.8149771" lon="105.9581341"><ele>742.1</ele><time>2026-02-05T19:07:59.000Z</time></trkpt>
        <trkpt lat="28.8149045" lon="105.9581296"><ele>740.74</ele><time>2026-02-05T19:08:21.000Z</time></trkpt>
        <trkpt lat="28.8149274" lon="105.95819"><ele>747.37</ele><time>2026-02-05T19:08:45.000Z</time></trkpt>
        <trkpt lat="28.8150094" lon="105.958154"><ele>751.18</ele><time>2026-02-05T19:09:03.000Z</time></trkpt>
        <trkpt lat="28.8151163" lon="105.9581521"><ele>755.89</ele><time>2026-02-05T19:09:26.000Z</time></trkpt>
        <trkpt lat="28.8152131" lon="105.9581867"><ele>759.48</ele><time>2026-02-05T19:09:40.000Z</time></trkpt>
        <trkpt lat="28.8153078" lon="105.9582181"><ele>760.06</ele><time>2026-02-05T19:09:56.000Z</time></trkpt>
        <trkpt lat="28.815404" lon="105.9582448"><ele>760.38</ele><time>2026-02-05T19:10:14.000Z</time></trkpt>
        <trkpt lat="28.815483" lon="105.9583131"><ele>760.58</ele><time>2026-02-05T19:10:30.000Z</time></trkpt>
        <trkpt lat="28.8155526" lon="105.9582637"><ele>759.43</ele><time>2026-02-05T19:10:46.000Z</time></trkpt>
        <trkpt lat="28.8156113" lon="105.9581743"><ele>760.82</ele><time>2026-02-05T19:11:00.000Z</time></trkpt>
        <trkpt lat="28.815694" lon="105.9581236"><ele>763.53</ele><time>2026-02-05T19:12:20.000Z</time></trkpt>
        <trkpt lat="28.8157864" lon="105.9580895"><ele>763.51</ele><time>2026-02-05T19:12:34.000Z</time></trkpt>
        <trkpt lat="28.815865" lon="105.9581448"><ele>762.98</ele><time>2026-02-05T19:12:44.000Z</time></trkpt>
        <trkpt lat="28.8159491" lon="105.9581366"><ele>763.93</ele><time>2026-02-05T19:12:52.000Z</time></trkpt>
        <trkpt lat="28.8160481" lon="105.9581084"><ele>766.1</ele><time>2026-02-05T19:13:02.000Z</time></trkpt>
        <trkpt lat="28.8161385" lon="105.9580627"><ele>766.55</ele><time>2026-02-05T19:13:18.000Z</time></trkpt>
        <trkpt lat="28.8162301" lon="105.9580246"><ele>765.98</ele><time>2026-02-05T19:14:08.000Z</time></trkpt>
        <trkpt lat="28.8163239" lon="105.9580087"><ele>768.72</ele><time>2026-02-05T19:14:36.000Z</time></trkpt>
        <trkpt lat="28.8164126" lon="105.9579789"><ele>770.59</ele><time>2026-02-05T19:14:56.000Z</time></trkpt>
        <trkpt lat="28.8165118" lon="105.9579689"><ele>772.31</ele><time>2026-02-05T19:15:18.000Z</time></trkpt>
        <trkpt lat="28.8166132" lon="105.9579761"><ele>773.29</ele><time>2026-02-05T19:15:30.000Z</time></trkpt>
        <trkpt lat="28.8166957" lon="105.9579172"><ele>772.17</ele><time>2026-02-05T19:15:48.000Z</time></trkpt>
        <trkpt lat="28.8167912" lon="105.957899"><ele>771.67</ele><time>2026-02-05T19:16:02.000Z</time></trkpt>
        <trkpt lat="28.8168371" lon="105.9579706"><ele>770.19</ele><time>2026-02-05T19:16:28.000Z</time></trkpt>
        <trkpt lat="28.8169116" lon="105.9579805"><ele>771.51</ele><time>2026-02-05T19:16:40.000Z</time></trkpt>
        <trkpt lat="28.817001" lon="105.9579553"><ele>771.31</ele><time>2026-02-05T19:16:52.000Z</time></trkpt>
        <trkpt lat="28.8170953" lon="105.9579255"><ele>771.62</ele><time>2026-02-05T19:17:06.000Z</time></trkpt>
        <trkpt lat="28.8171227" lon="105.9579164"><ele>770.55</ele><time>2026-02-05T19:17:10.000Z</time></trkpt>
        <trkpt lat="28.8171227" lon="105.9579164"><ele>770.55</ele><time>2026-02-05T19:17:56.000Z</time></trkpt>
        <trkpt lat="28.8171924" lon="105.9578972"><ele>769.37</ele><time>2026-02-05T19:17:58.000Z</time></trkpt>
        <trkpt lat="28.8171924" lon="105.9578972"><ele>769.37</ele><time>2026-02-05T19:18:32.000Z</time></trkpt>
        <trkpt lat="28.8172866" lon="105.9578765"><ele>767.79</ele><time>2026-02-05T19:19:24.000Z</time></trkpt>
        <trkpt lat="28.8173788" lon="105.9578437"><ele>767.12</ele><time>2026-02-05T19:19:46.000Z</time></trkpt>
        <trkpt lat="28.8174141" lon="105.9578478"><ele>766.45</ele><time>2026-02-05T19:19:50.000Z</time></trkpt>
        <trkpt lat="28.8174805" lon="105.9578135"><ele>766.22</ele><time>2026-02-05T19:20:14.000Z</time></trkpt>
        <trkpt lat="28.8175494" lon="105.9577473"><ele>765</ele><time>2026-02-05T19:20:46.000Z</time></trkpt>
        <trkpt lat="28.817641" lon="105.9577206"><ele>763.69</ele><time>2026-02-05T19:21:26.000Z</time></trkpt>
        <trkpt lat="28.8177396" lon="105.957711"><ele>764.57</ele><time>2026-02-05T19:21:44.000Z</time></trkpt>
        <trkpt lat="28.8178275" lon="105.9577503"><ele>764.9</ele><time>2026-02-05T19:22:00.000Z</time></trkpt>
        <trkpt lat="28.8179181" lon="105.9577829"><ele>764.63</ele><time>2026-02-05T19:22:12.000Z</time></trkpt>
        <trkpt lat="28.8179999" lon="105.9578562"><ele>765.34</ele><time>2026-02-05T19:22:42.000Z</time></trkpt>
        <trkpt lat="28.8180832" lon="105.9579078"><ele>764.84</ele><time>2026-02-05T19:22:54.000Z</time></trkpt>
        <trkpt lat="28.8181687" lon="105.9578991"><ele>765.01</ele><time>2026-02-05T19:23:04.000Z</time></trkpt>
        <trkpt lat="28.8182293" lon="105.957813"><ele>765.38</ele><time>2026-02-05T19:23:16.000Z</time></trkpt>
        <trkpt lat="28.8182711" lon="105.957793"><ele>767.86</ele><time>2026-02-05T19:23:26.000Z</time></trkpt>
        <trkpt lat="28.8183306" lon="105.9577407"><ele>769.94</ele><time>2026-02-05T19:23:50.000Z</time></trkpt>
        <trkpt lat="28.8184197" lon="105.9577041"><ele>771.76</ele><time>2026-02-05T19:24:04.000Z</time></trkpt>
        <trkpt lat="28.8185144" lon="105.9577227"><ele>773.32</ele><time>2026-02-05T19:24:20.000Z</time></trkpt>
        <trkpt lat="28.8185838" lon="105.9576717"><ele>773.38</ele><time>2026-02-05T19:24:34.000Z</time></trkpt>
        <trkpt lat="28.818658" lon="105.9576138"><ele>773.8</ele><time>2026-02-05T19:24:50.000Z</time></trkpt>
        <trkpt lat="28.8187438" lon="105.957619"><ele>773.55</ele><time>2026-02-05T19:25:10.000Z</time></trkpt>
        <trkpt lat="28.8187802" lon="105.9575484"><ele>773.26</ele><time>2026-02-05T19:25:34.000Z</time></trkpt>
        <trkpt lat="28.8188606" lon="105.9575135"><ele>774.28</ele><time>2026-02-05T19:25:50.000Z</time></trkpt>
        <trkpt lat="28.8189648" lon="105.9574942"><ele>772.18</ele><time>2026-02-05T19:26:06.000Z</time></trkpt>
        <trkpt lat="28.8190084" lon="105.9574626"><ele>768.71</ele><time>2026-02-05T19:26:14.000Z</time></trkpt>
        <trkpt lat="28.8189674" lon="105.9575197"><ele>767.96</ele><time>2026-02-05T19:26:46.000Z</time></trkpt>
        <trkpt lat="28.8189613" lon="105.9574657"><ele>770.1</ele><time>2026-02-05T19:27:24.000Z</time></trkpt>
        <trkpt lat="28.8190263" lon="105.9574438"><ele>772.56</ele><time>2026-02-05T19:27:46.000Z</time></trkpt>
        <trkpt lat="28.8190557" lon="105.9575187"><ele>771.68</ele><time>2026-02-05T19:28:10.000Z</time></trkpt>
        <trkpt lat="28.819067" lon="105.9576308"><ele>770.77</ele><time>2026-02-05T19:28:32.000Z</time></trkpt>
        <trkpt lat="28.8191306" lon="105.9576411"><ele>770.19</ele><time>2026-02-05T19:28:56.000Z</time></trkpt>
        <trkpt lat="28.8191023" lon="105.9575777"><ele>772.38</ele><time>2026-02-05T19:29:36.000Z</time></trkpt>
        <trkpt lat="28.8190037" lon="105.9574422"><ele>773.24</ele><time>2026-02-05T19:30:36.000Z</time></trkpt>
        <trkpt lat="28.8190192" lon="105.9574218"><ele>773.74</ele><time>2026-02-05T19:30:42.000Z</time></trkpt>
        <trkpt lat="28.8191119" lon="105.9574584"><ele>772.8</ele><time>2026-02-05T19:30:56.000Z</time></trkpt>
        <trkpt lat="28.8191825" lon="105.9575305"><ele>770.59</ele><time>2026-02-05T19:31:38.000Z</time></trkpt>
        <trkpt lat="28.8192747" lon="105.9575642"><ele>768.82</ele><time>2026-02-05T19:31:54.000Z</time></trkpt>
        <trkpt lat="28.8193704" lon="105.9575999"><ele>767.42</ele><time>2026-02-05T19:32:06.000Z</time></trkpt>
        <trkpt lat="28.8194307" lon="105.9575788"><ele>766.25</ele><time>2026-02-05T19:32:16.000Z</time></trkpt>
        <trkpt lat="28.8194828" lon="105.957499"><ele>766.21</ele><time>2026-02-05T19:32:46.000Z</time></trkpt>
        <trkpt lat="28.819525" lon="105.9574253"><ele>766.56</ele><time>2026-02-05T19:32:56.000Z</time></trkpt>
        <trkpt lat="28.8195755" lon="105.957338"><ele>767.9</ele><time>2026-02-05T19:33:10.000Z</time></trkpt>
        <trkpt lat="28.8196549" lon="105.9572927"><ele>768.97</ele><time>2026-02-05T19:33:34.000Z</time></trkpt>
        <trkpt lat="28.8197332" lon="105.9572301"><ele>769.18</ele><time>2026-02-05T19:33:48.000Z</time></trkpt>
        <trkpt lat="28.819755" lon="105.957215"><ele>771.05</ele><time>2026-02-05T19:33:50.000Z</time></trkpt>
        <trkpt lat="28.8198187" lon="105.9571637"><ele>772.15</ele><time>2026-02-05T19:34:29.000Z</time></trkpt>
        <trkpt lat="28.8198619" lon="105.9570712"><ele>775.28</ele><time>2026-02-05T19:34:54.000Z</time></trkpt>
        <trkpt lat="28.8199525" lon="105.9570418"><ele>779.49</ele><time>2026-02-05T19:35:04.000Z</time></trkpt>
        <trkpt lat="28.8200608" lon="105.9570559"><ele>779.73</ele><time>2026-02-05T19:35:29.000Z</time></trkpt>
        <trkpt lat="28.8200971" lon="105.956981"><ele>778.69</ele><time>2026-02-05T19:35:37.000Z</time></trkpt>
        <trkpt lat="28.820133" lon="105.9568847"><ele>777.55</ele><time>2026-02-05T19:35:47.000Z</time></trkpt>
        <trkpt lat="28.8201365" lon="105.9568526"><ele>777.23</ele><time>2026-02-05T19:35:49.000Z</time></trkpt>
        <trkpt lat="28.8201759" lon="105.9567885"><ele>776.69</ele><time>2026-02-05T19:36:09.000Z</time></trkpt>
        <trkpt lat="28.8202539" lon="105.9567316"><ele>775.65</ele><time>2026-02-05T19:36:29.000Z</time></trkpt>
        <trkpt lat="28.8203445" lon="105.9567453"><ele>774.2</ele><time>2026-02-05T19:37:15.000Z</time></trkpt>
        <trkpt lat="28.8204484" lon="105.9567578"><ele>773.76</ele><time>2026-02-05T19:38:15.000Z</time></trkpt>
        <trkpt lat="28.8205497" lon="105.9567652"><ele>770.63</ele><time>2026-02-05T19:38:45.000Z</time></trkpt>
        <trkpt lat="28.8206438" lon="105.9567418"><ele>767.75</ele><time>2026-02-05T19:39:05.000Z</time></trkpt>
        <trkpt lat="28.8207412" lon="105.9567264"><ele>767.36</ele><time>2026-02-05T19:39:17.000Z</time></trkpt>
        <trkpt lat="28.8208062" lon="105.9566502"><ele>766.95</ele><time>2026-02-05T19:39:45.000Z</time></trkpt>
        <trkpt lat="28.8208095" lon="105.9566335"><ele>767.95</ele><time>2026-02-05T19:39:49.000Z</time></trkpt>
        <trkpt lat="28.8207492" lon="105.9566852"><ele>768.72</ele><time>2026-02-05T19:40:07.000Z</time></trkpt>
        <trkpt lat="28.8207636" lon="105.9567695"><ele>770.06</ele><time>2026-02-05T19:40:25.000Z</time></trkpt>
        <trkpt lat="28.8208443" lon="105.956796"><ele>768.98</ele><time>2026-02-05T19:40:49.000Z</time></trkpt>
        <trkpt lat="28.8209408" lon="105.9568119"><ele>771.41</ele><time>2026-02-05T19:41:01.000Z</time></trkpt>
        <trkpt lat="28.8210399" lon="105.9568143"><ele>772.98</ele><time>2026-02-05T19:41:31.000Z</time></trkpt>
        <trkpt lat="28.8210141" lon="105.956861"><ele>776.81</ele><time>2026-02-05T19:42:07.000Z</time></trkpt>
        <trkpt lat="28.820932" lon="105.9569101"><ele>783.71</ele><time>2026-02-05T19:42:41.000Z</time></trkpt>
        <trkpt lat="28.8208341" lon="105.9569605"><ele>791.05</ele><time>2026-02-05T19:43:01.000Z</time></trkpt>
        <trkpt lat="28.8208002" lon="105.957054"><ele>797.83</ele><time>2026-02-05T19:43:29.000Z</time></trkpt>
        <trkpt lat="28.8208556" lon="105.9571185"><ele>801.19</ele><time>2026-02-05T19:43:57.000Z</time></trkpt>
        <trkpt lat="28.8209479" lon="105.9571653"><ele>802.29</ele><time>2026-02-05T19:44:31.000Z</time></trkpt>
        <trkpt lat="28.82105" lon="105.9571442"><ele>804.43</ele><time>2026-02-05T19:44:43.000Z</time></trkpt>
        <trkpt lat="28.8211395" lon="105.9570794"><ele>806.18</ele><time>2026-02-05T19:44:53.000Z</time></trkpt>
        <trkpt lat="28.8211996" lon="105.9569655"><ele>807.63</ele><time>2026-02-05T19:45:13.000Z</time></trkpt>
        <trkpt lat="28.8212788" lon="105.9569133"><ele>810.09</ele><time>2026-02-05T19:45:25.000Z</time></trkpt>
        <trkpt lat="28.8213758" lon="105.956917"><ele>812.9</ele><time>2026-02-05T19:45:37.000Z</time></trkpt>
        <trkpt lat="28.8214601" lon="105.9569827"><ele>814.61</ele><time>2026-02-05T19:45:47.000Z</time></trkpt>
        <trkpt lat="28.821466" lon="105.9569306"><ele>816.7</ele><time>2026-02-05T19:46:09.000Z</time></trkpt>
        <trkpt lat="28.821532" lon="105.956911"><ele>818.18</ele><time>2026-02-05T19:46:21.000Z</time></trkpt>
        <trkpt lat="28.8216198" lon="105.9569201"><ele>818.23</ele><time>2026-02-05T19:46:31.000Z</time></trkpt>
        <trkpt lat="28.8217195" lon="105.956936"><ele>817.48</ele><time>2026-02-05T19:46:41.000Z</time></trkpt>
        <trkpt lat="28.8218151" lon="105.9569322"><ele>817.43</ele><time>2026-02-05T19:46:49.000Z</time></trkpt>
        <trkpt lat="28.8219114" lon="105.9569023"><ele>816.98</ele><time>2026-02-05T19:46:59.000Z</time></trkpt>
        <trkpt lat="28.8220073" lon="105.9568934"><ele>818.29</ele><time>2026-02-05T19:47:09.000Z</time></trkpt>
        <trkpt lat="28.8220857" lon="105.9569616"><ele>819.11</ele><time>2026-02-05T19:47:19.000Z</time></trkpt>
        <trkpt lat="28.8221544" lon="105.9570447"><ele>820.46</ele><time>2026-02-05T19:47:29.000Z</time></trkpt>
        <trkpt lat="28.8221848" lon="105.9570581"><ele>822.32</ele><time>2026-02-05T19:47:35.000Z</time></trkpt>
        <trkpt lat="28.8222358" lon="105.9571128"><ele>824.53</ele><time>2026-02-05T19:47:49.000Z</time></trkpt>
        <trkpt lat="28.8223161" lon="105.9571421"><ele>825.6</ele><time>2026-02-05T19:47:57.000Z</time></trkpt>
        <trkpt lat="28.822409" lon="105.9571677"><ele>824.25</ele><time>2026-02-05T19:48:05.000Z</time></trkpt>
        <trkpt lat="28.8224915" lon="105.9572448"><ele>823.55</ele><time>2026-02-05T19:48:15.000Z</time></trkpt>
        <trkpt lat="28.8225719" lon="105.9573323"><ele>823.02</ele><time>2026-02-05T19:48:23.000Z</time></trkpt>
        <trkpt lat="28.8226222" lon="105.9573884"><ele>821.94</ele><time>2026-02-05T19:48:31.000Z</time></trkpt>
        <trkpt lat="28.822699" lon="105.9573964"><ele>821.59</ele><time>2026-02-05T19:48:49.000Z</time></trkpt>
        <trkpt lat="28.8227975" lon="105.9574126"><ele>821.02</ele><time>2026-02-05T19:48:59.000Z</time></trkpt>
        <trkpt lat="28.8228835" lon="105.9574655"><ele>820.27</ele><time>2026-02-05T19:49:11.000Z</time></trkpt>
        <trkpt lat="28.8228826" lon="105.9575616"><ele>819.6</ele><time>2026-02-05T19:49:23.000Z</time></trkpt>
        <trkpt lat="28.8228623" lon="105.9576729"><ele>818.58</ele><time>2026-02-05T19:49:35.000Z</time></trkpt>
        <trkpt lat="28.8228553" lon="105.9577294"><ele>817.74</ele><time>2026-02-05T19:49:46.000Z</time></trkpt>
        <trkpt lat="28.8228437" lon="105.9578219"><ele>816.75</ele><time>2026-02-05T19:49:55.000Z</time></trkpt>
        <trkpt lat="28.8227718" lon="105.9578595"><ele>816.19</ele><time>2026-02-05T19:50:19.000Z</time></trkpt>
        <trkpt lat="28.8228135" lon="105.9578546"><ele>814.8</ele><time>2026-02-05T19:50:39.000Z</time></trkpt>
        <trkpt lat="28.8229021" lon="105.9578022"><ele>812</ele><time>2026-02-05T19:50:53.000Z</time></trkpt>
        <trkpt lat="28.8230107" lon="105.9578168"><ele>810.04</ele><time>2026-02-05T19:51:01.000Z</time></trkpt>
        <trkpt lat="28.8231157" lon="105.9578668"><ele>809.1</ele><time>2026-02-05T19:51:11.000Z</time></trkpt>
        <trkpt lat="28.8231894" lon="105.9578229"><ele>808.3</ele><time>2026-02-05T19:51:19.000Z</time></trkpt>
        <trkpt lat="28.8232167" lon="105.957717"><ele>808.48</ele><time>2026-02-05T19:51:29.000Z</time></trkpt>
        <trkpt lat="28.8232093" lon="105.9576007"><ele>809.01</ele><time>2026-02-05T19:51:39.000Z</time></trkpt>
        <trkpt lat="28.8232018" lon="105.9574825"><ele>808.35</ele><time>2026-02-05T19:51:51.000Z</time></trkpt>
        <trkpt lat="28.8231761" lon="105.9575369"><ele>805.89</ele><time>2026-02-05T19:52:15.000Z</time></trkpt>
        <trkpt lat="28.8231966" lon="105.9576125"><ele>804.56</ele><time>2026-02-05T19:52:29.000Z</time></trkpt>
        <trkpt lat="28.8231571" lon="105.957713"><ele>803.93</ele><time>2026-02-05T19:53:11.000Z</time></trkpt>
        <trkpt lat="28.8231509" lon="105.9578286"><ele>804.84</ele><time>2026-02-05T19:53:21.000Z</time></trkpt>
        <trkpt lat="28.8230814" lon="105.9578731"><ele>805.97</ele><time>2026-02-05T19:53:33.000Z</time></trkpt>
        <trkpt lat="28.8229953" lon="105.9578235"><ele>807.95</ele><time>2026-02-05T19:53:45.000Z</time></trkpt>
        <trkpt lat="28.8228842" lon="105.9578137"><ele>809.34</ele><time>2026-02-05T19:53:57.000Z</time></trkpt>
        <trkpt lat="28.8228195" lon="105.957733"><ele>810.55</ele><time>2026-02-05T19:54:13.000Z</time></trkpt>
        <trkpt lat="28.8228125" lon="105.9576225"><ele>810.58</ele><time>2026-02-05T19:54:23.000Z</time></trkpt>
        <trkpt lat="28.8228223" lon="105.9575003"><ele>809.86</ele><time>2026-02-05T19:54:33.000Z</time></trkpt>
        <trkpt lat="28.822826" lon="105.9574263"><ele>809.01</ele><time>2026-02-05T19:54:39.000Z</time></trkpt>
        <trkpt lat="28.8227803" lon="105.9573437"><ele>808.89</ele><time>2026-02-05T19:54:59.000Z</time></trkpt>
        <trkpt lat="28.822688" lon="105.9572948"><ele>810.17</ele><time>2026-02-05T19:55:17.000Z</time></trkpt>
        <trkpt lat="28.8225879" lon="105.9572996"><ele>813.54</ele><time>2026-02-05T19:55:27.000Z</time></trkpt>
        <trkpt lat="28.8225034" lon="105.9572477"><ele>816.55</ele><time>2026-02-05T19:55:39.000Z</time></trkpt>
        <trkpt lat="28.822441" lon="105.9571628"><ele>818.44</ele><time>2026-02-05T19:55:49.000Z</time></trkpt>
        <trkpt lat="28.8223607" lon="105.9571164"><ele>820.58</ele><time>2026-02-05T19:55:57.000Z</time></trkpt>
        <trkpt lat="28.8222685" lon="105.9570784"><ele>821.53</ele><time>2026-02-05T19:56:05.000Z</time></trkpt>
        <trkpt lat="28.8221833" lon="105.9570173"><ele>822.95</ele><time>2026-02-05T19:56:15.000Z</time></trkpt>
        <trkpt lat="28.8220923" lon="105.9569406"><ele>824.82</ele><time>2026-02-05T19:56:25.000Z</time></trkpt>
        <trkpt lat="28.8220201" lon="105.9568617"><ele>826.49</ele><time>2026-02-05T19:56:33.000Z</time></trkpt>
        <trkpt lat="28.8219215" lon="105.9568419"><ele>827.74</ele><time>2026-02-05T19:56:43.000Z</time></trkpt>
        <trkpt lat="28.821816" lon="105.9568763"><ele>829.93</ele><time>2026-02-05T19:56:53.000Z</time></trkpt>
        <trkpt lat="28.8217155" lon="105.9568933"><ele>830.23</ele><time>2026-02-05T19:57:03.000Z</time></trkpt>
        <trkpt lat="28.8216223" lon="105.9568846"><ele>829.91</ele><time>2026-02-05T19:57:13.000Z</time></trkpt>
        <trkpt lat="28.8215395" lon="105.9569175"><ele>829.05</ele><time>2026-02-05T19:57:23.000Z</time></trkpt>
        <trkpt lat="28.8214651" lon="105.9569925"><ele>828</ele><time>2026-02-05T19:57:33.000Z</time></trkpt>
        <trkpt lat="28.8214868" lon="105.9570968"><ele>828.88</ele><time>2026-02-05T19:57:43.000Z</time></trkpt>
        <trkpt lat="28.8215408" lon="105.9572023"><ele>827.46</ele><time>2026-02-05T19:58:09.000Z</time></trkpt>
        <trkpt lat="28.8216167" lon="105.9572996"><ele>826.19</ele><time>2026-02-05T19:58:19.000Z</time></trkpt>
        <trkpt lat="28.8217006" lon="105.9573863"><ele>825.29</ele><time>2026-02-05T19:58:27.000Z</time></trkpt>
        <trkpt lat="28.8217918" lon="105.9574557"><ele>825.54</ele><time>2026-02-05T19:58:37.000Z</time></trkpt>
        <trkpt lat="28.8218877" lon="105.9574827"><ele>826.07</ele><time>2026-02-05T19:58:49.000Z</time></trkpt>
        <trkpt lat="28.8219259" lon="105.9575715"><ele>828.35</ele><time>2026-02-05T19:59:30.000Z</time></trkpt>
        <trkpt lat="28.8219987" lon="105.9575966"><ele>830.95</ele><time>2026-02-05T20:00:10.000Z</time></trkpt>
        <trkpt lat="28.8220688" lon="105.9576777"><ele>832.88</ele><time>2026-02-05T20:00:22.000Z</time></trkpt>
        <trkpt lat="28.8221195" lon="105.9577745"><ele>831.83</ele><time>2026-02-05T20:00:30.000Z</time></trkpt>
        <trkpt lat="28.8221698" lon="105.9578411"><ele>831.85</ele><time>2026-02-05T20:00:38.000Z</time></trkpt>
        <trkpt lat="28.822203" lon="105.9579443"><ele>831</ele><time>2026-02-05T20:00:48.000Z</time></trkpt>
        <trkpt lat="28.8221715" lon="105.958063"><ele>828.43</ele><time>2026-02-05T20:00:58.000Z</time></trkpt>
        <trkpt lat="28.8221617" lon="105.9581918"><ele>827.81</ele><time>2026-02-05T20:01:08.000Z</time></trkpt>
        <trkpt lat="28.8221823" lon="105.9583115"><ele>826.66</ele><time>2026-02-05T20:01:18.000Z</time></trkpt>
        <trkpt lat="28.8221919" lon="105.9584336"><ele>825.07</ele><time>2026-02-05T20:01:28.000Z</time></trkpt>
        <trkpt lat="28.82224" lon="105.9585424"><ele>824.03</ele><time>2026-02-05T20:01:38.000Z</time></trkpt>
        <trkpt lat="28.8223057" lon="105.9586341"><ele>821.14</ele><time>2026-02-05T20:01:48.000Z</time></trkpt>
        <trkpt lat="28.8223637" lon="105.9587241"><ele>819.05</ele><time>2026-02-05T20:01:56.000Z</time></trkpt>
        <trkpt lat="28.8223979" lon="105.9588209"><ele>817.25</ele><time>2026-02-05T20:02:06.000Z</time></trkpt>
        <trkpt lat="28.8224568" lon="105.9588981"><ele>816.47</ele><time>2026-02-05T20:02:16.000Z</time></trkpt>
        <trkpt lat="28.8225267" lon="105.9589693"><ele>816.84</ele><time>2026-02-05T20:02:30.000Z</time></trkpt>
        <trkpt lat="28.8225934" lon="105.9590491"><ele>817.76</ele><time>2026-02-05T20:02:48.000Z</time></trkpt>
        <trkpt lat="28.8226652" lon="105.9591178"><ele>820.28</ele><time>2026-02-05T20:03:04.000Z</time></trkpt>
        <trkpt lat="28.8227129" lon="105.9592134"><ele>823.06</ele><time>2026-02-05T20:03:22.000Z</time></trkpt>
        <trkpt lat="28.8227225" lon="105.9592721"><ele>826.89</ele><time>2026-02-05T20:03:34.000Z</time></trkpt>
        <trkpt lat="28.8227888" lon="105.9593063"><ele>829.56</ele><time>2026-02-05T20:04:00.000Z</time></trkpt>
        <trkpt lat="28.8228576" lon="105.9593703"><ele>829.09</ele><time>2026-02-05T20:04:12.000Z</time></trkpt>
        <trkpt lat="28.8229402" lon="105.9594351"><ele>827.31</ele><time>2026-02-05T20:04:22.000Z</time></trkpt>
        <trkpt lat="28.8230358" lon="105.9595004"><ele>826.01</ele><time>2026-02-05T20:04:32.000Z</time></trkpt>
        <trkpt lat="28.8231213" lon="105.959562"><ele>825.12</ele><time>2026-02-05T20:04:40.000Z</time></trkpt>
        <trkpt lat="28.8232128" lon="105.9595593"><ele>824.66</ele><time>2026-02-05T20:04:50.000Z</time></trkpt>
        <trkpt lat="28.8232711" lon="105.9596293"><ele>826.17</ele><time>2026-02-05T20:05:32.000Z</time></trkpt>
        <trkpt lat="28.8232198" lon="105.9596955"><ele>830.54</ele><time>2026-02-05T20:06:02.000Z</time></trkpt>
        <trkpt lat="28.8231172" lon="105.9597425"><ele>836.68</ele><time>2026-02-05T20:06:28.000Z</time></trkpt>
        <trkpt lat="28.82304" lon="105.9598256"><ele>840.59</ele><time>2026-02-05T20:06:46.000Z</time></trkpt>
        <trkpt lat="28.8230401" lon="105.9599245"><ele>842.35</ele><time>2026-02-05T20:07:14.000Z</time></trkpt>
        <trkpt lat="28.8231056" lon="105.9599973"><ele>844.83</ele><time>2026-02-05T20:07:46.000Z</time></trkpt>
        <trkpt lat="28.8231941" lon="105.9600649"><ele>848.73</ele><time>2026-02-05T20:08:10.000Z</time></trkpt>
        <trkpt lat="28.8232661" lon="105.9601478"><ele>851.82</ele><time>2026-02-05T20:08:30.000Z</time></trkpt>
        <trkpt lat="28.8233493" lon="105.960217"><ele>855.39</ele><time>2026-02-05T20:08:48.000Z</time></trkpt>
        <trkpt lat="28.8234179" lon="105.9602936"><ele>857.9</ele><time>2026-02-05T20:09:04.000Z</time></trkpt>
        <trkpt lat="28.8234889" lon="105.9603604"><ele>861.27</ele><time>2026-02-05T20:09:20.000Z</time></trkpt>
        <trkpt lat="28.8235755" lon="105.9603934"><ele>864.06</ele><time>2026-02-05T20:10:00.000Z</time></trkpt>
        <trkpt lat="28.8236527" lon="105.9604521"><ele>868.13</ele><time>2026-02-05T20:10:24.000Z</time></trkpt>
        <trkpt lat="28.8236527" lon="105.9604521"><ele>868.13</ele><time>2026-02-05T20:11:02.000Z</time></trkpt>
        <trkpt lat="28.8236527" lon="105.9604521"><ele>868.13</ele><time>2026-02-05T20:11:10.000Z</time></trkpt>
        <trkpt lat="28.8236527" lon="105.9604521"><ele>868.13</ele><time>2026-02-05T20:13:46.000Z</time></trkpt>
        <trkpt lat="28.8236527" lon="105.9604521"><ele>868.13</ele><time>2026-02-05T20:15:54.000Z</time></trkpt>
        <trkpt lat="28.8236527" lon="105.9604521"><ele>868.13</ele><time>2026-02-05T20:16:16.000Z</time></trkpt>
        <trkpt lat="28.8236377" lon="105.9605568"><ele>872.62</ele><time>2026-02-05T20:20:20.000Z</time></trkpt>
        <trkpt lat="28.8236377" lon="105.9605568"><ele>872.62</ele><time>2026-02-05T20:20:40.000Z</time></trkpt>
        <trkpt lat="28.8236314" lon="105.960667"><ele>875.82</ele><time>2026-02-05T20:20:52.000Z</time></trkpt>
        <trkpt lat="28.8235715" lon="105.9607542"><ele>876.64</ele><time>2026-02-05T20:21:08.000Z</time></trkpt>
        <trkpt lat="28.8235075" lon="105.9608304"><ele>878.29</ele><time>2026-02-05T20:21:36.000Z</time></trkpt>
        <trkpt lat="28.8234398" lon="105.9609131"><ele>879.41</ele><time>2026-02-05T20:22:12.000Z</time></trkpt>
        <trkpt lat="28.8233524" lon="105.960947"><ele>880.67</ele><time>2026-02-05T20:22:40.000Z</time></trkpt>
        <trkpt lat="28.8233524" lon="105.960947"><ele>880.67</ele><time>2026-02-05T20:22:40.000Z</time></trkpt>
        <trkpt lat="28.823248" lon="105.960957"><ele>886.8</ele><time>2026-02-05T20:23:32.000Z</time></trkpt>
        <trkpt lat="28.823248" lon="105.960957"><ele>886.8</ele><time>2026-02-05T20:24:03.000Z</time></trkpt>
        <trkpt lat="28.8231681" lon="105.9610127"><ele>887.52</ele><time>2026-02-05T20:24:15.000Z</time></trkpt>
        <trkpt lat="28.8231681" lon="105.9610127"><ele>887.52</ele><time>2026-02-05T20:25:20.000Z</time></trkpt>
        <trkpt lat="28.8230811" lon="105.9609804"><ele>887.52</ele><time>2026-02-05T20:25:34.000Z</time></trkpt>
        <trkpt lat="28.8230042" lon="105.9609248"><ele>887.54</ele><time>2026-02-05T20:26:00.000Z</time></trkpt>
        <trkpt lat="28.8229565" lon="105.9608318"><ele>886.47</ele><time>2026-02-05T20:26:32.000Z</time></trkpt>
        <trkpt lat="28.822905" lon="105.9607326"><ele>881.84</ele><time>2026-02-05T20:27:10.000Z</time></trkpt>
        <trkpt lat="28.8228367" lon="105.9606488"><ele>877.23</ele><time>2026-02-05T20:27:26.000Z</time></trkpt>
        <trkpt lat="28.8227512" lon="105.96062"><ele>872.97</ele><time>2026-02-05T20:28:06.000Z</time></trkpt>
        <trkpt lat="28.8226608" lon="105.9606551"><ele>866.84</ele><time>2026-02-05T20:28:52.000Z</time></trkpt>
        <trkpt lat="28.8226139" lon="105.960748"><ele>864.26</ele><time>2026-02-05T20:29:14.000Z</time></trkpt>
        <trkpt lat="28.8225561" lon="105.9608603"><ele>862.34</ele><time>2026-02-05T20:30:20.000Z</time></trkpt>
        <trkpt lat="28.8225493" lon="105.9609802"><ele>858.4</ele><time>2026-02-05T20:30:30.000Z</time></trkpt>
        <trkpt lat="28.8225448" lon="105.9610993"><ele>856.04</ele><time>2026-02-05T20:30:40.000Z</time></trkpt>
        <trkpt lat="28.8225793" lon="105.961196"><ele>853.99</ele><time>2026-02-05T20:30:48.000Z</time></trkpt>
        <trkpt lat="28.8226214" lon="105.9612881"><ele>853.28</ele><time>2026-02-05T20:30:58.000Z</time></trkpt>
        <trkpt lat="28.8226609" lon="105.9613832"><ele>853.97</ele><time>2026-02-05T20:31:10.000Z</time></trkpt>
        <trkpt lat="28.8227381" lon="105.9614395"><ele>856.15</ele><time>2026-02-05T20:31:30.000Z</time></trkpt>
        <trkpt lat="28.8226911" lon="105.9614639"><ele>859.33</ele><time>2026-02-05T20:31:50.000Z</time></trkpt>
        <trkpt lat="28.8226911" lon="105.9614639"><ele>859.33</ele><time>2026-02-05T20:32:17.000Z</time></trkpt>
        <trkpt lat="28.8225989" lon="105.961486"><ele>860.97</ele><time>2026-02-05T20:32:23.000Z</time></trkpt>
        <trkpt lat="28.8225989" lon="105.961486"><ele>860.97</ele><time>2026-02-05T20:32:35.000Z</time></trkpt>
        <trkpt lat="28.8225339" lon="105.9615711"><ele>861.27</ele><time>2026-02-05T20:32:47.000Z</time></trkpt>
        <trkpt lat="28.822464" lon="105.9616569"><ele>859.05</ele><time>2026-02-05T20:33:03.000Z</time></trkpt>
        <trkpt lat="28.8223806" lon="105.9617119"><ele>856.9</ele><time>2026-02-05T20:33:21.000Z</time></trkpt>
        <trkpt lat="28.8223367" lon="105.9618032"><ele>856.7</ele><time>2026-02-05T20:33:33.000Z</time></trkpt>
        <trkpt lat="28.8222881" lon="105.9618953"><ele>856.97</ele><time>2026-02-05T20:34:03.000Z</time></trkpt>
        <trkpt lat="28.8222093" lon="105.9619101"><ele>857.85</ele><time>2026-02-05T20:34:59.000Z</time></trkpt>
        <trkpt lat="28.8221069" lon="105.9619232"><ele>855.04</ele><time>2026-02-05T20:35:17.000Z</time></trkpt>
        <trkpt lat="28.8220141" lon="105.9619586"><ele>847.71</ele><time>2026-02-05T20:35:25.000Z</time></trkpt>
        <trkpt lat="28.8219183" lon="105.9619653"><ele>842.01</ele><time>2026-02-05T20:35:35.000Z</time></trkpt>
        <trkpt lat="28.8218286" lon="105.962013"><ele>836.03</ele><time>2026-02-05T20:35:45.000Z</time></trkpt>
        <trkpt lat="28.821757" lon="105.9621013"><ele>832.89</ele><time>2026-02-05T20:35:53.000Z</time></trkpt>
        <trkpt lat="28.8217312" lon="105.9621414"><ele>832.8</ele><time>2026-02-05T20:35:55.000Z</time></trkpt>
        <trkpt lat="28.821719" lon="105.9622377"><ele>832.55</ele><time>2026-02-05T20:36:09.000Z</time></trkpt>
        <trkpt lat="28.8216722" lon="105.9623431"><ele>833.71</ele><time>2026-02-05T20:36:25.000Z</time></trkpt>
        <trkpt lat="28.8216125" lon="105.9624334"><ele>835.95</ele><time>2026-02-05T20:36:37.000Z</time></trkpt>
        <trkpt lat="28.8215547" lon="105.9625308"><ele>836.04</ele><time>2026-02-05T20:36:55.000Z</time></trkpt>
        <trkpt lat="28.8215881" lon="105.9626134"><ele>835.22</ele><time>2026-02-05T20:37:15.000Z</time></trkpt>
        <trkpt lat="28.8215584" lon="105.9627045"><ele>831.1</ele><time>2026-02-05T20:37:37.000Z</time></trkpt>
        <trkpt lat="28.8214917" lon="105.9627814"><ele>828.35</ele><time>2026-02-05T20:37:49.000Z</time></trkpt>
        <trkpt lat="28.8214129" lon="105.9628612"><ele>825</ele><time>2026-02-05T20:38:01.000Z</time></trkpt>
        <trkpt lat="28.8213316" lon="105.962939"><ele>822.41</ele><time>2026-02-05T20:38:17.000Z</time></trkpt>
        <trkpt lat="28.8212411" lon="105.9629889"><ele>819.28</ele><time>2026-02-05T20:38:27.000Z</time></trkpt>
        <trkpt lat="28.8211359" lon="105.9630169"><ele>816.17</ele><time>2026-02-05T20:38:41.000Z</time></trkpt>
        <trkpt lat="28.8210319" lon="105.9630549"><ele>813.63</ele><time>2026-02-05T20:38:53.000Z</time></trkpt>
        <trkpt lat="28.8209358" lon="105.9631089"><ele>809.8</ele><time>2026-02-05T20:39:05.000Z</time></trkpt>
        <trkpt lat="28.8208844" lon="105.9632134"><ele>804.13</ele><time>2026-02-05T20:39:17.000Z</time></trkpt>
        <trkpt lat="28.8208673" lon="105.9633314"><ele>798.91</ele><time>2026-02-05T20:39:29.000Z</time></trkpt>
        <trkpt lat="28.8208121" lon="105.963422"><ele>794.18</ele><time>2026-02-05T20:39:43.000Z</time></trkpt>
        <trkpt lat="28.820761" lon="105.9635165"><ele>787.39</ele><time>2026-02-05T20:39:55.000Z</time></trkpt>
        <trkpt lat="28.82071" lon="105.9636104"><ele>781.56</ele><time>2026-02-05T20:40:09.000Z</time></trkpt>
        <trkpt lat="28.82065" lon="105.9636933"><ele>775.91</ele><time>2026-02-05T20:40:21.000Z</time></trkpt>
        <trkpt lat="28.8206348" lon="105.9637151"><ele>770.55</ele><time>2026-02-05T20:40:23.000Z</time></trkpt>
        <trkpt lat="28.8205606" lon="105.9636897"><ele>766.31</ele><time>2026-02-05T20:40:45.000Z</time></trkpt>
        <trkpt lat="28.8204655" lon="105.9636735"><ele>761.63</ele><time>2026-02-05T20:41:07.000Z</time></trkpt>
        <trkpt lat="28.8204376" lon="105.9636681"><ele>758.31</ele><time>2026-02-05T20:41:11.000Z</time></trkpt>
        <trkpt lat="28.8203642" lon="105.9637164"><ele>756.39</ele><time>2026-02-05T20:42:01.000Z</time></trkpt>
        <trkpt lat="28.8202805" lon="105.9637676"><ele>754.45</ele><time>2026-02-05T20:42:17.000Z</time></trkpt>
        <trkpt lat="28.8203262" lon="105.9637913"><ele>751.87</ele><time>2026-02-05T20:42:27.000Z</time></trkpt>
        <trkpt lat="28.8203262" lon="105.9637913"><ele>751.87</ele><time>2026-02-05T20:43:01.000Z</time></trkpt>
        <trkpt lat="28.8203943" lon="105.9638861"><ele>748.79</ele><time>2026-02-05T20:43:03.000Z</time></trkpt>
        <trkpt lat="28.8203943" lon="105.9638861"><ele>748.79</ele><time>2026-02-05T20:43:49.000Z</time></trkpt>
        <trkpt lat="28.8204403" lon="105.9639752"><ele>743.65</ele><time>2026-02-05T20:44:05.000Z</time></trkpt>
        <trkpt lat="28.8205203" lon="105.9640333"><ele>739.15</ele><time>2026-02-05T20:44:23.000Z</time></trkpt>
        <trkpt lat="28.8205948" lon="105.9641018"><ele>733.48</ele><time>2026-02-05T20:44:37.000Z</time></trkpt>
        <trkpt lat="28.8206626" lon="105.9641736"><ele>728.72</ele><time>2026-02-05T20:44:51.000Z</time></trkpt>
        <trkpt lat="28.8207396" lon="105.9642354"><ele>723.64</ele><time>2026-02-05T20:45:03.000Z</time></trkpt>
        <trkpt lat="28.8208253" lon="105.9642707"><ele>718.22</ele><time>2026-02-05T20:45:13.000Z</time></trkpt>
        <trkpt lat="28.8209085" lon="105.9642205"><ele>713.33</ele><time>2026-02-05T20:45:23.000Z</time></trkpt>
        <trkpt lat="28.8210052" lon="105.9642095"><ele>708.63</ele><time>2026-02-05T20:45:35.000Z</time></trkpt>
        <trkpt lat="28.821092" lon="105.9642435"><ele>706.08</ele><time>2026-02-05T20:45:47.000Z</time></trkpt>
        <trkpt lat="28.8211729" lon="105.9643014"><ele>702.86</ele><time>2026-02-05T20:45:59.000Z</time></trkpt>
        <trkpt lat="28.8212624" lon="105.9643346"><ele>699.87</ele><time>2026-02-05T20:46:17.000Z</time></trkpt>
        <trkpt lat="28.8213337" lon="105.9643986"><ele>693.73</ele><time>2026-02-05T20:46:41.000Z</time></trkpt>
        <trkpt lat="28.8213564" lon="105.9645029"><ele>688.88</ele><time>2026-02-05T20:47:07.000Z</time></trkpt>
        <trkpt lat="28.8213193" lon="105.9646171"><ele>687.24</ele><time>2026-02-05T20:47:19.000Z</time></trkpt>
        <trkpt lat="28.8212872" lon="105.964727"><ele>684.63</ele><time>2026-02-05T20:47:27.000Z</time></trkpt>
        <trkpt lat="28.8212004" lon="105.9647656"><ele>682.43</ele><time>2026-02-05T20:47:37.000Z</time></trkpt>
        <trkpt lat="28.8210988" lon="105.9647985"><ele>681.59</ele><time>2026-02-05T20:47:47.000Z</time></trkpt>
        <trkpt lat="28.8210312" lon="105.9648475"><ele>680.52</ele><time>2026-02-05T20:47:59.000Z</time></trkpt>
        <trkpt lat="28.8209651" lon="105.9649117"><ele>678.31</ele><time>2026-02-05T20:48:15.000Z</time></trkpt>
        <trkpt lat="28.8209051" lon="105.9649301"><ele>676.12</ele><time>2026-02-05T20:48:25.000Z</time></trkpt>
        <trkpt lat="28.8208254" lon="105.9649064"><ele>673.18</ele><time>2026-02-05T20:48:57.000Z</time></trkpt>
        <trkpt lat="28.8207247" lon="105.9648937"><ele>670.64</ele><time>2026-02-05T20:49:07.000Z</time></trkpt>
        <trkpt lat="28.8206236" lon="105.9648965"><ele>668.42</ele><time>2026-02-05T20:49:15.000Z</time></trkpt>
        <trkpt lat="28.8205305" lon="105.9649317"><ele>666.39</ele><time>2026-02-05T20:49:23.000Z</time></trkpt>
        <trkpt lat="28.8204323" lon="105.9649771"><ele>665.03</ele><time>2026-02-05T20:49:31.000Z</time></trkpt>
        <trkpt lat="28.8203484" lon="105.9650539"><ele>663.34</ele><time>2026-02-05T20:49:41.000Z</time></trkpt>
        <trkpt lat="28.8202584" lon="105.9651171"><ele>661.03</ele><time>2026-02-05T20:49:49.000Z</time></trkpt>
        <trkpt lat="28.8201643" lon="105.9651354"><ele>659.36</ele><time>2026-02-05T20:49:57.000Z</time></trkpt>
        <trkpt lat="28.8200622" lon="105.9651749"><ele>657.14</ele><time>2026-02-05T20:50:07.000Z</time></trkpt>
        <trkpt lat="28.8199668" lon="105.9652344"><ele>656.47</ele><time>2026-02-05T20:50:15.000Z</time></trkpt>
        <trkpt lat="28.8198713" lon="105.9652619"><ele>655.97</ele><time>2026-02-05T20:50:23.000Z</time></trkpt>
        <trkpt lat="28.8197754" lon="105.9653085"><ele>655.67</ele><time>2026-02-05T20:50:35.000Z</time></trkpt>
        <trkpt lat="28.8196799" lon="105.9653585"><ele>656.72</ele><time>2026-02-05T20:50:45.000Z</time></trkpt>
        <trkpt lat="28.8195807" lon="105.965341"><ele>657.95</ele><time>2026-02-05T20:50:55.000Z</time></trkpt>
        <trkpt lat="28.8194843" lon="105.9653343"><ele>657.61</ele><time>2026-02-05T20:51:01.000Z</time></trkpt>
        <trkpt lat="28.8193816" lon="105.9653224"><ele>656.35</ele><time>2026-02-05T20:51:07.000Z</time></trkpt>
        <trkpt lat="28.8192871" lon="105.9653018"><ele>656.19</ele><time>2026-02-05T20:51:15.000Z</time></trkpt>
        <trkpt lat="28.8192366" lon="105.965219"><ele>656.3</ele><time>2026-02-05T20:51:27.000Z</time></trkpt>
        <trkpt lat="28.8191723" lon="105.9651414"><ele>657.89</ele><time>2026-02-05T20:51:43.000Z</time></trkpt>
        <trkpt lat="28.8190777" lon="105.9651011"><ele>658.53</ele><time>2026-02-05T20:51:53.000Z</time></trkpt>
        <trkpt lat="28.8189662" lon="105.9650928"><ele>658.62</ele><time>2026-02-05T20:52:01.000Z</time></trkpt>
        <trkpt lat="28.8188491" lon="105.9651118"><ele>658.66</ele><time>2026-02-05T20:52:09.000Z</time></trkpt>
        <trkpt lat="28.8187403" lon="105.9651274"><ele>658.04</ele><time>2026-02-05T20:52:17.000Z</time></trkpt>
        <trkpt lat="28.8186451" lon="105.9651141"><ele>658.87</ele><time>2026-02-05T20:52:25.000Z</time></trkpt>
        <trkpt lat="28.818553" lon="105.965082"><ele>659.12</ele><time>2026-02-05T20:52:33.000Z</time></trkpt>
        <trkpt lat="28.8184877" lon="105.9649932"><ele>660.12</ele><time>2026-02-05T20:52:43.000Z</time></trkpt>
        <trkpt lat="28.8184072" lon="105.9649608"><ele>660.5</ele><time>2026-02-05T20:52:53.000Z</time></trkpt>
        <trkpt lat="28.8184072" lon="105.9649608"><ele>660.5</ele><time>2026-02-05T20:53:17.000Z</time></trkpt>
        <trkpt lat="28.8183233" lon="105.9650205"><ele>664.4</ele><time>2026-02-05T20:53:23.000Z</time></trkpt>
        <trkpt lat="28.8183233" lon="105.9650205"><ele>664.4</ele><time>2026-02-05T20:53:31.000Z</time></trkpt>
        <trkpt lat="28.8182299" lon="105.9650622"><ele>667.53</ele><time>2026-02-05T20:53:41.000Z</time></trkpt>
        <trkpt lat="28.8181347" lon="105.9650775"><ele>668.44</ele><time>2026-02-05T20:53:49.000Z</time></trkpt>
        <trkpt lat="28.8180395" lon="105.9650609"><ele>667.87</ele><time>2026-02-05T20:53:59.000Z</time></trkpt>
        <trkpt lat="28.8179516" lon="105.9650183"><ele>668.31</ele><time>2026-02-05T20:54:09.000Z</time></trkpt>
        <trkpt lat="28.817857" lon="105.9649721"><ele>666.48</ele><time>2026-02-05T20:54:21.000Z</time></trkpt>
        <trkpt lat="28.817761" lon="105.9649492"><ele>665.4</ele><time>2026-02-05T20:54:31.000Z</time></trkpt>
        <trkpt lat="28.8176836" lon="105.964881"><ele>665.24</ele><time>2026-02-05T20:54:41.000Z</time></trkpt>
        <trkpt lat="28.8175985" lon="105.9648272"><ele>664.68</ele><time>2026-02-05T20:54:59.000Z</time></trkpt>
        <trkpt lat="28.8175091" lon="105.9648078"><ele>663.75</ele><time>2026-02-05T20:55:09.000Z</time></trkpt>
        <trkpt lat="28.8174697" lon="105.9648835"><ele>663.03</ele><time>2026-02-05T20:55:55.000Z</time></trkpt>
        <trkpt lat="28.8174644" lon="105.9649011"><ele>663.38</ele><time>2026-02-05T20:56:01.000Z</time></trkpt>
        <trkpt lat="28.8174021" lon="105.9648471"><ele>664.19</ele><time>2026-02-05T20:56:11.000Z</time></trkpt>
        <trkpt lat="28.8173177" lon="105.9647785"><ele>663.84</ele><time>2026-02-05T20:56:21.000Z</time></trkpt>
        <trkpt lat="28.8172219" lon="105.9647214"><ele>663.29</ele><time>2026-02-05T20:56:31.000Z</time></trkpt>
        <trkpt lat="28.81716" lon="105.9646314"><ele>660.91</ele><time>2026-02-05T20:56:41.000Z</time></trkpt>
        <trkpt lat="28.8170904" lon="105.9645467"><ele>659.37</ele><time>2026-02-05T20:56:51.000Z</time></trkpt>
        <trkpt lat="28.8170182" lon="105.9644777"><ele>659.39</ele><time>2026-02-05T20:57:03.000Z</time></trkpt>
        <trkpt lat="28.8169335" lon="105.9644181"><ele>659.52</ele><time>2026-02-05T20:57:11.000Z</time></trkpt>
        <trkpt lat="28.8168446" lon="105.9643692"><ele>658.42</ele><time>2026-02-05T20:57:21.000Z</time></trkpt>
        <trkpt lat="28.8167505" lon="105.9643916"><ele>656.89</ele><time>2026-02-05T20:57:33.000Z</time></trkpt>
        <trkpt lat="28.816659" lon="105.9643659"><ele>657.71</ele><time>2026-02-05T20:57:47.000Z</time></trkpt>
        <trkpt lat="28.8165559" lon="105.964345"><ele>658.01</ele><time>2026-02-05T20:58:01.000Z</time></trkpt>
        <trkpt lat="28.8164643" lon="105.9643962"><ele>658.07</ele><time>2026-02-05T20:58:11.000Z</time></trkpt>
        <trkpt lat="28.8163804" lon="105.9644637"><ele>660.33</ele><time>2026-02-05T20:58:25.000Z</time></trkpt>
        <trkpt lat="28.8162859" lon="105.9644938"><ele>661.41</ele><time>2026-02-05T20:58:45.000Z</time></trkpt>
        <trkpt lat="28.8161888" lon="105.9644763"><ele>660.29</ele><time>2026-02-05T20:59:17.000Z</time></trkpt>
        <trkpt lat="28.816087" lon="105.9644792"><ele>662.39</ele><time>2026-02-05T20:59:27.000Z</time></trkpt>
        <trkpt lat="28.8160101" lon="105.9644105"><ele>664.62</ele><time>2026-02-05T20:59:39.000Z</time></trkpt>
        <trkpt lat="28.8159286" lon="105.9643311"><ele>664.88</ele><time>2026-02-05T20:59:57.000Z</time></trkpt>
        <trkpt lat="28.8158898" lon="105.9642743"><ele>664.1</ele><time>2026-02-05T21:00:05.000Z</time></trkpt>
        <trkpt lat="28.8158716" lon="105.9641724"><ele>663.56</ele><time>2026-02-05T21:00:19.000Z</time></trkpt>
        <trkpt lat="28.8158751" lon="105.9642383"><ele>663.32</ele><time>2026-02-05T21:00:39.000Z</time></trkpt>
        <trkpt lat="28.8158201" lon="105.9643301"><ele>661.61</ele><time>2026-02-05T21:00:49.000Z</time></trkpt>
        <trkpt lat="28.8157545" lon="105.9643094"><ele>658.52</ele><time>2026-02-05T21:00:55.000Z</time></trkpt>
        <trkpt lat="28.8156814" lon="105.9642246"><ele>657.51</ele><time>2026-02-05T21:01:07.000Z</time></trkpt>
        <trkpt lat="28.8156616" lon="105.964114"><ele>656.97</ele><time>2026-02-05T21:01:21.000Z</time></trkpt>
        <trkpt lat="28.8157165" lon="105.964033"><ele>657.23</ele><time>2026-02-05T21:01:45.000Z</time></trkpt>
        <trkpt lat="28.8157825" lon="105.9639477"><ele>658.13</ele><time>2026-02-05T21:02:01.000Z</time></trkpt>
        <trkpt lat="28.8158217" lon="105.9638423"><ele>659.95</ele><time>2026-02-05T21:02:27.000Z</time></trkpt>
        <trkpt lat="28.8158927" lon="105.9637718"><ele>660.38</ele><time>2026-02-05T21:02:49.000Z</time></trkpt>
        <trkpt lat="28.8159613" lon="105.9637006"><ele>663.52</ele><time>2026-02-05T21:03:13.000Z</time></trkpt>
        <trkpt lat="28.8160335" lon="105.9636311"><ele>667.99</ele><time>2026-02-05T21:03:25.000Z</time></trkpt>
        <trkpt lat="28.816097" lon="105.9635511"><ele>670.43</ele><time>2026-02-05T21:03:37.000Z</time></trkpt>
        <trkpt lat="28.8161556" lon="105.9634629"><ele>672.86</ele><time>2026-02-05T21:03:47.000Z</time></trkpt>
        <trkpt lat="28.8161614" lon="105.9633631"><ele>675.27</ele><time>2026-02-05T21:04:03.000Z</time></trkpt>
        <trkpt lat="28.8160922" lon="105.9633116"><ele>676.2</ele><time>2026-02-05T21:04:19.000Z</time></trkpt>
        <trkpt lat="28.8161265" lon="105.9632558"><ele>680.54</ele><time>2026-02-05T21:04:31.000Z</time></trkpt>
        <trkpt lat="28.8162159" lon="105.9632148"><ele>680.84</ele><time>2026-02-05T21:04:47.000Z</time></trkpt>
        <trkpt lat="28.8162642" lon="105.9631435"><ele>682.12</ele><time>2026-02-05T21:05:09.000Z</time></trkpt>
        <trkpt lat="28.8163529" lon="105.9631337"><ele>685.23</ele><time>2026-02-05T21:05:39.000Z</time></trkpt>
        <trkpt lat="28.8164431" lon="105.9631033"><ele>692.82</ele><time>2026-02-05T21:06:03.000Z</time></trkpt>
        <trkpt lat="28.816539" lon="105.9631051"><ele>699.39</ele><time>2026-02-05T21:06:27.000Z</time></trkpt>
        <trkpt lat="28.8165723" lon="105.9630296"><ele>705.79</ele><time>2026-02-05T21:06:55.000Z</time></trkpt>
        <trkpt lat="28.8165444" lon="105.9629197"><ele>710.82</ele><time>2026-02-05T21:07:05.000Z</time></trkpt>
        <trkpt lat="28.8164771" lon="105.9628301"><ele>715.6</ele><time>2026-02-05T21:07:19.000Z</time></trkpt>
        <trkpt lat="28.8164137" lon="105.9627288"><ele>721.04</ele><time>2026-02-05T21:07:57.000Z</time></trkpt>
        <trkpt lat="28.8163236" lon="105.9626773"><ele>726.75</ele><time>2026-02-05T21:08:11.000Z</time></trkpt>
        <trkpt lat="28.8162127" lon="105.962646"><ele>732.29</ele><time>2026-02-05T21:08:23.000Z</time></trkpt>
        <trkpt lat="28.8161131" lon="105.9626203"><ele>737.93</ele><time>2026-02-05T21:08:33.000Z</time></trkpt>
        <trkpt lat="28.8160211" lon="105.9626419"><ele>740.4</ele><time>2026-02-05T21:08:49.000Z</time></trkpt>
        <trkpt lat="28.8160678" lon="105.9626233"><ele>743.89</ele><time>2026-02-05T21:09:05.000Z</time></trkpt>
        <trkpt lat="28.8161621" lon="105.9625988"><ele>742.53</ele><time>2026-02-05T21:09:27.000Z</time></trkpt>
        <trkpt lat="28.8161476" lon="105.9625314"><ele>743.5</ele><time>2026-02-05T21:09:37.000Z</time></trkpt>
        <trkpt lat="28.8162246" lon="105.9624704"><ele>745.02</ele><time>2026-02-05T21:11:17.000Z</time></trkpt>
        <trkpt lat="28.8163227" lon="105.9624308"><ele>755.17</ele><time>2026-02-05T21:12:23.000Z</time></trkpt>
        <trkpt lat="28.8163227" lon="105.9624308"><ele>755.17</ele><time>2026-02-05T21:13:25.000Z</time></trkpt>
        <trkpt lat="28.816424" lon="105.9624253"><ele>761.88</ele><time>2026-02-05T21:13:27.000Z</time></trkpt>
        <trkpt lat="28.816424" lon="105.9624253"><ele>761.88</ele><time>2026-02-05T21:13:39.000Z</time></trkpt>
        <trkpt lat="28.816424" lon="105.9624253"><ele>761.88</ele><time>2026-02-05T21:14:17.000Z</time></trkpt>
        <trkpt lat="28.816424" lon="105.9624253"><ele>761.88</ele><time>2026-02-05T21:14:27.000Z</time></trkpt>
        <trkpt lat="28.816424" lon="105.9624253"><ele>761.88</ele><time>2026-02-05T21:15:03.000Z</time></trkpt>
        <trkpt lat="28.8165175" lon="105.9624223"><ele>767.24</ele><time>2026-02-05T21:18:25.000Z</time></trkpt>
        <trkpt lat="28.8165175" lon="105.9624223"><ele>767.24</ele><time>2026-02-05T21:18:51.000Z</time></trkpt>
        <trkpt lat="28.8166073" lon="105.962415"><ele>776.25</ele><time>2026-02-05T21:19:01.000Z</time></trkpt>
        <trkpt lat="28.8166986" lon="105.9624469"><ele>780.17</ele><time>2026-02-05T21:19:17.000Z</time></trkpt>
        <trkpt lat="28.8167927" lon="105.9624476"><ele>785.19</ele><time>2026-02-05T21:19:55.000Z</time></trkpt>
        <trkpt lat="28.8168301" lon="105.9623705"><ele>790.79</ele><time>2026-02-05T21:20:27.000Z</time></trkpt>
        <trkpt lat="28.8168202" lon="105.9622601"><ele>795.19</ele><time>2026-02-05T21:21:13.000Z</time></trkpt>
        <trkpt lat="28.8167581" lon="105.9621718"><ele>804.05</ele><time>2026-02-05T21:21:29.000Z</time></trkpt>
        <trkpt lat="28.8166649" lon="105.9621329"><ele>810</ele><time>2026-02-05T21:21:47.000Z</time></trkpt>
        <trkpt lat="28.8165567" lon="105.9620935"><ele>816.17</ele><time>2026-02-05T21:22:31.000Z</time></trkpt>
        <trkpt lat="28.8164518" lon="105.9620858"><ele>817.97</ele><time>2026-02-05T21:22:43.000Z</time></trkpt>
        <trkpt lat="28.8163516" lon="105.9620814"><ele>819.57</ele><time>2026-02-05T21:22:57.000Z</time></trkpt>
        <trkpt lat="28.8162777" lon="105.9620154"><ele>822</ele><time>2026-02-05T21:23:11.000Z</time></trkpt>
        <trkpt lat="28.8161938" lon="105.962014"><ele>823.63</ele><time>2026-02-05T21:23:27.000Z</time></trkpt>
        <trkpt lat="28.8161475" lon="105.9619899"><ele>824.16</ele><time>2026-02-05T21:23:33.000Z</time></trkpt>
        <trkpt lat="28.8160729" lon="105.9619509"><ele>822.9</ele><time>2026-02-05T21:23:45.000Z</time></trkpt>
        <trkpt lat="28.8159757" lon="105.9619334"><ele>822.84</ele><time>2026-02-05T21:23:59.000Z</time></trkpt>
        <trkpt lat="28.815873" lon="105.961906"><ele>824.69</ele><time>2026-02-05T21:24:19.000Z</time></trkpt>
        <trkpt lat="28.815778" lon="105.9619252"><ele>826.1</ele><time>2026-02-05T21:24:33.000Z</time></trkpt>
        <trkpt lat="28.8157014" lon="105.961868"><ele>830.67</ele><time>2026-02-05T21:25:01.000Z</time></trkpt>
        <trkpt lat="28.8156039" lon="105.9618505"><ele>829.47</ele><time>2026-02-05T21:25:09.000Z</time></trkpt>
        <trkpt lat="28.815501" lon="105.961841"><ele>828.47</ele><time>2026-02-05T21:25:19.000Z</time></trkpt>
        <trkpt lat="28.815537" lon="105.9618019"><ele>827.05</ele><time>2026-02-05T21:25:31.000Z</time></trkpt>
        <trkpt lat="28.8156288" lon="105.9617725"><ele>826.38</ele><time>2026-02-05T21:25:41.000Z</time></trkpt>
        <trkpt lat="28.8157389" lon="105.9617436"><ele>826.04</ele><time>2026-02-05T21:25:59.000Z</time></trkpt>
        <trkpt lat="28.8158367" lon="105.961696"><ele>826.67</ele><time>2026-02-05T21:26:09.000Z</time></trkpt>
        <trkpt lat="28.815939" lon="105.9616626"><ele>828.48</ele><time>2026-02-05T21:26:21.000Z</time></trkpt>
        <trkpt lat="28.8160386" lon="105.9616168"><ele>829.44</ele><time>2026-02-05T21:26:31.000Z</time></trkpt>
        <trkpt lat="28.8161195" lon="105.9615555"><ele>829.72</ele><time>2026-02-05T21:26:47.000Z</time></trkpt>
        <trkpt lat="28.8161728" lon="105.9614602"><ele>830.19</ele><time>2026-02-05T21:27:23.000Z</time></trkpt>
        <trkpt lat="28.8161308" lon="105.9613668"><ele>837.39</ele><time>2026-02-05T21:27:55.000Z</time></trkpt>
        <trkpt lat="28.8160363" lon="105.9613335"><ele>843.55</ele><time>2026-02-05T21:28:07.000Z</time></trkpt>
        <trkpt lat="28.8159656" lon="105.9612637"><ele>847.24</ele><time>2026-02-05T21:28:21.000Z</time></trkpt>
        <trkpt lat="28.8159252" lon="105.961171"><ele>848</ele><time>2026-02-05T21:28:29.000Z</time></trkpt>
        <trkpt lat="28.8158893" lon="105.9610701"><ele>848.43</ele><time>2026-02-05T21:28:45.000Z</time></trkpt>
        <trkpt lat="28.8158757" lon="105.9609518"><ele>851.8</ele><time>2026-02-05T21:28:53.000Z</time></trkpt>
        <trkpt lat="28.8159002" lon="105.9608383"><ele>854.55</ele><time>2026-02-05T21:29:03.000Z</time></trkpt>
        <trkpt lat="28.8159653" lon="105.9607421"><ele>856.09</ele><time>2026-02-05T21:29:11.000Z</time></trkpt>
        <trkpt lat="28.81605" lon="105.9606635"><ele>858.38</ele><time>2026-02-05T21:29:21.000Z</time></trkpt>
        <trkpt lat="28.8160822" lon="105.9605665"><ele>860.57</ele><time>2026-02-05T21:29:35.000Z</time></trkpt>
        <trkpt lat="28.8161532" lon="105.9604936"><ele>862.37</ele><time>2026-02-05T21:29:49.000Z</time></trkpt>
        <trkpt lat="28.8161291" lon="105.9604099"><ele>866.39</ele><time>2026-02-05T21:30:21.000Z</time></trkpt>
        <trkpt lat="28.8161099" lon="105.9603984"><ele>871.66</ele><time>2026-02-05T21:30:31.000Z</time></trkpt>
        <trkpt lat="28.8160268" lon="105.960378"><ele>876.17</ele><time>2026-02-05T21:30:49.000Z</time></trkpt>
        <trkpt lat="28.8159411" lon="105.9603265"><ele>878.02</ele><time>2026-02-05T21:31:13.000Z</time></trkpt>
        <trkpt lat="28.8158461" lon="105.9603056"><ele>878.49</ele><time>2026-02-05T21:31:27.000Z</time></trkpt>
        <trkpt lat="28.81575" lon="105.9603327"><ele>879.49</ele><time>2026-02-05T21:31:41.000Z</time></trkpt>
        <trkpt lat="28.8156543" lon="105.960342"><ele>881.34</ele><time>2026-02-05T21:31:57.000Z</time></trkpt>
        <trkpt lat="28.8155571" lon="105.9603218"><ele>880.07</ele><time>2026-02-05T21:32:07.000Z</time></trkpt>
        <trkpt lat="28.8154852" lon="105.9602528"><ele>879.34</ele><time>2026-02-05T21:32:21.000Z</time></trkpt>
        <trkpt lat="28.8154068" lon="105.9601815"><ele>879.35</ele><time>2026-02-05T21:32:39.000Z</time></trkpt>
        <trkpt lat="28.815324" lon="105.9601033"><ele>879.59</ele><time>2026-02-05T21:32:49.000Z</time></trkpt>
        <trkpt lat="28.8152823" lon="105.960079"><ele>880.63</ele><time>2026-02-05T21:32:57.000Z</time></trkpt>
        <trkpt lat="28.8151986" lon="105.9600571"><ele>881.54</ele><time>2026-02-05T21:33:25.000Z</time></trkpt>
        <trkpt lat="28.8151081" lon="105.9600329"><ele>881.29</ele><time>2026-02-05T21:33:39.000Z</time></trkpt>
        <trkpt lat="28.8150258" lon="105.9599815"><ele>879.47</ele><time>2026-02-05T21:33:49.000Z</time></trkpt>
        <trkpt lat="28.814929" lon="105.9599265"><ele>877.26</ele><time>2026-02-05T21:34:03.000Z</time></trkpt>
        <trkpt lat="28.814845" lon="105.9598967"><ele>875.03</ele><time>2026-02-05T21:34:21.000Z</time></trkpt>
        <trkpt lat="28.8147797" lon="105.9598312"><ele>873.73</ele><time>2026-02-05T21:35:03.000Z</time></trkpt>
        <trkpt lat="28.8147268" lon="105.9597136"><ele>868.1</ele><time>2026-02-05T21:35:11.000Z</time></trkpt>
        <trkpt lat="28.8146558" lon="105.9596124"><ele>861.42</ele><time>2026-02-05T21:35:15.000Z</time></trkpt>
        <trkpt lat="28.8145707" lon="105.9595116"><ele>857.09</ele><time>2026-02-05T21:35:19.000Z</time></trkpt>
        <trkpt lat="28.8144534" lon="105.9594323"><ele>854.15</ele><time>2026-02-05T21:35:23.000Z</time></trkpt>
        <trkpt lat="28.814331" lon="105.9594187"><ele>853.72</ele><time>2026-02-05T21:35:29.000Z</time></trkpt>
        <trkpt lat="28.8142152" lon="105.9594482"><ele>852.86</ele><time>2026-02-05T21:35:35.000Z</time></trkpt>
        <trkpt lat="28.8141023" lon="105.9594885"><ele>849.04</ele><time>2026-02-05T21:35:43.000Z</time></trkpt>
        <trkpt lat="28.8140122" lon="105.9595542"><ele>846.04</ele><time>2026-02-05T21:35:47.000Z</time></trkpt>
        <trkpt lat="28.8139243" lon="105.9596114"><ele>844.05</ele><time>2026-02-05T21:35:51.000Z</time></trkpt>
        <trkpt lat="28.8138066" lon="105.9596463"><ele>841.05</ele><time>2026-02-05T21:35:57.000Z</time></trkpt>
        <trkpt lat="28.8136931" lon="105.9596484"><ele>838.62</ele><time>2026-02-05T21:36:01.000Z</time></trkpt>
        <trkpt lat="28.8135905" lon="105.9596509"><ele>837.66</ele><time>2026-02-05T21:36:05.000Z</time></trkpt>
        <trkpt lat="28.8134779" lon="105.9596765"><ele>836.03</ele><time>2026-02-05T21:36:11.000Z</time></trkpt>
        <trkpt lat="28.8133598" lon="105.9596578"><ele>833.94</ele><time>2026-02-05T21:36:17.000Z</time></trkpt>
        <trkpt lat="28.8132466" lon="105.9596145"><ele>833.04</ele><time>2026-02-05T21:36:23.000Z</time></trkpt>
        <trkpt lat="28.8131251" lon="105.9596044"><ele>831.88</ele><time>2026-02-05T21:36:31.000Z</time></trkpt>
        <trkpt lat="28.8130068" lon="105.959619"><ele>830.94</ele><time>2026-02-05T21:36:37.000Z</time></trkpt>
        <trkpt lat="28.8129096" lon="105.9596283"><ele>829.46</ele><time>2026-02-05T21:36:41.000Z</time></trkpt>
        <trkpt lat="28.8127986" lon="105.9596269"><ele>829.36</ele><time>2026-02-05T21:36:45.000Z</time></trkpt>
        <trkpt lat="28.8126962" lon="105.9596146"><ele>829.18</ele><time>2026-02-05T21:36:49.000Z</time></trkpt>
        <trkpt lat="28.8125855" lon="105.9595784"><ele>829.45</ele><time>2026-02-05T21:36:53.000Z</time></trkpt>
        <trkpt lat="28.8124755" lon="105.9595577"><ele>829.91</ele><time>2026-02-05T21:36:57.000Z</time></trkpt>
        <trkpt lat="28.8123774" lon="105.9594966"><ele>830.13</ele><time>2026-02-05T21:37:03.000Z</time></trkpt>
        <trkpt lat="28.8123029" lon="105.959398"><ele>830.06</ele><time>2026-02-05T21:37:11.000Z</time></trkpt>
        <trkpt lat="28.8122223" lon="105.9593265"><ele>828.24</ele><time>2026-02-05T21:37:17.000Z</time></trkpt>
        <trkpt lat="28.8121039" lon="105.9593066"><ele>826.03</ele><time>2026-02-05T21:37:25.000Z</time></trkpt>
        <trkpt lat="28.8119875" lon="105.9593001"><ele>824.59</ele><time>2026-02-05T21:37:29.000Z</time></trkpt>
        <trkpt lat="28.8118927" lon="105.9592785"><ele>823.78</ele><time>2026-02-05T21:37:33.000Z</time></trkpt>
        <trkpt lat="28.8117925" lon="105.9592478"><ele>822.38</ele><time>2026-02-05T21:37:37.000Z</time></trkpt>
        <trkpt lat="28.8116898" lon="105.9592272"><ele>822.54</ele><time>2026-02-05T21:37:43.000Z</time></trkpt>
        <trkpt lat="28.8115881" lon="105.959232"><ele>820.66</ele><time>2026-02-05T21:37:47.000Z</time></trkpt>
        <trkpt lat="28.8114636" lon="105.9592115"><ele>819.64</ele><time>2026-02-05T21:37:53.000Z</time></trkpt>
        <trkpt lat="28.8113395" lon="105.959176"><ele>817.1</ele><time>2026-02-05T21:37:57.000Z</time></trkpt>
        <trkpt lat="28.8112273" lon="105.9591395"><ele>816.52</ele><time>2026-02-05T21:38:03.000Z</time></trkpt>
        <trkpt lat="28.8111269" lon="105.9590725"><ele>813.85</ele><time>2026-02-05T21:38:07.000Z</time></trkpt>
        <trkpt lat="28.8110327" lon="105.9589856"><ele>811.29</ele><time>2026-02-05T21:38:13.000Z</time></trkpt>
        <trkpt lat="28.8109471" lon="105.9589047"><ele>809.07</ele><time>2026-02-05T21:38:17.000Z</time></trkpt>
        <trkpt lat="28.8108472" lon="105.9589059"><ele>808.9</ele><time>2026-02-05T21:38:25.000Z</time></trkpt>
        <trkpt lat="28.8107481" lon="105.9589421"><ele>806.51</ele><time>2026-02-05T21:38:31.000Z</time></trkpt>
        <trkpt lat="28.8106405" lon="105.9589865"><ele>805.62</ele><time>2026-02-05T21:38:39.000Z</time></trkpt>
        <trkpt lat="28.8105315" lon="105.958999"><ele>805.32</ele><time>2026-02-05T21:38:47.000Z</time></trkpt>
        <trkpt lat="28.8104201" lon="105.9589621"><ele>806.59</ele><time>2026-02-05T21:38:55.000Z</time></trkpt>
        <trkpt lat="28.8103598" lon="105.9589133"><ele>808.73</ele><time>2026-02-05T21:39:01.000Z</time></trkpt>
        <trkpt lat="28.8102654" lon="105.9588776"><ele>809.23</ele><time>2026-02-05T21:39:11.000Z</time></trkpt>
        <trkpt lat="28.8101618" lon="105.95889"><ele>810.62</ele><time>2026-02-05T21:39:19.000Z</time></trkpt>
        <trkpt lat="28.810081" lon="105.9589517"><ele>811</ele><time>2026-02-05T21:39:29.000Z</time></trkpt>
        <trkpt lat="28.8100031" lon="105.9590293"><ele>809.68</ele><time>2026-02-05T21:39:53.000Z</time></trkpt>
        <trkpt lat="28.8099436" lon="105.9591249"><ele>807.82</ele><time>2026-02-05T21:40:09.000Z</time></trkpt>
        <trkpt lat="28.8098955" lon="105.9592226"><ele>805.76</ele><time>2026-02-05T21:40:17.000Z</time></trkpt>
        <trkpt lat="28.8098373" lon="105.9593189"><ele>802.02</ele><time>2026-02-05T21:40:23.000Z</time></trkpt>
        <trkpt lat="28.8097639" lon="105.9593918"><ele>797.41</ele><time>2026-02-05T21:40:31.000Z</time></trkpt>
        <trkpt lat="28.8096824" lon="105.9593391"><ele>792.63</ele><time>2026-02-05T21:40:39.000Z</time></trkpt>
        <trkpt lat="28.8096571" lon="105.9592288"><ele>788.21</ele><time>2026-02-05T21:40:45.000Z</time></trkpt>
        <trkpt lat="28.8096188" lon="105.9591216"><ele>784.79</ele><time>2026-02-05T21:40:51.000Z</time></trkpt>
        <trkpt lat="28.8095453" lon="105.9590413"><ele>783.02</ele><time>2026-02-05T21:40:57.000Z</time></trkpt>
        <trkpt lat="28.8094495" lon="105.958996"><ele>782.04</ele><time>2026-02-05T21:41:01.000Z</time></trkpt>
        <trkpt lat="28.8093401" lon="105.9589663"><ele>777.73</ele><time>2026-02-05T21:41:05.000Z</time></trkpt>
        <trkpt lat="28.8092453" lon="105.958931"><ele>772.65</ele><time>2026-02-05T21:41:09.000Z</time></trkpt>
        <trkpt lat="28.8091381" lon="105.9588715"><ele>768.5</ele><time>2026-02-05T21:41:15.000Z</time></trkpt>
        <trkpt lat="28.8090369" lon="105.9588081"><ele>765.17</ele><time>2026-02-05T21:41:23.000Z</time></trkpt>
        <trkpt lat="28.8089617" lon="105.9587378"><ele>765.1</ele><time>2026-02-05T21:41:27.000Z</time></trkpt>
        <trkpt lat="28.808866" lon="105.9586582"><ele>766.78</ele><time>2026-02-05T21:41:31.000Z</time></trkpt>
        <trkpt lat="28.808772" lon="105.9586511"><ele>766.76</ele><time>2026-02-05T21:41:37.000Z</time></trkpt>
        <trkpt lat="28.8086819" lon="105.9587032"><ele>770.13</ele><time>2026-02-05T21:41:43.000Z</time></trkpt>
        <trkpt lat="28.8086049" lon="105.9587819"><ele>773.2</ele><time>2026-02-05T21:41:51.000Z</time></trkpt>
        <trkpt lat="28.8085581" lon="105.9588809"><ele>775.21</ele><time>2026-02-05T21:42:01.000Z</time></trkpt>
        <trkpt lat="28.8084948" lon="105.95896"><ele>776.32</ele><time>2026-02-05T21:42:13.000Z</time></trkpt>
        <trkpt lat="28.8084055" lon="105.9589823"><ele>777.31</ele><time>2026-02-05T21:42:23.000Z</time></trkpt>
        <trkpt lat="28.8083303" lon="105.95904"><ele>778.09</ele><time>2026-02-05T21:42:31.000Z</time></trkpt>
        <trkpt lat="28.8082424" lon="105.9590504"><ele>778.15</ele><time>2026-02-05T21:42:37.000Z</time></trkpt>
        <trkpt lat="28.8081491" lon="105.9590339"><ele>776.49</ele><time>2026-02-05T21:42:45.000Z</time></trkpt>
        <trkpt lat="28.8080499" lon="105.9589716"><ele>776.95</ele><time>2026-02-05T21:42:53.000Z</time></trkpt>
        <trkpt lat="28.8079783" lon="105.9588718"><ele>777.73</ele><time>2026-02-05T21:42:59.000Z</time></trkpt>
        <trkpt lat="28.8078692" lon="105.9588495"><ele>777.63</ele><time>2026-02-05T21:43:05.000Z</time></trkpt>
        <trkpt lat="28.8077726" lon="105.9588872"><ele>777.56</ele><time>2026-02-05T21:43:09.000Z</time></trkpt>
        <trkpt lat="28.8076641" lon="105.9588722"><ele>776.87</ele><time>2026-02-05T21:43:15.000Z</time></trkpt>
        <trkpt lat="28.8075482" lon="105.9588456"><ele>774.14</ele><time>2026-02-05T21:43:21.000Z</time></trkpt>
        <trkpt lat="28.8074459" lon="105.958844"><ele>770.29</ele><time>2026-02-05T21:43:25.000Z</time></trkpt>
        <trkpt lat="28.80736" lon="105.9587969"><ele>768.25</ele><time>2026-02-05T21:43:31.000Z</time></trkpt>
        <trkpt lat="28.807279" lon="105.9586967"><ele>764.88</ele><time>2026-02-05T21:43:37.000Z</time></trkpt>
        <trkpt lat="28.8072154" lon="105.9585937"><ele>758.38</ele><time>2026-02-05T21:43:43.000Z</time></trkpt>
        <trkpt lat="28.8071939" lon="105.958481"><ele>751.79</ele><time>2026-02-05T21:43:49.000Z</time></trkpt>
        <trkpt lat="28.8072318" lon="105.9583482"><ele>747.6</ele><time>2026-02-05T21:43:55.000Z</time></trkpt>
        <trkpt lat="28.8072847" lon="105.9582342"><ele>745.68</ele><time>2026-02-05T21:43:59.000Z</time></trkpt>
        <trkpt lat="28.8073254" lon="105.9581092"><ele>745.79</ele><time>2026-02-05T21:44:03.000Z</time></trkpt>
        <trkpt lat="28.8072874" lon="105.957987"><ele>745.89</ele><time>2026-02-05T21:44:09.000Z</time></trkpt>
        <trkpt lat="28.8072009" lon="105.9579285"><ele>748.95</ele><time>2026-02-05T21:44:13.000Z</time></trkpt>
        <trkpt lat="28.8071" lon="105.957902"><ele>750.59</ele><time>2026-02-05T21:44:17.000Z</time></trkpt>
        <trkpt lat="28.8069922" lon="105.9578982"><ele>751.44</ele><time>2026-02-05T21:44:23.000Z</time></trkpt>
        <trkpt lat="28.8068911" lon="105.9579172"><ele>751.7</ele><time>2026-02-05T21:44:29.000Z</time></trkpt>
        <trkpt lat="28.8067831" lon="105.9579393"><ele>751.95</ele><time>2026-02-05T21:44:37.000Z</time></trkpt>
        <trkpt lat="28.8066874" lon="105.9579395"><ele>752.51</ele><time>2026-02-05T21:44:45.000Z</time></trkpt>
        <trkpt lat="28.8065954" lon="105.9579363"><ele>752.06</ele><time>2026-02-05T21:44:53.000Z</time></trkpt>
        <trkpt lat="28.8065009" lon="105.9579184"><ele>751.96</ele><time>2026-02-05T21:45:03.000Z</time></trkpt>
        <trkpt lat="28.8064404" lon="105.957846"><ele>753.71</ele><time>2026-02-05T21:45:11.000Z</time></trkpt>
        <trkpt lat="28.8063701" lon="105.9577831"><ele>752.94</ele><time>2026-02-05T21:45:17.000Z</time></trkpt>
        <trkpt lat="28.8062854" lon="105.9577348"><ele>752.45</ele><time>2026-02-05T21:45:23.000Z</time></trkpt>
        <trkpt lat="28.8061885" lon="105.9577342"><ele>751.06</ele><time>2026-02-05T21:45:29.000Z</time></trkpt>
        <trkpt lat="28.8060836" lon="105.9577875"><ele>749.74</ele><time>2026-02-05T21:45:35.000Z</time></trkpt>
        <trkpt lat="28.806004" lon="105.9578691"><ele>749.95</ele><time>2026-02-05T21:45:41.000Z</time></trkpt>
        <trkpt lat="28.8059025" lon="105.95791"><ele>750.33</ele><time>2026-02-05T21:45:49.000Z</time></trkpt>
        <trkpt lat="28.805792" lon="105.9579219"><ele>751.72</ele><time>2026-02-05T21:45:57.000Z</time></trkpt>
        <trkpt lat="28.8056942" lon="105.9578733"><ele>752.47</ele><time>2026-02-05T21:46:05.000Z</time></trkpt>
        <trkpt lat="28.8056276" lon="105.9577897"><ele>751.85</ele><time>2026-02-05T21:46:11.000Z</time></trkpt>
        <trkpt lat="28.8055467" lon="105.9577078"><ele>749.9</ele><time>2026-02-05T21:46:17.000Z</time></trkpt>
        <trkpt lat="28.8054287" lon="105.957693"><ele>749.98</ele><time>2026-02-05T21:46:23.000Z</time></trkpt>
        <trkpt lat="28.8053225" lon="105.9577041"><ele>751.01</ele><time>2026-02-05T21:46:27.000Z</time></trkpt>
        <trkpt lat="28.8052203" lon="105.9577373"><ele>751.62</ele><time>2026-02-05T21:46:33.000Z</time></trkpt>
        <trkpt lat="28.8051176" lon="105.9577848"><ele>751.66</ele><time>2026-02-05T21:46:41.000Z</time></trkpt>
        <trkpt lat="28.8050257" lon="105.9578251"><ele>751.82</ele><time>2026-02-05T21:46:47.000Z</time></trkpt>
        <trkpt lat="28.8049224" lon="105.9578385"><ele>751.92</ele><time>2026-02-05T21:46:55.000Z</time></trkpt>
        <trkpt lat="28.8048154" lon="105.9578195"><ele>750.41</ele><time>2026-02-05T21:47:03.000Z</time></trkpt>
        <trkpt lat="28.8047176" lon="105.9577916"><ele>750.58</ele><time>2026-02-05T21:47:11.000Z</time></trkpt>
        <trkpt lat="28.8046105" lon="105.9577742"><ele>752.16</ele><time>2026-02-05T21:47:19.000Z</time></trkpt>
        <trkpt lat="28.8045093" lon="105.9577663"><ele>752.68</ele><time>2026-02-05T21:47:25.000Z</time></trkpt>
        <trkpt lat="28.8044097" lon="105.9577667"><ele>753.71</ele><time>2026-02-05T21:47:31.000Z</time></trkpt>
        <trkpt lat="28.8043258" lon="105.9578112"><ele>756.22</ele><time>2026-02-05T21:47:37.000Z</time></trkpt>
        <trkpt lat="28.8042955" lon="105.9579147"><ele>757.84</ele><time>2026-02-05T21:47:45.000Z</time></trkpt>
        <trkpt lat="28.804263" lon="105.958019"><ele>758.63</ele><time>2026-02-05T21:47:59.000Z</time></trkpt>
        <trkpt lat="28.8042204" lon="105.9581217"><ele>762.66</ele><time>2026-02-05T21:48:17.000Z</time></trkpt>
        <trkpt lat="28.8041721" lon="105.958218"><ele>765.98</ele><time>2026-02-05T21:48:29.000Z</time></trkpt>
        <trkpt lat="28.8041174" lon="105.9583118"><ele>767.79</ele><time>2026-02-05T21:48:39.000Z</time></trkpt>
        <trkpt lat="28.8040321" lon="105.9583605"><ele>768.54</ele><time>2026-02-05T21:48:49.000Z</time></trkpt>
        <trkpt lat="28.8039321" lon="105.9583428"><ele>768.65</ele><time>2026-02-05T21:48:57.000Z</time></trkpt>
        <trkpt lat="28.8038255" lon="105.9583069"><ele>769.33</ele><time>2026-02-05T21:49:05.000Z</time></trkpt>
        <trkpt lat="28.8037164" lon="105.9582898"><ele>769.84</ele><time>2026-02-05T21:49:13.000Z</time></trkpt>
        <trkpt lat="28.8036452" lon="105.9583483"><ele>770.61</ele><time>2026-02-05T21:49:19.000Z</time></trkpt>
        <trkpt lat="28.8036067" lon="105.9584497"><ele>771.75</ele><time>2026-02-05T21:49:27.000Z</time></trkpt>
        <trkpt lat="28.8035439" lon="105.9585446"><ele>774.21</ele><time>2026-02-05T21:49:37.000Z</time></trkpt>
        <trkpt lat="28.8034656" lon="105.9586195"><ele>776.66</ele><time>2026-02-05T21:49:47.000Z</time></trkpt>
        <trkpt lat="28.8033802" lon="105.9586705"><ele>779.08</ele><time>2026-02-05T21:49:59.000Z</time></trkpt>
        <trkpt lat="28.8032757" lon="105.9586659"><ele>781.56</ele><time>2026-02-05T21:50:11.000Z</time></trkpt>
        <trkpt lat="28.8031755" lon="105.9586075"><ele>783.8</ele><time>2026-02-05T21:50:19.000Z</time></trkpt>
        <trkpt lat="28.8030607" lon="105.9585492"><ele>784.45</ele><time>2026-02-05T21:50:25.000Z</time></trkpt>
        <trkpt lat="28.8029522" lon="105.9585408"><ele>785.58</ele><time>2026-02-05T21:50:33.000Z</time></trkpt>
        <trkpt lat="28.8028841" lon="105.9586155"><ele>786.65</ele><time>2026-02-05T21:50:43.000Z</time></trkpt>
        <trkpt lat="28.802838" lon="105.9587194"><ele>788.32</ele><time>2026-02-05T21:50:51.000Z</time></trkpt>
        <trkpt lat="28.8028029" lon="105.9588258"><ele>789.97</ele><time>2026-02-05T21:50:59.000Z</time></trkpt>
        <trkpt lat="28.8027278" lon="105.9588531"><ele>790.84</ele><time>2026-02-05T21:51:07.000Z</time></trkpt>
        <trkpt lat="28.8026416" lon="105.9588247"><ele>791.18</ele><time>2026-02-05T21:51:13.000Z</time></trkpt>
        <trkpt lat="28.8025515" lon="105.958785"><ele>789.01</ele><time>2026-02-05T21:51:19.000Z</time></trkpt>
        <trkpt lat="28.8024587" lon="105.9587619"><ele>787.41</ele><time>2026-02-05T21:51:23.000Z</time></trkpt>
        <trkpt lat="28.8023629" lon="105.9587415"><ele>785.45</ele><time>2026-02-05T21:51:27.000Z</time></trkpt>
        <trkpt lat="28.8022444" lon="105.9587041"><ele>783.33</ele><time>2026-02-05T21:51:33.000Z</time></trkpt>
        <trkpt lat="28.8021389" lon="105.9586708"><ele>782.38</ele><time>2026-02-05T21:51:37.000Z</time></trkpt>
        <trkpt lat="28.8020416" lon="105.9586523"><ele>780.92</ele><time>2026-02-05T21:51:41.000Z</time></trkpt>
        <trkpt lat="28.8019492" lon="105.9586367"><ele>780.18</ele><time>2026-02-05T21:51:45.000Z</time></trkpt>
        <trkpt lat="28.8018199" lon="105.9586296"><ele>780.32</ele><time>2026-02-05T21:51:51.000Z</time></trkpt>
        <trkpt lat="28.8017019" lon="105.9586139"><ele>782.69</ele><time>2026-02-05T21:51:57.000Z</time></trkpt>
        <trkpt lat="28.8016162" lon="105.9585573"><ele>787.05</ele><time>2026-02-05T21:52:05.000Z</time></trkpt>
        <trkpt lat="28.8015344" lon="105.9584881"><ele>791.67</ele><time>2026-02-05T21:52:17.000Z</time></trkpt>
        <trkpt lat="28.8014487" lon="105.9584684"><ele>796.04</ele><time>2026-02-05T21:52:27.000Z</time></trkpt>
        <trkpt lat="28.8013534" lon="105.9584627"><ele>799.57</ele><time>2026-02-05T21:52:37.000Z</time></trkpt>
        <trkpt lat="28.8012687" lon="105.9584263"><ele>802.43</ele><time>2026-02-05T21:52:49.000Z</time></trkpt>
        <trkpt lat="28.8011747" lon="105.9583909"><ele>804.65</ele><time>2026-02-05T21:53:01.000Z</time></trkpt>
        <trkpt lat="28.8010824" lon="105.9583653"><ele>808.12</ele><time>2026-02-05T21:53:09.000Z</time></trkpt>
        <trkpt lat="28.8009918" lon="105.9583385"><ele>810.34</ele><time>2026-02-05T21:53:17.000Z</time></trkpt>
        <trkpt lat="28.8008915" lon="105.9583341"><ele>812.24</ele><time>2026-02-05T21:53:25.000Z</time></trkpt>
        <trkpt lat="28.8007971" lon="105.9583234"><ele>812.47</ele><time>2026-02-05T21:53:35.000Z</time></trkpt>
        <trkpt lat="28.8007042" lon="105.9583437"><ele>813.47</ele><time>2026-02-05T21:53:45.000Z</time></trkpt>
        <trkpt lat="28.8006053" lon="105.9583512"><ele>815.48</ele><time>2026-02-05T21:53:57.000Z</time></trkpt>
        <trkpt lat="28.8005131" lon="105.9583704"><ele>816.41</ele><time>2026-02-05T21:54:09.000Z</time></trkpt>
        <trkpt lat="28.8004149" lon="105.9583974"><ele>817.07</ele><time>2026-02-05T21:54:25.000Z</time></trkpt>
        <trkpt lat="28.8003196" lon="105.9584179"><ele>820.69</ele><time>2026-02-05T21:54:37.000Z</time></trkpt>
        <trkpt lat="28.8002268" lon="105.9584281"><ele>823.67</ele><time>2026-02-05T21:54:47.000Z</time></trkpt>
        <trkpt lat="28.8001305" lon="105.958441"><ele>825.63</ele><time>2026-02-05T21:54:57.000Z</time></trkpt>
        <trkpt lat="28.8000526" lon="105.9584968"><ele>828.32</ele><time>2026-02-05T21:55:09.000Z</time></trkpt>
        <trkpt lat="28.7999728" lon="105.9585521"><ele>830.77</ele><time>2026-02-05T21:55:23.000Z</time></trkpt>
        <trkpt lat="28.7998858" lon="105.9585873"><ele>833.56</ele><time>2026-02-05T21:55:37.000Z</time></trkpt>
        <trkpt lat="28.7998007" lon="105.9586309"><ele>837.71</ele><time>2026-02-05T21:56:03.000Z</time></trkpt>
        <trkpt lat="28.7997203" lon="105.9586859"><ele>843.01</ele><time>2026-02-05T21:56:17.000Z</time></trkpt>
        <trkpt lat="28.7996494" lon="105.9587629"><ele>847.24</ele><time>2026-02-05T21:56:29.000Z</time></trkpt>
        <trkpt lat="28.7995718" lon="105.9588304"><ele>850.5</ele><time>2026-02-05T21:56:43.000Z</time></trkpt>
        <trkpt lat="28.7995384" lon="105.9589288"><ele>852.78</ele><time>2026-02-05T21:57:01.000Z</time></trkpt>
        <trkpt lat="28.7995027" lon="105.9590315"><ele>856.19</ele><time>2026-02-05T21:57:15.000Z</time></trkpt>
        <trkpt lat="28.7994512" lon="105.9591208"><ele>859.93</ele><time>2026-02-05T21:57:31.000Z</time></trkpt>
        <trkpt lat="28.7993745" lon="105.9591746"><ele>863.72</ele><time>2026-02-05T21:57:41.000Z</time></trkpt>
        <trkpt lat="28.7992835" lon="105.9592187"><ele>864.72</ele><time>2026-02-05T21:57:51.000Z</time></trkpt>
        <trkpt lat="28.7991825" lon="105.959247"><ele>863.11</ele><time>2026-02-05T21:58:03.000Z</time></trkpt>
        <trkpt lat="28.7990811" lon="105.9592629"><ele>864.65</ele><time>2026-02-05T21:58:13.000Z</time></trkpt>
        <trkpt lat="28.7990391" lon="105.9593522"><ele>866.49</ele><time>2026-02-05T21:58:27.000Z</time></trkpt>
        <trkpt lat="28.7990478" lon="105.9594591"><ele>866.38</ele><time>2026-02-05T21:58:37.000Z</time></trkpt>
        <trkpt lat="28.7990744" lon="105.9595783"><ele>865.56</ele><time>2026-02-05T21:58:47.000Z</time></trkpt>
        <trkpt lat="28.7991242" lon="105.9596958"><ele>864</ele><time>2026-02-05T21:58:59.000Z</time></trkpt>
        <trkpt lat="28.7991755" lon="105.9598115"><ele>864.46</ele><time>2026-02-05T21:59:09.000Z</time></trkpt>
        <trkpt lat="28.7992424" lon="105.9599039"><ele>866.01</ele><time>2026-02-05T21:59:17.000Z</time></trkpt>
        <trkpt lat="28.7992637" lon="105.960002"><ele>867.11</ele><time>2026-02-05T21:59:27.000Z</time></trkpt>
        <trkpt lat="28.7992171" lon="105.9600795"><ele>868.03</ele><time>2026-02-05T21:59:35.000Z</time></trkpt>
        <trkpt lat="28.7991365" lon="105.9601683"><ele>868.36</ele><time>2026-02-05T21:59:45.000Z</time></trkpt>
        <trkpt lat="28.7990469" lon="105.960256"><ele>866.33</ele><time>2026-02-05T21:59:53.000Z</time></trkpt>
        <trkpt lat="28.7989395" lon="105.9603057"><ele>864.08</ele><time>2026-02-05T22:00:01.000Z</time></trkpt>
        <trkpt lat="28.798827" lon="105.9603379"><ele>862.2</ele><time>2026-02-05T22:00:11.000Z</time></trkpt>
        <trkpt lat="28.7987419" lon="105.9603923"><ele>860.82</ele><time>2026-02-05T22:00:17.000Z</time></trkpt>
        <trkpt lat="28.7986819" lon="105.9605054"><ele>857.43</ele><time>2026-02-05T22:00:25.000Z</time></trkpt>
        <trkpt lat="28.7986398" lon="105.9606314"><ele>853.37</ele><time>2026-02-05T22:00:31.000Z</time></trkpt>
        <trkpt lat="28.798588" lon="105.9607338"><ele>851.58</ele><time>2026-02-05T22:00:37.000Z</time></trkpt>
        <trkpt lat="28.7985325" lon="105.9608332"><ele>850.08</ele><time>2026-02-05T22:00:43.000Z</time></trkpt>
        <trkpt lat="28.7984549" lon="105.9608856"><ele>850.11</ele><time>2026-02-05T22:00:49.000Z</time></trkpt>
        <trkpt lat="28.79836" lon="105.9608943"><ele>853.62</ele><time>2026-02-05T22:00:59.000Z</time></trkpt>
        <trkpt lat="28.7982531" lon="105.9608927"><ele>859.35</ele><time>2026-02-05T22:01:09.000Z</time></trkpt>
        <trkpt lat="28.7981505" lon="105.9609031"><ele>864.35</ele><time>2026-02-05T22:01:17.000Z</time></trkpt>
        <trkpt lat="28.7980441" lon="105.9609175"><ele>866.82</ele><time>2026-02-05T22:01:25.000Z</time></trkpt>
        <trkpt lat="28.7979505" lon="105.9609582"><ele>866.8</ele><time>2026-02-05T22:01:33.000Z</time></trkpt>
        <trkpt lat="28.797856" lon="105.9609409"><ele>864.78</ele><time>2026-02-05T22:01:39.000Z</time></trkpt>
        <trkpt lat="28.797772" lon="105.9608855"><ele>862.89</ele><time>2026-02-05T22:01:45.000Z</time></trkpt>
        <trkpt lat="28.797673" lon="105.9608055"><ele>860.78</ele><time>2026-02-05T22:01:51.000Z</time></trkpt>
        <trkpt lat="28.7975893" lon="105.9607322"><ele>860.3</ele><time>2026-02-05T22:01:55.000Z</time></trkpt>
        <trkpt lat="28.7975071" lon="105.9606472"><ele>861.27</ele><time>2026-02-05T22:01:59.000Z</time></trkpt>
        <trkpt lat="28.7974296" lon="105.9605734"><ele>863.43</ele><time>2026-02-05T22:02:03.000Z</time></trkpt>
        <trkpt lat="28.7973307" lon="105.9605704"><ele>865.26</ele><time>2026-02-05T22:02:09.000Z</time></trkpt>
        <trkpt lat="28.7972122" lon="105.9605746"><ele>864.32</ele><time>2026-02-05T22:02:15.000Z</time></trkpt>
        <trkpt lat="28.7971178" lon="105.9605118"><ele>862.56</ele><time>2026-02-05T22:02:21.000Z</time></trkpt>
        <trkpt lat="28.7970209" lon="105.9604707"><ele>861.89</ele><time>2026-02-05T22:02:29.000Z</time></trkpt>
        <trkpt lat="28.7969352" lon="105.9604168"><ele>862.4</ele><time>2026-02-05T22:02:37.000Z</time></trkpt>
        <trkpt lat="28.7969137" lon="105.9603184"><ele>863.82</ele><time>2026-02-05T22:02:45.000Z</time></trkpt>
        <trkpt lat="28.7968805" lon="105.9601966"><ele>865.25</ele><time>2026-02-05T22:02:51.000Z</time></trkpt>
        <trkpt lat="28.7968162" lon="105.9600962"><ele>864.41</ele><time>2026-02-05T22:02:57.000Z</time></trkpt>
        <trkpt lat="28.7967269" lon="105.9600402"><ele>860.9</ele><time>2026-02-05T22:03:01.000Z</time></trkpt>
        <trkpt lat="28.796644" lon="105.9599749"><ele>857.41</ele><time>2026-02-05T22:03:07.000Z</time></trkpt>
        <trkpt lat="28.7965533" lon="105.959953"><ele>855.17</ele><time>2026-02-05T22:03:17.000Z</time></trkpt>
        <trkpt lat="28.7964545" lon="105.9599302"><ele>851.54</ele><time>2026-02-05T22:03:27.000Z</time></trkpt>
        <trkpt lat="28.7963667" lon="105.9598886"><ele>848.87</ele><time>2026-02-05T22:03:35.000Z</time></trkpt>
        <trkpt lat="28.7963135" lon="105.9597924"><ele>849.65</ele><time>2026-02-05T22:03:43.000Z</time></trkpt>
        <trkpt lat="28.7962596" lon="105.9596972"><ele>850.34</ele><time>2026-02-05T22:03:53.000Z</time></trkpt>
        <trkpt lat="28.7961802" lon="105.9596415"><ele>850.06</ele><time>2026-02-05T22:04:01.000Z</time></trkpt>
        <trkpt lat="28.7960734" lon="105.9596125"><ele>850.36</ele><time>2026-02-05T22:04:11.000Z</time></trkpt>
        <trkpt lat="28.7959616" lon="105.9596012"><ele>850.65</ele><time>2026-02-05T22:04:19.000Z</time></trkpt>
        <trkpt lat="28.7958662" lon="105.9595596"><ele>851.89</ele><time>2026-02-05T22:04:27.000Z</time></trkpt>
        <trkpt lat="28.7957715" lon="105.9595705"><ele>853.21</ele><time>2026-02-05T22:04:37.000Z</time></trkpt>
        <trkpt lat="28.7956691" lon="105.9595989"><ele>853.06</ele><time>2026-02-05T22:04:45.000Z</time></trkpt>
        <trkpt lat="28.7955693" lon="105.9596464"><ele>850.78</ele><time>2026-02-05T22:04:57.000Z</time></trkpt>
        <trkpt lat="28.7955281" lon="105.9597383"><ele>844.64</ele><time>2026-02-05T22:05:05.000Z</time></trkpt>
        <trkpt lat="28.7954813" lon="105.9598368"><ele>839.38</ele><time>2026-02-05T22:05:11.000Z</time></trkpt>
        <trkpt lat="28.7954049" lon="105.9598484"><ele>835.43</ele><time>2026-02-05T22:05:21.000Z</time></trkpt>
        <trkpt lat="28.7953039" lon="105.9598616"><ele>832.33</ele><time>2026-02-05T22:05:29.000Z</time></trkpt>
        <trkpt lat="28.7951987" lon="105.9598742"><ele>828.01</ele><time>2026-02-05T22:05:35.000Z</time></trkpt>
        <trkpt lat="28.7950916" lon="105.9598582"><ele>824.84</ele><time>2026-02-05T22:05:43.000Z</time></trkpt>
        <trkpt lat="28.7949966" lon="105.9598701"><ele>822.21</ele><time>2026-02-05T22:05:51.000Z</time></trkpt>
        <trkpt lat="28.7949055" lon="105.9598794"><ele>818.92</ele><time>2026-02-05T22:05:57.000Z</time></trkpt>
        <trkpt lat="28.7948081" lon="105.9598589"><ele>816.24</ele><time>2026-02-05T22:06:13.000Z</time></trkpt>
        <trkpt lat="28.7947284" lon="105.9598954"><ele>813.68</ele><time>2026-02-05T22:06:23.000Z</time></trkpt>
        <trkpt lat="28.7946414" lon="105.9599383"><ele>806.37</ele><time>2026-02-05T22:06:27.000Z</time></trkpt>
        <trkpt lat="28.7945278" lon="105.9599991"><ele>802.16</ele><time>2026-02-05T22:06:33.000Z</time></trkpt>
        <trkpt lat="28.794408" lon="105.9600378"><ele>797.69</ele><time>2026-02-05T22:06:39.000Z</time></trkpt>
        <trkpt lat="28.7943036" lon="105.960086"><ele>795.24</ele><time>2026-02-05T22:06:45.000Z</time></trkpt>
        <trkpt lat="28.7942134" lon="105.960156"><ele>791.66</ele><time>2026-02-05T22:06:51.000Z</time></trkpt>
        <trkpt lat="28.7940789" lon="105.960195"><ele>789.13</ele><time>2026-02-05T22:06:57.000Z</time></trkpt>
        <trkpt lat="28.7940052" lon="105.9602095"><ele>790.06</ele><time>2026-02-05T22:07:01.000Z</time></trkpt>
        <trkpt lat="28.7939057" lon="105.960243"><ele>790.73</ele><time>2026-02-05T22:07:39.000Z</time></trkpt>
        <trkpt lat="28.7938032" lon="105.960292"><ele>792.43</ele><time>2026-02-05T22:07:45.000Z</time></trkpt>
        <trkpt lat="28.7936923" lon="105.9603252"><ele>794.62</ele><time>2026-02-05T22:07:51.000Z</time></trkpt>
        <trkpt lat="28.7935946" lon="105.9603103"><ele>797.53</ele><time>2026-02-05T22:08:01.000Z</time></trkpt>
        <trkpt lat="28.7935859" lon="105.960203"><ele>797.32</ele><time>2026-02-05T22:08:09.000Z</time></trkpt>
        <trkpt lat="28.7935723" lon="105.9600772"><ele>794.78</ele><time>2026-02-05T22:08:15.000Z</time></trkpt>
        <trkpt lat="28.793565" lon="105.9599492"><ele>790.16</ele><time>2026-02-05T22:08:23.000Z</time></trkpt>
        <trkpt lat="28.7935368" lon="105.9598228"><ele>784.14</ele><time>2026-02-05T22:08:29.000Z</time></trkpt>
        <trkpt lat="28.7934561" lon="105.9597602"><ele>780.53</ele><time>2026-02-05T22:08:35.000Z</time></trkpt>
        <trkpt lat="28.7933566" lon="105.9597591"><ele>778.05</ele><time>2026-02-05T22:08:41.000Z</time></trkpt>
        <trkpt lat="28.7932413" lon="105.9597534"><ele>773.55</ele><time>2026-02-05T22:08:47.000Z</time></trkpt>
        <trkpt lat="28.7931233" lon="105.9597529"><ele>770.46</ele><time>2026-02-05T22:08:55.000Z</time></trkpt>
        <trkpt lat="28.7930185" lon="105.9597728"><ele>765.94</ele><time>2026-02-05T22:09:01.000Z</time></trkpt>
        <trkpt lat="28.7929066" lon="105.9597923"><ele>760.63</ele><time>2026-02-05T22:09:07.000Z</time></trkpt>
        <trkpt lat="28.7928044" lon="105.9597746"><ele>757.04</ele><time>2026-02-05T22:09:13.000Z</time></trkpt>
        <trkpt lat="28.7927356" lon="105.9596639"><ele>754.76</ele><time>2026-02-05T22:09:23.000Z</time></trkpt>
        <trkpt lat="28.7926567" lon="105.9595591"><ele>752.09</ele><time>2026-02-05T22:09:35.000Z</time></trkpt>
        <trkpt lat="28.7926564" lon="105.9594502"><ele>748.3</ele><time>2026-02-05T22:09:45.000Z</time></trkpt>
        <trkpt lat="28.7926436" lon="105.9593322"><ele>742.52</ele><time>2026-02-05T22:10:01.000Z</time></trkpt>
        <trkpt lat="28.7925708" lon="105.9592522"><ele>736.22</ele><time>2026-02-05T22:10:09.000Z</time></trkpt>
        <trkpt lat="28.792457" lon="105.959184"><ele>732.05</ele><time>2026-02-05T22:10:15.000Z</time></trkpt>
        <trkpt lat="28.7923537" lon="105.9590795"><ele>730.24</ele><time>2026-02-05T22:10:19.000Z</time></trkpt>
        <trkpt lat="28.7922693" lon="105.9589645"><ele>731.48</ele><time>2026-02-05T22:10:23.000Z</time></trkpt>
        <trkpt lat="28.7922108" lon="105.9588664"><ele>732.58</ele><time>2026-02-05T22:10:29.000Z</time></trkpt>
        <trkpt lat="28.7921413" lon="105.9587626"><ele>732.38</ele><time>2026-02-05T22:10:37.000Z</time></trkpt>
        <trkpt lat="28.7920689" lon="105.9586724"><ele>731.55</ele><time>2026-02-05T22:10:41.000Z</time></trkpt>
        <trkpt lat="28.7920291" lon="105.9585685"><ele>731.29</ele><time>2026-02-05T22:10:51.000Z</time></trkpt>
        <trkpt lat="28.792045" lon="105.9584542"><ele>728.25</ele><time>2026-02-05T22:11:09.000Z</time></trkpt>
        <trkpt lat="28.7920137" lon="105.9583545"><ele>722.04</ele><time>2026-02-05T22:11:19.000Z</time></trkpt>
        <trkpt lat="28.7919515" lon="105.9582778"><ele>717.12</ele><time>2026-02-05T22:11:27.000Z</time></trkpt>
        <trkpt lat="28.7918925" lon="105.958164"><ele>713.1</ele><time>2026-02-05T22:11:33.000Z</time></trkpt>
        <trkpt lat="28.7918569" lon="105.958045"><ele>710.24</ele><time>2026-02-05T22:11:39.000Z</time></trkpt>
        <trkpt lat="28.7918222" lon="105.9579127"><ele>708.78</ele><time>2026-02-05T22:11:45.000Z</time></trkpt>
        <trkpt lat="28.791815" lon="105.9577607"><ele>706.58</ele><time>2026-02-05T22:11:51.000Z</time></trkpt>
        <trkpt lat="28.7917742" lon="105.9576293"><ele>704.91</ele><time>2026-02-05T22:11:57.000Z</time></trkpt>
        <trkpt lat="28.7917651" lon="105.9575097"><ele>702.17</ele><time>2026-02-05T22:12:03.000Z</time></trkpt>
        <trkpt lat="28.7917349" lon="105.9573885"><ele>700.4</ele><time>2026-02-05T22:12:09.000Z</time></trkpt>
        <trkpt lat="28.7916971" lon="105.9572433"><ele>699.79</ele><time>2026-02-05T22:12:15.000Z</time></trkpt>
        <trkpt lat="28.7916088" lon="105.9571576"><ele>700.5</ele><time>2026-02-05T22:12:19.000Z</time></trkpt>
        <trkpt lat="28.791537" lon="105.9570717"><ele>702.18</ele><time>2026-02-05T22:12:23.000Z</time></trkpt>
        <trkpt lat="28.7915329" lon="105.9569727"><ele>703.39</ele><time>2026-02-05T22:12:29.000Z</time></trkpt>
        <trkpt lat="28.7915899" lon="105.9568944"><ele>701.97</ele><time>2026-02-05T22:12:33.000Z</time></trkpt>
        <trkpt lat="28.7916374" lon="105.9567996"><ele>700.37</ele><time>2026-02-05T22:12:41.000Z</time></trkpt>
        <trkpt lat="28.7916631" lon="105.9566979"><ele>701.06</ele><time>2026-02-05T22:12:47.000Z</time></trkpt>
        <trkpt lat="28.791695" lon="105.9565937"><ele>699.22</ele><time>2026-02-05T22:12:53.000Z</time></trkpt>
        <trkpt lat="28.7917122" lon="105.9564755"><ele>697.04</ele><time>2026-02-05T22:13:03.000Z</time></trkpt>
        <trkpt lat="28.7917018" lon="105.9563587"><ele>694.33</ele><time>2026-02-05T22:13:11.000Z</time></trkpt>
        <trkpt lat="28.7916737" lon="105.9562461"><ele>690.13</ele><time>2026-02-05T22:13:23.000Z</time></trkpt>
        <trkpt lat="28.7916769" lon="105.9561235"><ele>688.15</ele><time>2026-02-05T22:13:31.000Z</time></trkpt>
        <trkpt lat="28.7917393" lon="105.9560181"><ele>685.44</ele><time>2026-02-05T22:13:39.000Z</time></trkpt>
        <trkpt lat="28.7917262" lon="105.9559071"><ele>682.09</ele><time>2026-02-05T22:13:47.000Z</time></trkpt>
        <trkpt lat="28.7916449" lon="105.9558354"><ele>681.75</ele><time>2026-02-05T22:13:55.000Z</time></trkpt>
        <trkpt lat="28.7915887" lon="105.9558089"><ele>681.45</ele><time>2026-02-05T22:13:59.000Z</time></trkpt>
        <trkpt lat="28.7915253" lon="105.9557411"><ele>681.24</ele><time>2026-02-05T22:14:09.000Z</time></trkpt>
        <trkpt lat="28.791471" lon="105.955652"><ele>681.15</ele><time>2026-02-05T22:14:17.000Z</time></trkpt>
        <trkpt lat="28.7914045" lon="105.9555721"><ele>680.97</ele><time>2026-02-05T22:14:25.000Z</time></trkpt>
        <trkpt lat="28.7913256" lon="105.9555175"><ele>680.68</ele><time>2026-02-05T22:14:31.000Z</time></trkpt>
        <trkpt lat="28.7912348" lon="105.9554643"><ele>680.35</ele><time>2026-02-05T22:14:37.000Z</time></trkpt>
        <trkpt lat="28.7911576" lon="105.9554001"><ele>681.27</ele><time>2026-02-05T22:14:43.000Z</time></trkpt>
        <trkpt lat="28.7911279" lon="105.9552938"><ele>684.37</ele><time>2026-02-05T22:14:51.000Z</time></trkpt>
        <trkpt lat="28.7910806" lon="105.9551904"><ele>684.39</ele><time>2026-02-05T22:14:59.000Z</time></trkpt>
        <trkpt lat="28.7910014" lon="105.9551213"><ele>684.62</ele><time>2026-02-05T22:15:07.000Z</time></trkpt>
        <trkpt lat="28.7909064" lon="105.9550641"><ele>683.66</ele><time>2026-02-05T22:15:17.000Z</time></trkpt>
        <trkpt lat="28.7908092" lon="105.9550812"><ele>684.49</ele><time>2026-02-05T22:15:25.000Z</time></trkpt>
        <trkpt lat="28.790737" lon="105.955007"><ele>682.98</ele><time>2026-02-05T22:15:31.000Z</time></trkpt>
        <trkpt lat="28.7907163" lon="105.9548959"><ele>682.06</ele><time>2026-02-05T22:15:35.000Z</time></trkpt>
        <trkpt lat="28.7907408" lon="105.954782"><ele>681.39</ele><time>2026-02-05T22:15:41.000Z</time></trkpt>
        <trkpt lat="28.7907667" lon="105.954638"><ele>678.65</ele><time>2026-02-05T22:15:47.000Z</time></trkpt>
        <trkpt lat="28.790787" lon="105.9545157"><ele>676.71</ele><time>2026-02-05T22:15:51.000Z</time></trkpt>
        <trkpt lat="28.7907962" lon="105.9544073"><ele>677.09</ele><time>2026-02-05T22:15:57.000Z</time></trkpt>
        <trkpt lat="28.7907861" lon="105.9542941"><ele>676.48</ele><time>2026-02-05T22:16:05.000Z</time></trkpt>
        <trkpt lat="28.7907064" lon="105.9542312"><ele>676.08</ele><time>2026-02-05T22:16:15.000Z</time></trkpt>
        <trkpt lat="28.7905901" lon="105.9542114"><ele>674.45</ele><time>2026-02-05T22:16:23.000Z</time></trkpt>
        <trkpt lat="28.790484" lon="105.9542054"><ele>673.35</ele><time>2026-02-05T22:16:29.000Z</time></trkpt>
        <trkpt lat="28.7903943" lon="105.9541718"><ele>671.72</ele><time>2026-02-05T22:16:35.000Z</time></trkpt>
        <trkpt lat="28.7902839" lon="105.9541098"><ele>670.56</ele><time>2026-02-05T22:16:43.000Z</time></trkpt>
        <trkpt lat="28.7901733" lon="105.9540493"><ele>668.17</ele><time>2026-02-05T22:16:49.000Z</time></trkpt>
        <trkpt lat="28.7900824" lon="105.9539456"><ele>666.8</ele><time>2026-02-05T22:16:55.000Z</time></trkpt>
        <trkpt lat="28.7900224" lon="105.9538372"><ele>665.7</ele><time>2026-02-05T22:16:59.000Z</time></trkpt>
        <trkpt lat="28.7899563" lon="105.9537349"><ele>665.82</ele><time>2026-02-05T22:17:03.000Z</time></trkpt>
        <trkpt lat="28.7899158" lon="105.9536325"><ele>666.55</ele><time>2026-02-05T22:17:09.000Z</time></trkpt>
        <trkpt lat="28.7898618" lon="105.9535278"><ele>666.96</ele><time>2026-02-05T22:17:17.000Z</time></trkpt>
        <trkpt lat="28.7897877" lon="105.9534346"><ele>666.86</ele><time>2026-02-05T22:17:25.000Z</time></trkpt>
        <trkpt lat="28.7896877" lon="105.9533891"><ele>666.64</ele><time>2026-02-05T22:17:33.000Z</time></trkpt>
        <trkpt lat="28.7895884" lon="105.9533316"><ele>665.8</ele><time>2026-02-05T22:17:41.000Z</time></trkpt>
        <trkpt lat="28.7895005" lon="105.9532678"><ele>665.89</ele><time>2026-02-05T22:17:47.000Z</time></trkpt>
        <trkpt lat="28.7893854" lon="105.9532295"><ele>665.34</ele><time>2026-02-05T22:17:53.000Z</time></trkpt>
        <trkpt lat="28.7892826" lon="105.9531774"><ele>664.19</ele><time>2026-02-05T22:17:57.000Z</time></trkpt>
        <trkpt lat="28.7892398" lon="105.9530431"><ele>664.6</ele><time>2026-02-05T22:18:01.000Z</time></trkpt>
        <trkpt lat="28.7892385" lon="105.9529087"><ele>666.09</ele><time>2026-02-05T22:18:05.000Z</time></trkpt>
        <trkpt lat="28.7892493" lon="105.9527676"><ele>667.21</ele><time>2026-02-05T22:18:11.000Z</time></trkpt>
        <trkpt lat="28.7892197" lon="105.9526486"><ele>667.78</ele><time>2026-02-05T22:18:19.000Z</time></trkpt>
        <trkpt lat="28.7891464" lon="105.9525332"><ele>667.74</ele><time>2026-02-05T22:18:25.000Z</time></trkpt>
        <trkpt lat="28.7890724" lon="105.9524446"><ele>667.07</ele><time>2026-02-05T22:18:29.000Z</time></trkpt>
        <trkpt lat="28.7889898" lon="105.9523777"><ele>666.29</ele><time>2026-02-05T22:18:33.000Z</time></trkpt>
        <trkpt lat="28.788881" lon="105.9523629"><ele>665.43</ele><time>2026-02-05T22:18:37.000Z</time></trkpt>
        <trkpt lat="28.7887754" lon="105.9523806"><ele>664.72</ele><time>2026-02-05T22:18:41.000Z</time></trkpt>
        <trkpt lat="28.7886938" lon="105.9523395"><ele>665.54</ele><time>2026-02-05T22:18:45.000Z</time></trkpt>
        <trkpt lat="28.7886969" lon="105.9522295"><ele>666.46</ele><time>2026-02-05T22:18:49.000Z</time></trkpt>
        <trkpt lat="28.7887912" lon="105.9521372"><ele>665.67</ele><time>2026-02-05T22:18:53.000Z</time></trkpt>
        <trkpt lat="28.7888798" lon="105.9520564"><ele>664.01</ele><time>2026-02-05T22:18:57.000Z</time></trkpt>
        <trkpt lat="28.7889625" lon="105.951975"><ele>662.65</ele><time>2026-02-05T22:19:01.000Z</time></trkpt>
        <trkpt lat="28.789007" lon="105.9518718"><ele>661.01</ele><time>2026-02-05T22:19:07.000Z</time></trkpt>
        <trkpt lat="28.7890267" lon="105.951759"><ele>658.81</ele><time>2026-02-05T22:19:11.000Z</time></trkpt>
        <trkpt lat="28.7890312" lon="105.951637"><ele>657.52</ele><time>2026-02-05T22:19:17.000Z</time></trkpt>
        <trkpt lat="28.7890718" lon="105.9515026"><ele>655.58</ele><time>2026-02-05T22:19:23.000Z</time></trkpt>
        <trkpt lat="28.7891275" lon="105.9513721"><ele>653.54</ele><time>2026-02-05T22:19:29.000Z</time></trkpt>
        <trkpt lat="28.7891771" lon="105.9512493"><ele>650.56</ele><time>2026-02-05T22:19:33.000Z</time></trkpt>
        <trkpt lat="28.7891586" lon="105.9511215"><ele>648.62</ele><time>2026-02-05T22:19:37.000Z</time></trkpt>
        <trkpt lat="28.7891048" lon="105.9509968"><ele>646.84</ele><time>2026-02-05T22:19:41.000Z</time></trkpt>
        <trkpt lat="28.789075" lon="105.9508505"><ele>645.9</ele><time>2026-02-05T22:19:45.000Z</time></trkpt>
        <trkpt lat="28.7891513" lon="105.9507734"><ele>645.05</ele><time>2026-02-05T22:19:51.000Z</time></trkpt>
        <trkpt lat="28.7892503" lon="105.9507797"><ele>642.87</ele><time>2026-02-05T22:19:55.000Z</time></trkpt>
        <trkpt lat="28.7893633" lon="105.9507569"><ele>641.75</ele><time>2026-02-05T22:20:01.000Z</time></trkpt>
        <trkpt lat="28.7894563" lon="105.9507069"><ele>639.11</ele><time>2026-02-05T22:20:05.000Z</time></trkpt>
        <trkpt lat="28.7895439" lon="105.9506198"><ele>637.1</ele><time>2026-02-05T22:20:11.000Z</time></trkpt>
        <trkpt lat="28.789623" lon="105.9505267"><ele>633.53</ele><time>2026-02-05T22:20:17.000Z</time></trkpt>
        <trkpt lat="28.78973" lon="105.9504729"><ele>629.75</ele><time>2026-02-05T22:20:23.000Z</time></trkpt>
        <trkpt lat="28.7898314" lon="105.9504016"><ele>626.45</ele><time>2026-02-05T22:20:29.000Z</time></trkpt>
        <trkpt lat="28.7899417" lon="105.9503573"><ele>622.9</ele><time>2026-02-05T22:20:35.000Z</time></trkpt>
        <trkpt lat="28.7900628" lon="105.9503318"><ele>620.2</ele><time>2026-02-05T22:20:41.000Z</time></trkpt>
        <trkpt lat="28.7901628" lon="105.9503356"><ele>616.09</ele><time>2026-02-05T22:20:45.000Z</time></trkpt>
        <trkpt lat="28.7902848" lon="105.9503622"><ele>612.39</ele><time>2026-02-05T22:20:51.000Z</time></trkpt>
        <trkpt lat="28.7903843" lon="105.9503835"><ele>608.88</ele><time>2026-02-05T22:20:55.000Z</time></trkpt>
        <trkpt lat="28.7904886" lon="105.9503573"><ele>606.15</ele><time>2026-02-05T22:21:01.000Z</time></trkpt>
        <trkpt lat="28.7905928" lon="105.950324"><ele>603.1</ele><time>2026-02-05T22:21:07.000Z</time></trkpt>
        <trkpt lat="28.7906861" lon="105.9502886"><ele>599.37</ele><time>2026-02-05T22:21:13.000Z</time></trkpt>
        <trkpt lat="28.7907833" lon="105.9502591"><ele>595.12</ele><time>2026-02-05T22:21:19.000Z</time></trkpt>
        <trkpt lat="28.7908957" lon="105.9502531"><ele>591.07</ele><time>2026-02-05T22:21:25.000Z</time></trkpt>
        <trkpt lat="28.7909673" lon="105.9501899"><ele>590.16</ele><time>2026-02-05T22:21:31.000Z</time></trkpt>
        <trkpt lat="28.7910096" lon="105.950082"><ele>589.88</ele><time>2026-02-05T22:21:37.000Z</time></trkpt>
        <trkpt lat="28.7910611" lon="105.9499556"><ele>588.5</ele><time>2026-02-05T22:21:43.000Z</time></trkpt>
        <trkpt lat="28.7910975" lon="105.9498191"><ele>586.89</ele><time>2026-02-05T22:21:49.000Z</time></trkpt>
        <trkpt lat="28.7911149" lon="105.9496805"><ele>584.8</ele><time>2026-02-05T22:21:55.000Z</time></trkpt>
        <trkpt lat="28.7911169" lon="105.9495267"><ele>582.21</ele><time>2026-02-05T22:22:01.000Z</time></trkpt>
        <trkpt lat="28.7911643" lon="105.9494051"><ele>579.78</ele><time>2026-02-05T22:22:05.000Z</time></trkpt>
        <trkpt lat="28.7912133" lon="105.9492922"><ele>578</ele><time>2026-02-05T22:22:09.000Z</time></trkpt>
        <trkpt lat="28.7912673" lon="105.9491867"><ele>575.99</ele><time>2026-02-05T22:22:13.000Z</time></trkpt>
        <trkpt lat="28.791317" lon="105.9490911"><ele>575.46</ele><time>2026-02-05T22:22:17.000Z</time></trkpt>
        <trkpt lat="28.7913575" lon="105.9489955"><ele>576.28</ele><time>2026-02-05T22:22:23.000Z</time></trkpt>
        <trkpt lat="28.7913988" lon="105.9488887"><ele>577.3</ele><time>2026-02-05T22:22:31.000Z</time></trkpt>
        <trkpt lat="28.791457" lon="105.9488075"><ele>577.59</ele><time>2026-02-05T22:22:37.000Z</time></trkpt>
        <trkpt lat="28.7915287" lon="105.9487169"><ele>578.45</ele><time>2026-02-05T22:22:45.000Z</time></trkpt>
        <trkpt lat="28.7915962" lon="105.9486378"><ele>579.25</ele><time>2026-02-05T22:22:51.000Z</time></trkpt>
        <trkpt lat="28.7916721" lon="105.9485699"><ele>580.49</ele><time>2026-02-05T22:22:57.000Z</time></trkpt>
        <trkpt lat="28.7917644" lon="105.9484951"><ele>581.11</ele><time>2026-02-05T22:23:05.000Z</time></trkpt>
        <trkpt lat="28.7918474" lon="105.9484162"><ele>581.25</ele><time>2026-02-05T22:23:11.000Z</time></trkpt>
        <trkpt lat="28.7919337" lon="105.948343"><ele>579.27</ele><time>2026-02-05T22:23:15.000Z</time></trkpt>
        <trkpt lat="28.7920158" lon="105.9482759"><ele>577.9</ele><time>2026-02-05T22:23:19.000Z</time></trkpt>
        <trkpt lat="28.7921046" lon="105.9482196"><ele>576.74</ele><time>2026-02-05T22:23:23.000Z</time></trkpt>
        <trkpt lat="28.7922008" lon="105.9481876"><ele>576.24</ele><time>2026-02-05T22:23:27.000Z</time></trkpt>
        <trkpt lat="28.7922982" lon="105.9482277"><ele>576.5</ele><time>2026-02-05T22:23:33.000Z</time></trkpt>
        <trkpt lat="28.7923991" lon="105.9483006"><ele>577.99</ele><time>2026-02-05T22:23:41.000Z</time></trkpt>
        <trkpt lat="28.7924966" lon="105.948347"><ele>579.15</ele><time>2026-02-05T22:23:47.000Z</time></trkpt>
        <trkpt lat="28.7926077" lon="105.948346"><ele>579.64</ele><time>2026-02-05T22:23:55.000Z</time></trkpt>
        <trkpt lat="28.792711" lon="105.9482839"><ele>579.17</ele><time>2026-02-05T22:24:03.000Z</time></trkpt>
        <trkpt lat="28.7927801" lon="105.9481939"><ele>577.62</ele><time>2026-02-05T22:24:09.000Z</time></trkpt>
        <trkpt lat="28.7928435" lon="105.9481045"><ele>576.35</ele><time>2026-02-05T22:24:15.000Z</time></trkpt>
        <trkpt lat="28.7929053" lon="105.9479992"><ele>575.84</ele><time>2026-02-05T22:24:23.000Z</time></trkpt>
        <trkpt lat="28.7929408" lon="105.9479888"><ele>575.87</ele><time>2026-02-05T22:24:35.000Z</time></trkpt>
        <trkpt lat="28.7929316" lon="105.9479048"><ele>577.7</ele><time>2026-02-05T22:24:51.000Z</time></trkpt>
        <trkpt lat="28.7929679" lon="105.9478002"><ele>577.53</ele><time>2026-02-05T22:24:57.000Z</time></trkpt>
        <trkpt lat="28.7930447" lon="105.9477058"><ele>576.87</ele><time>2026-02-05T22:25:03.000Z</time></trkpt>
        <trkpt lat="28.7931177" lon="105.9476255"><ele>576.97</ele><time>2026-02-05T22:25:09.000Z</time></trkpt>
        <trkpt lat="28.7931793" lon="105.9475306"><ele>576.89</ele><time>2026-02-05T22:25:17.000Z</time></trkpt>
        <trkpt lat="28.7932185" lon="105.9474192"><ele>576.61</ele><time>2026-02-05T22:25:25.000Z</time></trkpt>
        <trkpt lat="28.7932664" lon="105.9473029"><ele>576.36</ele><time>2026-02-05T22:25:33.000Z</time></trkpt>
        <trkpt lat="28.7933032" lon="105.9471846"><ele>576.71</ele><time>2026-02-05T22:25:41.000Z</time></trkpt>
        <trkpt lat="28.7933584" lon="105.9470749"><ele>576.92</ele><time>2026-02-05T22:25:49.000Z</time></trkpt>
        <trkpt lat="28.7934394" lon="105.9469885"><ele>577.11</ele><time>2026-02-05T22:25:57.000Z</time></trkpt>
        <trkpt lat="28.7935214" lon="105.9468991"><ele>577.19</ele><time>2026-02-05T22:26:05.000Z</time></trkpt>
        <trkpt lat="28.7936043" lon="105.9468192"><ele>577.27</ele><time>2026-02-05T22:26:13.000Z</time></trkpt>
        <trkpt lat="28.7936944" lon="105.9467667"><ele>577.19</ele><time>2026-02-05T22:26:21.000Z</time></trkpt>
        <trkpt lat="28.7937177" lon="105.946757"><ele>577.88</ele><time>2026-02-05T22:26:23.000Z</time></trkpt>
        <trkpt lat="28.7937807" lon="105.9466976"><ele>578.32</ele><time>2026-02-05T22:26:55.000Z</time></trkpt>
        <trkpt lat="28.7937766" lon="105.9465947"><ele>579.19</ele><time>2026-02-05T22:27:03.000Z</time></trkpt>
        <trkpt lat="28.793823" lon="105.9465177"><ele>578.97</ele><time>2026-02-05T22:27:11.000Z</time></trkpt>
        <trkpt lat="28.7938986" lon="105.9464514"><ele>578.74</ele><time>2026-02-05T22:27:21.000Z</time></trkpt>
        <trkpt lat="28.7939735" lon="105.9463664"><ele>577.87</ele><time>2026-02-05T22:27:33.000Z</time></trkpt>
        <trkpt lat="28.7940604" lon="105.9462976"><ele>574.83</ele><time>2026-02-05T22:27:45.000Z</time></trkpt>
        <trkpt lat="28.7941479" lon="105.9462349"><ele>569.96</ele><time>2026-02-05T22:27:53.000Z</time></trkpt>
        <trkpt lat="28.7942337" lon="105.94617"><ele>565.78</ele><time>2026-02-05T22:28:05.000Z</time></trkpt>
        <trkpt lat="28.7943254" lon="105.9461308"><ele>561.46</ele><time>2026-02-05T22:28:17.000Z</time></trkpt>
        <trkpt lat="28.7944144" lon="105.9460949"><ele>557.08</ele><time>2026-02-05T22:28:25.000Z</time></trkpt>
        <trkpt lat="28.7945076" lon="105.9460522"><ele>553.24</ele><time>2026-02-05T22:28:33.000Z</time></trkpt>
        <trkpt lat="28.7946091" lon="105.9459871"><ele>549.51</ele><time>2026-02-05T22:28:41.000Z</time></trkpt>
        <trkpt lat="28.7946892" lon="105.9459208"><ele>545.17</ele><time>2026-02-05T22:28:47.000Z</time></trkpt>
        <trkpt lat="28.7947683" lon="105.9458462"><ele>541.71</ele><time>2026-02-05T22:28:55.000Z</time></trkpt>
        <trkpt lat="28.7948238" lon="105.9457549"><ele>538.7</ele><time>2026-02-05T22:29:03.000Z</time></trkpt>
        <trkpt lat="28.7948915" lon="105.9456492"><ele>535.52</ele><time>2026-02-05T22:29:11.000Z</time></trkpt>
        <trkpt lat="28.794954" lon="105.945543"><ele>533.78</ele><time>2026-02-05T22:29:17.000Z</time></trkpt>
        <trkpt lat="28.7950205" lon="105.9454581"><ele>533.95</ele><time>2026-02-05T22:29:23.000Z</time></trkpt>
        <trkpt lat="28.7950678" lon="105.9453489"><ele>533.63</ele><time>2026-02-05T22:29:31.000Z</time></trkpt>
        <trkpt lat="28.7950984" lon="105.9452377"><ele>532.6</ele><time>2026-02-05T22:29:45.000Z</time></trkpt>
        <trkpt lat="28.7951321" lon="105.9451336"><ele>527.19</ele><time>2026-02-05T22:29:55.000Z</time></trkpt>
        <trkpt lat="28.7951778" lon="105.9450441"><ele>521.83</ele><time>2026-02-05T22:30:07.000Z</time></trkpt>
        <trkpt lat="28.7952348" lon="105.9449446"><ele>515.72</ele><time>2026-02-05T22:30:17.000Z</time></trkpt>
        <trkpt lat="28.7952811" lon="105.9448357"><ele>510.11</ele><time>2026-02-05T22:30:27.000Z</time></trkpt>
        <trkpt lat="28.7953249" lon="105.9447378"><ele>504.76</ele><time>2026-02-05T22:30:33.000Z</time></trkpt>
        <trkpt lat="28.7953831" lon="105.9446462"><ele>501.15</ele><time>2026-02-05T22:30:45.000Z</time></trkpt>
        <trkpt lat="28.7954424" lon="105.9445547"><ele>496.89</ele><time>2026-02-05T22:30:57.000Z</time></trkpt>
        <trkpt lat="28.7954981" lon="105.9444689"><ele>491.43</ele><time>2026-02-05T22:31:05.000Z</time></trkpt>
        <trkpt lat="28.7955668" lon="105.9443768"><ele>486.22</ele><time>2026-02-05T22:31:13.000Z</time></trkpt>
        <trkpt lat="28.7956482" lon="105.9442759"><ele>482.13</ele><time>2026-02-05T22:31:21.000Z</time></trkpt>
        <trkpt lat="28.7957247" lon="105.9441838"><ele>479.27</ele><time>2026-02-05T22:31:29.000Z</time></trkpt>
        <trkpt lat="28.7957867" lon="105.9441"><ele>476.98</ele><time>2026-02-05T22:31:35.000Z</time></trkpt>
        <trkpt lat="28.7957898" lon="105.9439977"><ele>476.54</ele><time>2026-02-05T22:31:45.000Z</time></trkpt>
        <trkpt lat="28.7957829" lon="105.9438882"><ele>475.17</ele><time>2026-02-05T22:31:55.000Z</time></trkpt>
        <trkpt lat="28.7958515" lon="105.9438529"><ele>472.93</ele><time>2026-02-05T22:32:05.000Z</time></trkpt>
        <trkpt lat="28.7959605" lon="105.9438337"><ele>468.97</ele><time>2026-02-05T22:32:11.000Z</time></trkpt>
        <trkpt lat="28.7960499" lon="105.9437704"><ele>466.88</ele><time>2026-02-05T22:32:19.000Z</time></trkpt>
        <trkpt lat="28.7961224" lon="105.9436987"><ele>464.33</ele><time>2026-02-05T22:32:23.000Z</time></trkpt>
        <trkpt lat="28.7961989" lon="105.9435977"><ele>462.42</ele><time>2026-02-05T22:32:29.000Z</time></trkpt>
        <trkpt lat="28.7962748" lon="105.9434836"><ele>461.15</ele><time>2026-02-05T22:32:37.000Z</time></trkpt>
        <trkpt lat="28.7963453" lon="105.9433934"><ele>460.03</ele><time>2026-02-05T22:32:45.000Z</time></trkpt>
        <trkpt lat="28.7964314" lon="105.9433219"><ele>459.86</ele><time>2026-02-05T22:32:53.000Z</time></trkpt>
        <trkpt lat="28.7964964" lon="105.9432317"><ele>459.15</ele><time>2026-02-05T22:33:01.000Z</time></trkpt>
        <trkpt lat="28.7965858" lon="105.9431775"><ele>458.82</ele><time>2026-02-05T22:33:09.000Z</time></trkpt>
        <trkpt lat="28.7966548" lon="105.9431069"><ele>459.76</ele><time>2026-02-05T22:33:17.000Z</time></trkpt>
        <trkpt lat="28.7967443" lon="105.9430566"><ele>459.34</ele><time>2026-02-05T22:33:27.000Z</time></trkpt>
        <trkpt lat="28.7968342" lon="105.943029"><ele>456.4</ele><time>2026-02-05T22:33:33.000Z</time></trkpt>
        <trkpt lat="28.7969267" lon="105.9430349"><ele>454.84</ele><time>2026-02-05T22:33:39.000Z</time></trkpt>
        <trkpt lat="28.797009" lon="105.9429546"><ele>452.47</ele><time>2026-02-05T22:33:47.000Z</time></trkpt>
        <trkpt lat="28.7970374" lon="105.9428506"><ele>449.59</ele><time>2026-02-05T22:33:51.000Z</time></trkpt>
        <trkpt lat="28.7970488" lon="105.9427401"><ele>447.74</ele><time>2026-02-05T22:33:55.000Z</time></trkpt>
        <trkpt lat="28.797061" lon="105.9426262"><ele>446.78</ele><time>2026-02-05T22:33:59.000Z</time></trkpt>
        <trkpt lat="28.7970562" lon="105.9425141"><ele>446.07</ele><time>2026-02-05T22:34:03.000Z</time></trkpt>
        <trkpt lat="28.7970126" lon="105.9423826"><ele>445.37</ele><time>2026-02-05T22:34:09.000Z</time></trkpt>
        <trkpt lat="28.7970069" lon="105.9422661"><ele>444.41</ele><time>2026-02-05T22:34:13.000Z</time></trkpt>
        <trkpt lat="28.7970586" lon="105.9421678"><ele>443.41</ele><time>2026-02-05T22:34:17.000Z</time></trkpt>
        <trkpt lat="28.7971487" lon="105.9421196"><ele>443.12</ele><time>2026-02-05T22:34:23.000Z</time></trkpt>
        <trkpt lat="28.7972546" lon="105.9420801"><ele>443.06</ele><time>2026-02-05T22:34:31.000Z</time></trkpt>
        <trkpt lat="28.7973538" lon="105.9420154"><ele>442.46</ele><time>2026-02-05T22:34:39.000Z</time></trkpt>
        <trkpt lat="28.7974505" lon="105.941942"><ele>442.2</ele><time>2026-02-05T22:34:47.000Z</time></trkpt>
        <trkpt lat="28.7975307" lon="105.9418503"><ele>441.98</ele><time>2026-02-05T22:34:55.000Z</time></trkpt>
        <trkpt lat="28.7975994" lon="105.9417454"><ele>441.88</ele><time>2026-02-05T22:35:03.000Z</time></trkpt>
        <trkpt lat="28.7976326" lon="105.9416619"><ele>441.89</ele><time>2026-02-05T22:35:11.000Z</time></trkpt>
        <trkpt lat="28.7976656" lon="105.9415529"><ele>441.58</ele><time>2026-02-05T22:35:25.000Z</time></trkpt>
        <trkpt lat="28.7977169" lon="105.9414176"><ele>440.49</ele><time>2026-02-05T22:35:31.000Z</time></trkpt>
        <trkpt lat="28.797775" lon="105.9413196"><ele>437.6</ele><time>2026-02-05T22:35:35.000Z</time></trkpt>
        <trkpt lat="28.7978337" lon="105.9412045"><ele>435.4</ele><time>2026-02-05T22:35:39.000Z</time></trkpt>
        <trkpt lat="28.7978859" lon="105.9411033"><ele>434.71</ele><time>2026-02-05T22:35:43.000Z</time></trkpt>
        <trkpt lat="28.7979525" lon="105.9410172"><ele>433.07</ele><time>2026-02-05T22:35:47.000Z</time></trkpt>
        <trkpt lat="28.7980344" lon="105.9409491"><ele>432.18</ele><time>2026-02-05T22:35:51.000Z</time></trkpt>
        <trkpt lat="28.7981186" lon="105.9408569"><ele>432.14</ele><time>2026-02-05T22:35:57.000Z</time></trkpt>
        <trkpt lat="28.7981665" lon="105.9407559"><ele>430.33</ele><time>2026-02-05T22:36:01.000Z</time></trkpt>
        <trkpt lat="28.7982077" lon="105.9406589"><ele>428.69</ele><time>2026-02-05T22:36:05.000Z</time></trkpt>
        <trkpt lat="28.7982747" lon="105.9405541"><ele>426.94</ele><time>2026-02-05T22:36:11.000Z</time></trkpt>
        <trkpt lat="28.7983587" lon="105.9404461"><ele>425.19</ele><time>2026-02-05T22:36:17.000Z</time></trkpt>
        <trkpt lat="28.7984763" lon="105.9404234"><ele>422.97</ele><time>2026-02-05T22:36:23.000Z</time></trkpt>
        <trkpt lat="28.7985999" lon="105.9404539"><ele>420.55</ele><time>2026-02-05T22:36:29.000Z</time></trkpt>
        <trkpt lat="28.7987013" lon="105.9404295"><ele>418.47</ele><time>2026-02-05T22:36:33.000Z</time></trkpt>
        <trkpt lat="28.7987914" lon="105.940391"><ele>416.83</ele><time>2026-02-05T22:36:37.000Z</time></trkpt>
        <trkpt lat="28.7988876" lon="105.9403724"><ele>415.58</ele><time>2026-02-05T22:36:41.000Z</time></trkpt>
        <trkpt lat="28.7989802" lon="105.940347"><ele>414.85</ele><time>2026-02-05T22:36:47.000Z</time></trkpt>
        <trkpt lat="28.7990852" lon="105.9403306"><ele>414.87</ele><time>2026-02-05T22:36:55.000Z</time></trkpt>
        <trkpt lat="28.7991894" lon="105.9402976"><ele>414.83</ele><time>2026-02-05T22:37:03.000Z</time></trkpt>
        <trkpt lat="28.799284" lon="105.9402681"><ele>414.39</ele><time>2026-02-05T22:37:09.000Z</time></trkpt>
        <trkpt lat="28.7993841" lon="105.940226"><ele>414.46</ele><time>2026-02-05T22:37:17.000Z</time></trkpt>
        <trkpt lat="28.799482" lon="105.9401537"><ele>414.36</ele><time>2026-02-05T22:37:25.000Z</time></trkpt>
        <trkpt lat="28.7995579" lon="105.9400807"><ele>413.49</ele><time>2026-02-05T22:37:31.000Z</time></trkpt>
        <trkpt lat="28.7996284" lon="105.9400064"><ele>411.94</ele><time>2026-02-05T22:37:37.000Z</time></trkpt>
        <trkpt lat="28.7997028" lon="105.9399381"><ele>410.25</ele><time>2026-02-05T22:37:43.000Z</time></trkpt>
        <trkpt lat="28.7997829" lon="105.9398849"><ele>408.82</ele><time>2026-02-05T22:37:49.000Z</time></trkpt>
        <trkpt lat="28.7998227" lon="105.9398171"><ele>407.69</ele><time>2026-02-05T22:37:55.000Z</time></trkpt>
        <trkpt lat="28.7997659" lon="105.9397505"><ele>406.98</ele><time>2026-02-05T22:38:25.000Z</time></trkpt>
        <trkpt lat="28.7997492" lon="105.939655"><ele>400.71</ele><time>2026-02-05T22:38:35.000Z</time></trkpt>
        <trkpt lat="28.799815" lon="105.9395804"><ele>393.15</ele><time>2026-02-05T22:38:41.000Z</time></trkpt>
        <trkpt lat="28.799891" lon="105.9395087"><ele>388.92</ele><time>2026-02-05T22:38:47.000Z</time></trkpt>
        <trkpt lat="28.7999668" lon="105.9394312"><ele>386.4</ele><time>2026-02-05T22:38:53.000Z</time></trkpt>
        <trkpt lat="28.8000301" lon="105.9393489"><ele>385.72</ele><time>2026-02-05T22:38:59.000Z</time></trkpt>
        <trkpt lat="28.8001266" lon="105.9392652"><ele>385.46</ele><time>2026-02-05T22:39:05.000Z</time></trkpt>
        <trkpt lat="28.8002262" lon="105.9392185"><ele>385.72</ele><time>2026-02-05T22:39:09.000Z</time></trkpt>
        <trkpt lat="28.8003477" lon="105.9391831"><ele>386.99</ele><time>2026-02-05T22:39:15.000Z</time></trkpt>
        <trkpt lat="28.8004715" lon="105.9391492"><ele>389.03</ele><time>2026-02-05T22:39:21.000Z</time></trkpt>
        <trkpt lat="28.8005854" lon="105.9391214"><ele>391.92</ele><time>2026-02-05T22:39:27.000Z</time></trkpt>
        <trkpt lat="28.8006846" lon="105.9390959"><ele>394.48</ele><time>2026-02-05T22:39:33.000Z</time></trkpt>
        <trkpt lat="28.8007843" lon="105.9390616"><ele>396.14</ele><time>2026-02-05T22:39:39.000Z</time></trkpt>
        <trkpt lat="28.8008782" lon="105.9390258"><ele>397.96</ele><time>2026-02-05T22:39:45.000Z</time></trkpt>
        <trkpt lat="28.800959" lon="105.9389748"><ele>399.39</ele><time>2026-02-05T22:39:51.000Z</time></trkpt>
        <trkpt lat="28.8010438" lon="105.9388911"><ele>400.18</ele><time>2026-02-05T22:39:59.000Z</time></trkpt>
        <trkpt lat="28.8010958" lon="105.9387969"><ele>400.75</ele><time>2026-02-05T22:40:05.000Z</time></trkpt>
        <trkpt lat="28.8011227" lon="105.9386934"><ele>401.01</ele><time>2026-02-05T22:40:11.000Z</time></trkpt>
        <trkpt lat="28.8011128" lon="105.9385694"><ele>401.75</ele><time>2026-02-05T22:40:19.000Z</time></trkpt>
        <trkpt lat="28.8010851" lon="105.9384602"><ele>401.53</ele><time>2026-02-05T22:40:25.000Z</time></trkpt>
        <trkpt lat="28.8010614" lon="105.9383336"><ele>400.97</ele><time>2026-02-05T22:40:33.000Z</time></trkpt>
        <trkpt lat="28.801038" lon="105.9382201"><ele>400.35</ele><time>2026-02-05T22:40:39.000Z</time></trkpt>
        <trkpt lat="28.8010348" lon="105.9380964"><ele>401.14</ele><time>2026-02-05T22:40:47.000Z</time></trkpt>
        <trkpt lat="28.801066" lon="105.9379762"><ele>402.1</ele><time>2026-02-05T22:40:57.000Z</time></trkpt>
        <trkpt lat="28.8011036" lon="105.937873"><ele>402.71</ele><time>2026-02-05T22:41:03.000Z</time></trkpt>
        <trkpt lat="28.8011466" lon="105.9377789"><ele>403</ele><time>2026-02-05T22:41:09.000Z</time></trkpt>
        <trkpt lat="28.8011965" lon="105.9376826"><ele>402.74</ele><time>2026-02-05T22:41:15.000Z</time></trkpt>
        <trkpt lat="28.8012276" lon="105.9375847"><ele>402.65</ele><time>2026-02-05T22:41:21.000Z</time></trkpt>
        <trkpt lat="28.801244" lon="105.9374805"><ele>402.58</ele><time>2026-02-05T22:41:27.000Z</time></trkpt>
        <trkpt lat="28.8012914" lon="105.9373837"><ele>402.95</ele><time>2026-02-05T22:41:33.000Z</time></trkpt>
        <trkpt lat="28.801366" lon="105.9373056"><ele>404.12</ele><time>2026-02-05T22:41:39.000Z</time></trkpt>
        <trkpt lat="28.8014591" lon="105.9372514"><ele>405.06</ele><time>2026-02-05T22:41:45.000Z</time></trkpt>
        <trkpt lat="28.8015615" lon="105.9372181"><ele>405.56</ele><time>2026-02-05T22:41:51.000Z</time></trkpt>
        <trkpt lat="28.8016699" lon="105.9372517"><ele>404.74</ele><time>2026-02-05T22:41:59.000Z</time></trkpt>
        <trkpt lat="28.8017721" lon="105.937296"><ele>406.03</ele><time>2026-02-05T22:42:07.000Z</time></trkpt>
        <trkpt lat="28.8018804" lon="105.9373347"><ele>407.15</ele><time>2026-02-05T22:42:15.000Z</time></trkpt>
        <trkpt lat="28.8019926" lon="105.9373272"><ele>407.89</ele><time>2026-02-05T22:42:23.000Z</time></trkpt>
        <trkpt lat="28.8020913" lon="105.9373697"><ele>407.59</ele><time>2026-02-05T22:42:31.000Z</time></trkpt>
        <trkpt lat="28.8021335" lon="105.9374609"><ele>406.85</ele><time>2026-02-05T22:42:37.000Z</time></trkpt>
        <trkpt lat="28.8021661" lon="105.9375836"><ele>406.32</ele><time>2026-02-05T22:42:43.000Z</time></trkpt>
        <trkpt lat="28.8022493" lon="105.937651"><ele>407.78</ele><time>2026-02-05T22:42:51.000Z</time></trkpt>
        <trkpt lat="28.8023525" lon="105.9376378"><ele>409.01</ele><time>2026-02-05T22:42:59.000Z</time></trkpt>
        <trkpt lat="28.8024333" lon="105.9375704"><ele>410.04</ele><time>2026-02-05T22:43:05.000Z</time></trkpt>
        <trkpt lat="28.8024964" lon="105.9374761"><ele>410.91</ele><time>2026-02-05T22:43:11.000Z</time></trkpt>
        <trkpt lat="28.8025443" lon="105.9373485"><ele>411.82</ele><time>2026-02-05T22:43:19.000Z</time></trkpt>
        <trkpt lat="28.8025909" lon="105.9372162"><ele>412.15</ele><time>2026-02-05T22:43:27.000Z</time></trkpt>
        <trkpt lat="28.8026199" lon="105.937104"><ele>411.84</ele><time>2026-02-05T22:43:33.000Z</time></trkpt>
        <trkpt lat="28.8026505" lon="105.9370037"><ele>411.58</ele><time>2026-02-05T22:43:39.000Z</time></trkpt>
        <trkpt lat="28.8026818" lon="105.9369011"><ele>411.34</ele><time>2026-02-05T22:43:45.000Z</time></trkpt>
        <trkpt lat="28.8027165" lon="105.9368008"><ele>411</ele><time>2026-02-05T22:43:51.000Z</time></trkpt>
        <trkpt lat="28.8027325" lon="105.9366993"><ele>410.97</ele><time>2026-02-05T22:43:57.000Z</time></trkpt>
        <trkpt lat="28.8027173" lon="105.9365794"><ele>411.32</ele><time>2026-02-05T22:44:05.000Z</time></trkpt>
        <trkpt lat="28.8026568" lon="105.9364743"><ele>412</ele><time>2026-02-05T22:44:11.000Z</time></trkpt>
        <trkpt lat="28.8025861" lon="105.9363903"><ele>412.98</ele><time>2026-02-05T22:44:17.000Z</time></trkpt>
        <trkpt lat="28.8025351" lon="105.9362884"><ele>413.65</ele><time>2026-02-05T22:44:23.000Z</time></trkpt>
        <trkpt lat="28.802547" lon="105.9361825"><ele>414.09</ele><time>2026-02-05T22:44:29.000Z</time></trkpt>
        <trkpt lat="28.802595" lon="105.936088"><ele>414.71</ele><time>2026-02-05T22:44:35.000Z</time></trkpt>
        <trkpt lat="28.802655" lon="105.9359746"><ele>415.31</ele><time>2026-02-05T22:44:43.000Z</time></trkpt>
        <trkpt lat="28.8027042" lon="105.9358491"><ele>415.44</ele><time>2026-02-05T22:44:51.000Z</time></trkpt>
        <trkpt lat="28.802746" lon="105.9357424"><ele>416.07</ele><time>2026-02-05T22:44:57.000Z</time></trkpt>
        <trkpt lat="28.8027926" lon="105.9356475"><ele>416.31</ele><time>2026-02-05T22:45:03.000Z</time></trkpt>
        <trkpt lat="28.8028467" lon="105.9355569"><ele>416.81</ele><time>2026-02-05T22:45:09.000Z</time></trkpt>
        <trkpt lat="28.8029025" lon="105.935449"><ele>418.31</ele><time>2026-02-05T22:45:17.000Z</time></trkpt>
        <trkpt lat="28.8029426" lon="105.9353364"><ele>420.38</ele><time>2026-02-05T22:45:25.000Z</time></trkpt>
        <trkpt lat="28.8029804" lon="105.9352375"><ele>422.77</ele><time>2026-02-05T22:45:33.000Z</time></trkpt>
        <trkpt lat="28.8030278" lon="105.9351386"><ele>425.02</ele><time>2026-02-05T22:45:41.000Z</time></trkpt>
        <trkpt lat="28.8030604" lon="105.9350295"><ele>425.99</ele><time>2026-02-05T22:45:49.000Z</time></trkpt>
        <trkpt lat="28.8030563" lon="105.9349149"><ele>426.65</ele><time>2026-02-05T22:45:57.000Z</time></trkpt>
        <trkpt lat="28.8030173" lon="105.9348018"><ele>427</ele><time>2026-02-05T22:46:05.000Z</time></trkpt>
        <trkpt lat="28.802965" lon="105.9346994"><ele>428.3</ele><time>2026-02-05T22:46:13.000Z</time></trkpt>
        <trkpt lat="28.8028988" lon="105.934603"><ele>430.35</ele><time>2026-02-05T22:46:21.000Z</time></trkpt>
        <trkpt lat="28.802843" lon="105.9345113"><ele>431.88</ele><time>2026-02-05T22:46:29.000Z</time></trkpt>
        <trkpt lat="28.802804" lon="105.9344154"><ele>433.42</ele><time>2026-02-05T22:46:37.000Z</time></trkpt>
        <trkpt lat="28.8028265" lon="105.9343086"><ele>435.09</ele><time>2026-02-05T22:46:45.000Z</time></trkpt>
        <trkpt lat="28.8029148" lon="105.9342644"><ele>435.32</ele><time>2026-02-05T22:46:53.000Z</time></trkpt>
        <trkpt lat="28.8030254" lon="105.9342882"><ele>435.14</ele><time>2026-02-05T22:47:01.000Z</time></trkpt>
        <trkpt lat="28.8031404" lon="105.9343327"><ele>434.56</ele><time>2026-02-05T22:47:09.000Z</time></trkpt>
        <trkpt lat="28.8032437" lon="105.9343698"><ele>433.5</ele><time>2026-02-05T22:47:15.000Z</time></trkpt>
        <trkpt lat="28.8033488" lon="105.9344031"><ele>431.84</ele><time>2026-02-05T22:47:21.000Z</time></trkpt>
        <trkpt lat="28.8034522" lon="105.9344088"><ele>430.66</ele><time>2026-02-05T22:47:27.000Z</time></trkpt>
        <trkpt lat="28.803546" lon="105.9343757"><ele>430</ele><time>2026-02-05T22:47:33.000Z</time></trkpt>
        <trkpt lat="28.8036152" lon="105.9342766"><ele>430.15</ele><time>2026-02-05T22:47:41.000Z</time></trkpt>
        <trkpt lat="28.8036726" lon="105.934175"><ele>430.06</ele><time>2026-02-05T22:47:47.000Z</time></trkpt>
        <trkpt lat="28.803736" lon="105.9340655"><ele>430.47</ele><time>2026-02-05T22:47:55.000Z</time></trkpt>
        <trkpt lat="28.8038326" lon="105.9340015"><ele>430.71</ele><time>2026-02-05T22:48:03.000Z</time></trkpt>
        <trkpt lat="28.8039429" lon="105.9339837"><ele>431.02</ele><time>2026-02-05T22:48:11.000Z</time></trkpt>
        <trkpt lat="28.8040573" lon="105.9339638"><ele>430.08</ele><time>2026-02-05T22:48:19.000Z</time></trkpt>
        <trkpt lat="28.8041607" lon="105.9339898"><ele>429.18</ele><time>2026-02-05T22:48:27.000Z</time></trkpt>
        <trkpt lat="28.8042665" lon="105.9340165"><ele>428.77</ele><time>2026-02-05T22:48:35.000Z</time></trkpt>
        <trkpt lat="28.8043641" lon="105.9340298"><ele>428.12</ele><time>2026-02-05T22:48:41.000Z</time></trkpt>
        <trkpt lat="28.8044717" lon="105.9340425"><ele>428.3</ele><time>2026-02-05T22:48:49.000Z</time></trkpt>
        <trkpt lat="28.8045736" lon="105.9340703"><ele>428.7</ele><time>2026-02-05T22:48:57.000Z</time></trkpt>
        <trkpt lat="28.8046667" lon="105.9340717"><ele>428.76</ele><time>2026-02-05T22:49:03.000Z</time></trkpt>
        <trkpt lat="28.8047531" lon="105.9340336"><ele>428.72</ele><time>2026-02-05T22:49:09.000Z</time></trkpt>
        <trkpt lat="28.80482" lon="105.9339559"><ele>429.04</ele><time>2026-02-05T22:49:15.000Z</time></trkpt>
        <trkpt lat="28.8048839" lon="105.9338736"><ele>429.56</ele><time>2026-02-05T22:49:21.000Z</time></trkpt>
        <trkpt lat="28.8049347" lon="105.9337642"><ele>430.63</ele><time>2026-02-05T22:49:29.000Z</time></trkpt>
        <trkpt lat="28.8050034" lon="105.9336826"><ele>429.41</ele><time>2026-02-05T22:49:35.000Z</time></trkpt>
        <trkpt lat="28.8050878" lon="105.933632"><ele>428.41</ele><time>2026-02-05T22:49:41.000Z</time></trkpt>
        <trkpt lat="28.8051972" lon="105.9335941"><ele>428.61</ele><time>2026-02-05T22:49:49.000Z</time></trkpt>
        <trkpt lat="28.8052894" lon="105.9335498"><ele>429.18</ele><time>2026-02-05T22:49:55.000Z</time></trkpt>
        <trkpt lat="28.8053802" lon="105.9334825"><ele>429.77</ele><time>2026-02-05T22:50:03.000Z</time></trkpt>
        <trkpt lat="28.8054772" lon="105.9334005"><ele>430.32</ele><time>2026-02-05T22:50:09.000Z</time></trkpt>
        <trkpt lat="28.8055745" lon="105.9333433"><ele>430.84</ele><time>2026-02-05T22:50:13.000Z</time></trkpt>
        <trkpt lat="28.8056858" lon="105.9332826"><ele>429.83</ele><time>2026-02-05T22:50:19.000Z</time></trkpt>
        <trkpt lat="28.8057528" lon="105.9331883"><ele>428.82</ele><time>2026-02-05T22:50:23.000Z</time></trkpt>
        <trkpt lat="28.8057519" lon="105.9330713"><ele>427.8</ele><time>2026-02-05T22:50:31.000Z</time></trkpt>
        <trkpt lat="28.8057257" lon="105.9329482"><ele>428.11</ele><time>2026-02-05T22:50:41.000Z</time></trkpt>
        <trkpt lat="28.8056922" lon="105.9328329"><ele>427.62</ele><time>2026-02-05T22:50:49.000Z</time></trkpt>
        <trkpt lat="28.8057223" lon="105.9327183"><ele>427.16</ele><time>2026-02-05T22:50:59.000Z</time></trkpt>
        <trkpt lat="28.8057754" lon="105.9326055"><ele>425.1</ele><time>2026-02-05T22:51:07.000Z</time></trkpt>
        <trkpt lat="28.8058087" lon="105.9324937"><ele>422.11</ele><time>2026-02-05T22:51:13.000Z</time></trkpt>
        <trkpt lat="28.8058352" lon="105.9323865"><ele>418.61</ele><time>2026-02-05T22:51:19.000Z</time></trkpt>
        <trkpt lat="28.805899" lon="105.9323076"><ele>415.21</ele><time>2026-02-05T22:51:27.000Z</time></trkpt>
        <trkpt lat="28.8059974" lon="105.9322702"><ele>412.4</ele><time>2026-02-05T22:51:37.000Z</time></trkpt>
        <trkpt lat="28.8060951" lon="105.9322351"><ele>409.73</ele><time>2026-02-05T22:51:47.000Z</time></trkpt>
        <trkpt lat="28.8061895" lon="105.9322088"><ele>407.05</ele><time>2026-02-05T22:51:55.000Z</time></trkpt>
        <trkpt lat="28.8062944" lon="105.9321748"><ele>405.94</ele><time>2026-02-05T22:52:07.000Z</time></trkpt>
        <trkpt lat="28.8063932" lon="105.9321573"><ele>403.82</ele><time>2026-02-05T22:52:15.000Z</time></trkpt>
        <trkpt lat="28.8064896" lon="105.9321132"><ele>403.87</ele><time>2026-02-05T22:52:23.000Z</time></trkpt>
        <trkpt lat="28.8065905" lon="105.9320944"><ele>404.78</ele><time>2026-02-05T22:52:31.000Z</time></trkpt>
        <trkpt lat="28.8066883" lon="105.9320707"><ele>405.01</ele><time>2026-02-05T22:52:43.000Z</time></trkpt>
        <trkpt lat="28.8067828" lon="105.9320677"><ele>401.84</ele><time>2026-02-05T22:52:53.000Z</time></trkpt>
        <trkpt lat="28.8068814" lon="105.932094"><ele>396.97</ele><time>2026-02-05T22:53:03.000Z</time></trkpt>
        <trkpt lat="28.8069736" lon="105.9320976"><ele>393.33</ele><time>2026-02-05T22:53:13.000Z</time></trkpt>
        <trkpt lat="28.8070672" lon="105.9320931"><ele>390.93</ele><time>2026-02-05T22:53:23.000Z</time></trkpt>
        <trkpt lat="28.8071646" lon="105.932051"><ele>388.32</ele><time>2026-02-05T22:53:35.000Z</time></trkpt>
        <trkpt lat="28.8072664" lon="105.9320415"><ele>384.54</ele><time>2026-02-05T22:53:43.000Z</time></trkpt>
        <trkpt lat="28.8073555" lon="105.9319969"><ele>381.19</ele><time>2026-02-05T22:53:55.000Z</time></trkpt>
        <trkpt lat="28.8074272" lon="105.9319284"><ele>380.43</ele><time>2026-02-05T22:54:03.000Z</time></trkpt>
        <trkpt lat="28.8074797" lon="105.931828"><ele>378.14</ele><time>2026-02-05T22:54:13.000Z</time></trkpt>
        <trkpt lat="28.8075566" lon="105.9317701"><ele>373.72</ele><time>2026-02-05T22:54:19.000Z</time></trkpt>
        <trkpt lat="28.8076224" lon="105.9317005"><ele>371.66</ele><time>2026-02-05T22:54:25.000Z</time></trkpt>
        <trkpt lat="28.8077048" lon="105.9316305"><ele>370.87</ele><time>2026-02-05T22:54:33.000Z</time></trkpt>
        <trkpt lat="28.8077889" lon="105.9315637"><ele>370.32</ele><time>2026-02-05T22:54:39.000Z</time></trkpt>
        <trkpt lat="28.8078587" lon="105.9314921"><ele>370.02</ele><time>2026-02-05T22:54:43.000Z</time></trkpt>
        <trkpt lat="28.8079358" lon="105.9314367"><ele>368.76</ele><time>2026-02-05T22:54:49.000Z</time></trkpt>
        <trkpt lat="28.8080307" lon="105.9314281"><ele>367.31</ele><time>2026-02-05T22:54:55.000Z</time></trkpt>
        <trkpt lat="28.8081383" lon="105.9313934"><ele>365.5</ele><time>2026-02-05T22:55:03.000Z</time></trkpt>
        <trkpt lat="28.8082424" lon="105.9313842"><ele>363.2</ele><time>2026-02-05T22:55:11.000Z</time></trkpt>
        <trkpt lat="28.8083394" lon="105.9313633"><ele>360.64</ele><time>2026-02-05T22:55:17.000Z</time></trkpt>
        <trkpt lat="28.808449" lon="105.9313244"><ele>358.36</ele><time>2026-02-05T22:55:23.000Z</time></trkpt>
        <trkpt lat="28.8085519" lon="105.9312801"><ele>357.38</ele><time>2026-02-05T22:55:33.000Z</time></trkpt>
        <trkpt lat="28.8086231" lon="105.9312102"><ele>354.65</ele><time>2026-02-05T22:55:39.000Z</time></trkpt>
        <trkpt lat="28.808683" lon="105.9311207"><ele>353.54</ele><time>2026-02-05T22:55:51.000Z</time></trkpt>
        <trkpt lat="28.8087805" lon="105.9310413"><ele>351.06</ele><time>2026-02-05T22:55:59.000Z</time></trkpt>
        <trkpt lat="28.8088956" lon="105.9310288"><ele>348.82</ele><time>2026-02-05T22:56:05.000Z</time></trkpt>
        <trkpt lat="28.8090126" lon="105.931077"><ele>346.27</ele><time>2026-02-05T22:56:11.000Z</time></trkpt>
        <trkpt lat="28.8091149" lon="105.9310939"><ele>344.96</ele><time>2026-02-05T22:56:15.000Z</time></trkpt>
        <trkpt lat="28.8092061" lon="105.9310541"><ele>344.13</ele><time>2026-02-05T22:56:19.000Z</time></trkpt>
        <trkpt lat="28.8092874" lon="105.9309778"><ele>343.43</ele><time>2026-02-05T22:56:23.000Z</time></trkpt>
        <trkpt lat="28.8093749" lon="105.930905"><ele>343.14</ele><time>2026-02-05T22:56:27.000Z</time></trkpt>
        <trkpt lat="28.80946" lon="105.9308459"><ele>342.46</ele><time>2026-02-05T22:56:31.000Z</time></trkpt>
        <trkpt lat="28.8095652" lon="105.9307723"><ele>341.75</ele><time>2026-02-05T22:56:37.000Z</time></trkpt>
        <trkpt lat="28.8096527" lon="105.9306599"><ele>340.34</ele><time>2026-02-05T22:56:43.000Z</time></trkpt>
        <trkpt lat="28.8097158" lon="105.930552"><ele>338.67</ele><time>2026-02-05T22:56:47.000Z</time></trkpt>
        <trkpt lat="28.8097802" lon="105.9304707"><ele>337.76</ele><time>2026-02-05T22:56:51.000Z</time></trkpt>
        <trkpt lat="28.8098449" lon="105.9303699"><ele>337.13</ele><time>2026-02-05T22:56:59.000Z</time></trkpt>
        <trkpt lat="28.8099135" lon="105.9302621"><ele>335.77</ele><time>2026-02-05T22:57:05.000Z</time></trkpt>
        <trkpt lat="28.8099707" lon="105.9301694"><ele>334.62</ele><time>2026-02-05T22:57:11.000Z</time></trkpt>
        <trkpt lat="28.810031" lon="105.9300838"><ele>333.14</ele><time>2026-02-05T22:57:15.000Z</time></trkpt>
        <trkpt lat="28.8101093" lon="105.9300158"><ele>332.64</ele><time>2026-02-05T22:57:19.000Z</time></trkpt>
        <trkpt lat="28.8102055" lon="105.92995"><ele>332.38</ele><time>2026-02-05T22:57:23.000Z</time></trkpt>
        <trkpt lat="28.8102913" lon="105.9298919"><ele>332.66</ele><time>2026-02-05T22:57:27.000Z</time></trkpt>
        <trkpt lat="28.8103627" lon="105.9298262"><ele>333.07</ele><time>2026-02-05T22:57:33.000Z</time></trkpt>
        <trkpt lat="28.8104249" lon="105.9297239"><ele>333.13</ele><time>2026-02-05T22:57:41.000Z</time></trkpt>
        <trkpt lat="28.8104886" lon="105.9296409"><ele>332.53</ele><time>2026-02-05T22:57:47.000Z</time></trkpt>
        <trkpt lat="28.8105636" lon="105.9295594"><ele>332.16</ele><time>2026-02-05T22:57:53.000Z</time></trkpt>
        <trkpt lat="28.8106515" lon="105.9295163"><ele>330.99</ele><time>2026-02-05T22:57:57.000Z</time></trkpt>
        <trkpt lat="28.8107438" lon="105.9294662"><ele>329.4</ele><time>2026-02-05T22:58:01.000Z</time></trkpt>
        <trkpt lat="28.8108339" lon="105.9294094"><ele>327.59</ele><time>2026-02-05T22:58:05.000Z</time></trkpt>
        <trkpt lat="28.8109271" lon="105.9293568"><ele>326.05</ele><time>2026-02-05T22:58:09.000Z</time></trkpt>
        <trkpt lat="28.8110207" lon="105.9293046"><ele>324.72</ele><time>2026-02-05T22:58:13.000Z</time></trkpt>
        <trkpt lat="28.8111157" lon="105.9292509"><ele>324.14</ele><time>2026-02-05T22:58:17.000Z</time></trkpt>
        <trkpt lat="28.8112117" lon="105.9292089"><ele>323.45</ele><time>2026-02-05T22:58:23.000Z</time></trkpt>
        <trkpt lat="28.811301" lon="105.9291557"><ele>323.15</ele><time>2026-02-05T22:58:29.000Z</time></trkpt>
        <trkpt lat="28.8113845" lon="105.9290713"><ele>323.23</ele><time>2026-02-05T22:58:37.000Z</time></trkpt>
        <trkpt lat="28.8114782" lon="105.9290168"><ele>323.32</ele><time>2026-02-05T22:58:45.000Z</time></trkpt>
        <trkpt lat="28.8115745" lon="105.9290367"><ele>323.55</ele><time>2026-02-05T22:58:53.000Z</time></trkpt>
        <trkpt lat="28.8116809" lon="105.9290808"><ele>323.52</ele><time>2026-02-05T22:59:01.000Z</time></trkpt>
        <trkpt lat="28.8117968" lon="105.9291056"><ele>323.25</ele><time>2026-02-05T22:59:09.000Z</time></trkpt>
        <trkpt lat="28.8119054" lon="105.9291556"><ele>322.98</ele><time>2026-02-05T22:59:17.000Z</time></trkpt>
        <trkpt lat="28.8120059" lon="105.9292199"><ele>322.22</ele><time>2026-02-05T22:59:25.000Z</time></trkpt>
        <trkpt lat="28.8120991" lon="105.9292346"><ele>321.34</ele><time>2026-02-05T22:59:31.000Z</time></trkpt>
        <trkpt lat="28.8121931" lon="105.9292129"><ele>320.53</ele><time>2026-02-05T22:59:37.000Z</time></trkpt>
        <trkpt lat="28.8122875" lon="105.9292432"><ele>318.91</ele><time>2026-02-05T22:59:41.000Z</time></trkpt>
        <trkpt lat="28.8123469" lon="105.9293215"><ele>317.84</ele><time>2026-02-05T22:59:47.000Z</time></trkpt>
        <trkpt lat="28.8124231" lon="105.929412"><ele>317.08</ele><time>2026-02-05T22:59:55.000Z</time></trkpt>
        <trkpt lat="28.8125259" lon="105.9294669"><ele>317.07</ele><time>2026-02-05T23:00:03.000Z</time></trkpt>
        <trkpt lat="28.8126364" lon="105.9294456"><ele>317.32</ele><time>2026-02-05T23:00:11.000Z</time></trkpt>
        <trkpt lat="28.8126966" lon="105.9293559"><ele>317.48</ele><time>2026-02-05T23:00:17.000Z</time></trkpt>
        <trkpt lat="28.8127472" lon="105.9292461"><ele>316.9</ele><time>2026-02-05T23:00:23.000Z</time></trkpt>
        <trkpt lat="28.8127952" lon="105.9291407"><ele>315.04</ele><time>2026-02-05T23:00:27.000Z</time></trkpt>
        <trkpt lat="28.8128621" lon="105.9290417"><ele>313.03</ele><time>2026-02-05T23:00:31.000Z</time></trkpt>
        <trkpt lat="28.812948" lon="105.9289638"><ele>311.64</ele><time>2026-02-05T23:00:35.000Z</time></trkpt>
        <trkpt lat="28.8130456" lon="105.9289077"><ele>310.79</ele><time>2026-02-05T23:00:39.000Z</time></trkpt>
        <trkpt lat="28.8131531" lon="105.9288922"><ele>310.53</ele><time>2026-02-05T23:00:45.000Z</time></trkpt>
        <trkpt lat="28.8131955" lon="105.9289901"><ele>311.63</ele><time>2026-02-05T23:00:53.000Z</time></trkpt>
        <trkpt lat="28.8132118" lon="105.9291132"><ele>311.14</ele><time>2026-02-05T23:00:59.000Z</time></trkpt>
        <trkpt lat="28.8132502" lon="105.9292245"><ele>310.59</ele><time>2026-02-05T23:01:05.000Z</time></trkpt>
        <trkpt lat="28.8133136" lon="105.929307"><ele>310.59</ele><time>2026-02-05T23:01:11.000Z</time></trkpt>
        <trkpt lat="28.8134094" lon="105.9293764"><ele>310.63</ele><time>2026-02-05T23:01:19.000Z</time></trkpt>
        <trkpt lat="28.8135237" lon="105.9294144"><ele>310.42</ele><time>2026-02-05T23:01:27.000Z</time></trkpt>
        <trkpt lat="28.8136254" lon="105.9294387"><ele>310.14</ele><time>2026-02-05T23:01:33.000Z</time></trkpt>
        <trkpt lat="28.8137276" lon="105.9294508"><ele>309.67</ele><time>2026-02-05T23:01:39.000Z</time></trkpt>
        <trkpt lat="28.8138241" lon="105.9294685"><ele>308.51</ele><time>2026-02-05T23:01:45.000Z</time></trkpt>
        <trkpt lat="28.8139322" lon="105.9294998"><ele>307.73</ele><time>2026-02-05T23:01:53.000Z</time></trkpt>
        <trkpt lat="28.8140248" lon="105.9294142"><ele>307.41</ele><time>2026-02-05T23:02:01.000Z</time></trkpt>
        <trkpt lat="28.8141245" lon="105.9293641"><ele>305.52</ele><time>2026-02-05T23:02:07.000Z</time></trkpt>
        <trkpt lat="28.8142345" lon="105.929307"><ele>304.7</ele><time>2026-02-05T23:02:13.000Z</time></trkpt>
        <trkpt lat="28.8143276" lon="105.9292141"><ele>302.87</ele><time>2026-02-05T23:02:19.000Z</time></trkpt>
        <trkpt lat="28.8144156" lon="105.9291099"><ele>300.43</ele><time>2026-02-05T23:02:25.000Z</time></trkpt>
        <trkpt lat="28.8144912" lon="105.9291256"><ele>298.95</ele><time>2026-02-05T23:02:29.000Z</time></trkpt>
        <trkpt lat="28.8145989" lon="105.9291839"><ele>297.02</ele><time>2026-02-05T23:02:35.000Z</time></trkpt>
        <trkpt lat="28.8147065" lon="105.9292089"><ele>294.17</ele><time>2026-02-05T23:02:39.000Z</time></trkpt>
        <trkpt lat="28.8148007" lon="105.9291807"><ele>292.28</ele><time>2026-02-05T23:02:43.000Z</time></trkpt>
        <trkpt lat="28.8148619" lon="105.9290864"><ele>290.02</ele><time>2026-02-05T23:02:49.000Z</time></trkpt>
        <trkpt lat="28.8149511" lon="105.9290383"><ele>289.04</ele><time>2026-02-05T23:02:55.000Z</time></trkpt>
        <trkpt lat="28.8150621" lon="105.9290538"><ele>289.09</ele><time>2026-02-05T23:03:01.000Z</time></trkpt>
        <trkpt lat="28.8151639" lon="105.9290283"><ele>290.28</ele><time>2026-02-05T23:03:07.000Z</time></trkpt>
        <trkpt lat="28.8152729" lon="105.9290387"><ele>290.78</ele><time>2026-02-05T23:03:11.000Z</time></trkpt>
        <trkpt lat="28.8153682" lon="105.9290905"><ele>291.21</ele><time>2026-02-05T23:03:15.000Z</time></trkpt>
        <trkpt lat="28.815471" lon="105.9291313"><ele>291.44</ele><time>2026-02-05T23:03:21.000Z</time></trkpt>
        <trkpt lat="28.815564" lon="105.9291193"><ele>291.23</ele><time>2026-02-05T23:03:27.000Z</time></trkpt>
        <trkpt lat="28.8156543" lon="105.9290453"><ele>291.83</ele><time>2026-02-05T23:03:35.000Z</time></trkpt>
        <trkpt lat="28.8157559" lon="105.9290145"><ele>291.8</ele><time>2026-02-05T23:03:43.000Z</time></trkpt>
        <trkpt lat="28.8158533" lon="105.929035"><ele>291.74</ele><time>2026-02-05T23:03:51.000Z</time></trkpt>
        <trkpt lat="28.8159347" lon="105.9290799"><ele>292.92</ele><time>2026-02-05T23:04:01.000Z</time></trkpt>
        <trkpt lat="28.8159579" lon="105.9291761"><ele>295.28</ele><time>2026-02-05T23:04:31.000Z</time></trkpt>
        <trkpt lat="28.8159885" lon="105.9292922"><ele>295.53</ele><time>2026-02-05T23:04:41.000Z</time></trkpt>
        <trkpt lat="28.816061" lon="105.9293468"><ele>293.98</ele><time>2026-02-05T23:04:47.000Z</time></trkpt>
        <trkpt lat="28.8161789" lon="105.9293207"><ele>289.84</ele><time>2026-02-05T23:04:53.000Z</time></trkpt>
        <trkpt lat="28.8162945" lon="105.929303"><ele>283.02</ele><time>2026-02-05T23:04:57.000Z</time></trkpt>
        <trkpt lat="28.8164344" lon="105.9292741"><ele>277.56</ele><time>2026-02-05T23:05:03.000Z</time></trkpt>
        <trkpt lat="28.8165361" lon="105.9292112"><ele>274.31</ele><time>2026-02-05T23:05:07.000Z</time></trkpt>
        <trkpt lat="28.8166046" lon="105.9291322"><ele>273.22</ele><time>2026-02-05T23:05:11.000Z</time></trkpt>
        <trkpt lat="28.8166256" lon="105.9290562"><ele>272.78</ele><time>2026-02-05T23:05:19.000Z</time></trkpt>
        <trkpt lat="28.8166801" lon="105.928993"><ele>270.11</ele><time>2026-02-05T23:05:29.000Z</time></trkpt>
        <trkpt lat="28.8167058" lon="105.9288596"><ele>270.68</ele><time>2026-02-05T23:05:45.000Z</time></trkpt>
        <trkpt lat="28.8167808" lon="105.9287733"><ele>271.42</ele><time>2026-02-05T23:05:49.000Z</time></trkpt>
        <trkpt lat="28.8168777" lon="105.9287468"><ele>277.43</ele><time>2026-02-05T23:05:53.000Z</time></trkpt>
        <trkpt lat="28.816962" lon="105.928798"><ele>284.88</ele><time>2026-02-05T23:06:03.000Z</time></trkpt>
        <trkpt lat="28.8170598" lon="105.9288671"><ele>287.8</ele><time>2026-02-05T23:06:09.000Z</time></trkpt>
        <trkpt lat="28.8171572" lon="105.9288476"><ele>288.23</ele><time>2026-02-05T23:06:17.000Z</time></trkpt>
        <trkpt lat="28.8172485" lon="105.9288043"><ele>287.03</ele><time>2026-02-05T23:06:25.000Z</time></trkpt>
        <trkpt lat="28.8172728" lon="105.9286952"><ele>286.31</ele><time>2026-02-05T23:06:35.000Z</time></trkpt>
        <trkpt lat="28.8173187" lon="105.9285786"><ele>284.55</ele><time>2026-02-05T23:06:45.000Z</time></trkpt>
        <trkpt lat="28.8173924" lon="105.9284852"><ele>283.78</ele><time>2026-02-05T23:06:55.000Z</time></trkpt>
        <trkpt lat="28.8174961" lon="105.928394"><ele>284.14</ele><time>2026-02-05T23:07:03.000Z</time></trkpt>
        <trkpt lat="28.8175797" lon="105.9283103"><ele>283.78</ele><time>2026-02-05T23:07:09.000Z</time></trkpt>
        <trkpt lat="28.8176384" lon="105.9282236"><ele>283.9</ele><time>2026-02-05T23:07:15.000Z</time></trkpt>
        <trkpt lat="28.8176974" lon="105.9281182"><ele>284.2</ele><time>2026-02-05T23:07:23.000Z</time></trkpt>
        <trkpt lat="28.8177505" lon="105.9280246"><ele>284.92</ele><time>2026-02-05T23:07:29.000Z</time></trkpt>
        <trkpt lat="28.8177944" lon="105.9279082"><ele>285.72</ele><time>2026-02-05T23:07:37.000Z</time></trkpt>
        <trkpt lat="28.8178073" lon="105.9277761"><ele>286.47</ele><time>2026-02-05T23:07:45.000Z</time></trkpt>
        <trkpt lat="28.8178516" lon="105.9276822"><ele>287.29</ele><time>2026-02-05T23:07:51.000Z</time></trkpt>
        <trkpt lat="28.817925" lon="105.9276258"><ele>289.11</ele><time>2026-02-05T23:07:57.000Z</time></trkpt>
        <trkpt lat="28.8180165" lon="105.9276237"><ele>290.78</ele><time>2026-02-05T23:08:07.000Z</time></trkpt>
        <trkpt lat="28.8180897" lon="105.9277031"><ele>292.01</ele><time>2026-02-05T23:08:15.000Z</time></trkpt>
        <trkpt lat="28.8181789" lon="105.9277897"><ele>292.45</ele><time>2026-02-05T23:08:23.000Z</time></trkpt>
        <trkpt lat="28.8182859" lon="105.9278264"><ele>292.55</ele><time>2026-02-05T23:08:31.000Z</time></trkpt>
        <trkpt lat="28.8183968" lon="105.9278214"><ele>292.42</ele><time>2026-02-05T23:08:39.000Z</time></trkpt>
        <trkpt lat="28.8185088" lon="105.9277891"><ele>292.35</ele><time>2026-02-05T23:08:47.000Z</time></trkpt>
        <trkpt lat="28.8186081" lon="105.9277565"><ele>292.16</ele><time>2026-02-05T23:08:53.000Z</time></trkpt>
        <trkpt lat="28.8187181" lon="105.927737"><ele>291.84</ele><time>2026-02-05T23:09:01.000Z</time></trkpt>
        <trkpt lat="28.8187989" lon="105.9277821"><ele>291.53</ele><time>2026-02-05T23:09:05.000Z</time></trkpt>
        <trkpt lat="28.8188946" lon="105.9278529"><ele>291.08</ele><time>2026-02-05T23:09:09.000Z</time></trkpt>
        <trkpt lat="28.818985" lon="105.9279047"><ele>291.78</ele><time>2026-02-05T23:09:13.000Z</time></trkpt>
        <trkpt lat="28.819098" lon="105.9279689"><ele>291.76</ele><time>2026-02-05T23:09:19.000Z</time></trkpt>
        <trkpt lat="28.8191956" lon="105.9280199"><ele>290.25</ele><time>2026-02-05T23:09:23.000Z</time></trkpt>
        <trkpt lat="28.8192673" lon="105.9280903"><ele>289.55</ele><time>2026-02-05T23:09:27.000Z</time></trkpt>
        <trkpt lat="28.8193624" lon="105.9281672"><ele>288.7</ele><time>2026-02-05T23:09:33.000Z</time></trkpt>
        <trkpt lat="28.8194543" lon="105.9282164"><ele>287.49</ele><time>2026-02-05T23:09:37.000Z</time></trkpt>
        <trkpt lat="28.8195604" lon="105.9282794"><ele>286.57</ele><time>2026-02-05T23:09:43.000Z</time></trkpt>
        <trkpt lat="28.8196598" lon="105.9283036"><ele>284.91</ele><time>2026-02-05T23:09:51.000Z</time></trkpt>
        <trkpt lat="28.8196598" lon="105.9283036"><ele>284.91</ele><time>2026-02-05T23:10:13.000Z</time></trkpt>
        <trkpt lat="28.8197666" lon="105.9282881"><ele>284.44</ele><time>2026-02-05T23:10:23.000Z</time></trkpt>
        <trkpt lat="28.8197666" lon="105.9282881"><ele>284.44</ele><time>2026-02-05T23:10:29.000Z</time></trkpt>
        <trkpt lat="28.8198682" lon="105.9282386"><ele>282.89</ele><time>2026-02-05T23:10:35.000Z</time></trkpt>
        <trkpt lat="28.8199513" lon="105.9281775"><ele>281.47</ele><time>2026-02-05T23:10:43.000Z</time></trkpt>
        <trkpt lat="28.8200471" lon="105.9281108"><ele>279.55</ele><time>2026-02-05T23:10:55.000Z</time></trkpt>
        <trkpt lat="28.8201438" lon="105.9281077"><ele>276.18</ele><time>2026-02-05T23:11:03.000Z</time></trkpt>
        <trkpt lat="28.8201811" lon="105.9281201"><ele>274.61</ele><time>2026-02-05T23:11:05.000Z</time></trkpt>
        <trkpt lat="28.8202363" lon="105.9280776"><ele>274.44</ele><time>2026-02-05T23:11:23.000Z</time></trkpt>
        <trkpt lat="28.8203205" lon="105.9280476"><ele>271.35</ele><time>2026-02-05T23:11:31.000Z</time></trkpt>
        <trkpt lat="28.8204026" lon="105.9280543"><ele>268.12</ele><time>2026-02-05T23:11:39.000Z</time></trkpt>
        <trkpt lat="28.8204946" lon="105.9280371"><ele>265.48</ele><time>2026-02-05T23:11:49.000Z</time></trkpt>
        <trkpt lat="28.8205922" lon="105.9280124"><ele>261.76</ele><time>2026-02-05T23:11:59.000Z</time></trkpt>
        <trkpt lat="28.8206893" lon="105.9279957"><ele>257.64</ele><time>2026-02-05T23:12:11.000Z</time></trkpt>
        <trkpt lat="28.820793" lon="105.9280033"><ele>253.12</ele><time>2026-02-05T23:12:25.000Z</time></trkpt>
        <trkpt lat="28.8208953" lon="105.928037"><ele>249.28</ele><time>2026-02-05T23:12:37.000Z</time></trkpt>
        <trkpt lat="28.8210008" lon="105.9280317"><ele>244.62</ele><time>2026-02-05T23:12:47.000Z</time></trkpt>
        <trkpt lat="28.8210948" lon="105.9280134"><ele>240</ele><time>2026-02-05T23:12:57.000Z</time></trkpt>
        <trkpt lat="28.8211977" lon="105.9280262"><ele>234.61</ele><time>2026-02-05T23:13:09.000Z</time></trkpt>
        <trkpt lat="28.8212895" lon="105.9280717"><ele>229.68</ele><time>2026-02-05T23:13:17.000Z</time></trkpt>
        <trkpt lat="28.8213836" lon="105.9280996"><ele>225.02</ele><time>2026-02-05T23:13:25.000Z</time></trkpt>
        <trkpt lat="28.8214518" lon="105.9281738"><ele>221.51</ele><time>2026-02-05T23:13:33.000Z</time></trkpt>
        <trkpt lat="28.8215394" lon="105.9282431"><ele>218.3</ele><time>2026-02-05T23:13:43.000Z</time></trkpt>
        <trkpt lat="28.8216283" lon="105.9282324"><ele>214.51</ele><time>2026-02-05T23:13:49.000Z</time></trkpt>
        <trkpt lat="28.8217029" lon="105.9282742"><ele>210.89</ele><time>2026-02-05T23:13:59.000Z</time></trkpt>
        <trkpt lat="28.8217916" lon="105.9282787"><ele>206.02</ele><time>2026-02-05T23:14:07.000Z</time></trkpt>
        <trkpt lat="28.8218932" lon="105.9282759"><ele>200.37</ele><time>2026-02-05T23:14:15.000Z</time></trkpt>
        <trkpt lat="28.8219861" lon="105.9282252"><ele>195.75</ele><time>2026-02-05T23:14:23.000Z</time></trkpt>
        <trkpt lat="28.8220783" lon="105.9282506"><ele>193.13</ele><time>2026-02-05T23:14:29.000Z</time></trkpt>
        <trkpt lat="28.8221237" lon="105.9283367"><ele>191.66</ele><time>2026-02-05T23:14:35.000Z</time></trkpt>
        <trkpt lat="28.8221868" lon="105.9284373"><ele>191.62</ele><time>2026-02-05T23:14:45.000Z</time></trkpt>
        <trkpt lat="28.8222601" lon="105.9285242"><ele>192.28</ele><time>2026-02-05T23:14:53.000Z</time></trkpt>
        <trkpt lat="28.8223222" lon="105.9286102"><ele>192.67</ele><time>2026-02-05T23:15:03.000Z</time></trkpt>
        <trkpt lat="28.8224142" lon="105.928665"><ele>192.29</ele><time>2026-02-05T23:15:11.000Z</time></trkpt>
        <trkpt lat="28.8225096" lon="105.9286877"><ele>191.08</ele><time>2026-02-05T23:15:17.000Z</time></trkpt>
        <trkpt lat="28.8226042" lon="105.9286917"><ele>190.31</ele><time>2026-02-05T23:15:23.000Z</time></trkpt>
        <trkpt lat="28.8227071" lon="105.928655"><ele>190.48</ele><time>2026-02-05T23:15:31.000Z</time></trkpt>
        <trkpt lat="28.822817" lon="105.9286615"><ele>191.07</ele><time>2026-02-05T23:15:41.000Z</time></trkpt>
        <trkpt lat="28.8229165" lon="105.9286474"><ele>192.17</ele><time>2026-02-05T23:15:51.000Z</time></trkpt>
        <trkpt lat="28.8230011" lon="105.928603"><ele>192.74</ele><time>2026-02-05T23:15:59.000Z</time></trkpt>
        <trkpt lat="28.8230884" lon="105.9285358"><ele>193.48</ele><time>2026-02-05T23:16:09.000Z</time></trkpt>
        <trkpt lat="28.8231783" lon="105.9284786"><ele>193.87</ele><time>2026-02-05T23:16:21.000Z</time></trkpt>
        <trkpt lat="28.8232798" lon="105.9284806"><ele>192.96</ele><time>2026-02-05T23:16:33.000Z</time></trkpt>
        <trkpt lat="28.8233824" lon="105.9284826"><ele>192.07</ele><time>2026-02-05T23:16:43.000Z</time></trkpt>
        <trkpt lat="28.8234815" lon="105.9285148"><ele>192.24</ele><time>2026-02-05T23:16:53.000Z</time></trkpt>
        <trkpt lat="28.8235812" lon="105.928574"><ele>192.6</ele><time>2026-02-05T23:17:03.000Z</time></trkpt>
        <trkpt lat="28.8236487" lon="105.9286623"><ele>193.01</ele><time>2026-02-05T23:17:11.000Z</time></trkpt>
        <trkpt lat="28.8236792" lon="105.928775"><ele>193.4</ele><time>2026-02-05T23:17:19.000Z</time></trkpt>
        <trkpt lat="28.8236943" lon="105.9289064"><ele>193.17</ele><time>2026-02-05T23:17:27.000Z</time></trkpt>
        <trkpt lat="28.8237624" lon="105.9289493"><ele>192.92</ele><time>2026-02-05T23:17:37.000Z</time></trkpt>
        <trkpt lat="28.8238085" lon="105.9288698"><ele>192.66</ele><time>2026-02-05T23:17:45.000Z</time></trkpt>
        <trkpt lat="28.8238144" lon="105.9287466"><ele>192.06</ele><time>2026-02-05T23:17:53.000Z</time></trkpt>
        <trkpt lat="28.8237933" lon="105.9286119"><ele>191.52</ele><time>2026-02-05T23:18:01.000Z</time></trkpt>
        <trkpt lat="28.82377" lon="105.9284796"><ele>191.42</ele><time>2026-02-05T23:18:09.000Z</time></trkpt>
        <trkpt lat="28.8237531" lon="105.9283652"><ele>191.61</ele><time>2026-02-05T23:18:17.000Z</time></trkpt>
        <trkpt lat="28.823782" lon="105.9282538"><ele>191.95</ele><time>2026-02-05T23:18:27.000Z</time></trkpt>
        <trkpt lat="28.8238262" lon="105.9281416"><ele>191.62</ele><time>2026-02-05T23:18:37.000Z</time></trkpt>
        <trkpt lat="28.8238262" lon="105.9281416"><ele>191.62</ele><time>2026-02-05T23:18:45.000Z</time></trkpt>
      </trkseg>
      <trkseg>
        <trkpt lat="28.8238734" lon="105.9279146"><ele>190.98</ele><time>2026-02-05T23:18:47.000Z</time></trkpt>
        <trkpt lat="28.8238734" lon="105.9279146"><ele>190.98</ele><time>2026-02-05T23:18:53.000Z</time></trkpt>
        <trkpt lat="28.8239191" lon="105.9278123"><ele>190.27</ele><time>2026-02-05T23:19:01.000Z</time></trkpt>
        <trkpt lat="28.8239775" lon="105.9277126"><ele>189.77</ele><time>2026-02-05T23:19:09.000Z</time></trkpt>
        <trkpt lat="28.824039" lon="105.927616"><ele>189.22</ele><time>2026-02-05T23:19:17.000Z</time></trkpt>
        <trkpt lat="28.824039" lon="105.927616"><ele>189.22</ele><time>2026-02-05T23:19:20.000Z</time></trkpt>
      </trkseg>
  </trk>
</gpx>